     2              OBSERVATION DATA    GPS                 RINEX VERSION / TYPE
teqc 2002Apr3 20070406 16:16:45UTC                          PGM / RUN BY / DATE
                                                            COMMENT
L2: 1 -> 1; 150 -> 5; 250 -> 9                              COMMENT
L2: 1 -> 1; 150 -> 5; 250 -> 9                              COMMENT
L2: 1 -> 1; 150 -> 5; 250 -> 9                              COMMENT
L2: 1 -> 1; 150 -> 5; 250 -> 9                              COMMENT
L2: 1 -> 1; 150 -> 5; 250 -> 9                              COMMENT
Original Marker Name: MH18                                  COMMENT
Campaign Name: Painted Canyon Array                         COMMENT
4-Character Station Name: MH18                              COMMENT
6-Character Antenna Code: DMRCHT                            COMMENT
Vertical Measurement Point: BCR                             COMMENT
Vertical Offset to Rinex Ref. Point: 0.0348                 COMMENT
Radial Measurement Point: ECF                               COMMENT
Radial Offset to Rinex Ref. Point: 0.1897                   COMMENT
Antenna Height from Field Measurement: 1.1110 m             COMMENT
Additional Antenna Identification Info.:                    COMMENT
Turborogue and Ashtech Choke Ring                           COMMENT
Original XYZ: 0.0000 0.0000 0.0000                          COMMENT
New XYZ position is based on association with SCEC monument COMMENT
E1D0K9W3+0181. Position of that monument is believed to be  COMMENT
valid to within 1 m horizontally; vertical accuracy         COMMENT
should be no worse than 3-times this value.                 COMMENT
                                                            COMMENT
Revised Rinex header created by UCSD GPS archive for        COMMENT
GSAC on 09-Jun-2007 (2007:160) 17:14:45 GMT                 COMMENT
For assistance contact dagnew@ucsd.edu                      COMMENT
or anderson@python.ucsd.edu                                 COMMENT
                                                            COMMENT
MH18                                                        MARKER NAME
-Unknown- SCRIPPS INSTITUTION OF OCEANOGRAPHY               OBSERVER / AGENCY
378 ASHTECH Z-XII3 CC00                                     REC # / TYPE / VERS
002 DORNE-MARGOL. TYPE T                                    ANT # / TYPE
 -2333070.0000 -4778589.0000  3509970.0000                  APPROX POSITION XYZ
        1.0599        0.0000        0.0000                  ANTENNA: DELTA H/E/N
     1     1     0                                          WAVELENGTH FACT L1/2
     7    C1    L1    L2    P1    P2    S1    S2            # / TYPES OF OBSERV
    30                                                      INTERVAL
  2007     2    18     1    16   35.000000                  TIME OF FIRST OBS
  2007     2    18     1    57   35.000000                  TIME OF LAST OBS
                                                            END OF HEADER
 07  2 18  1 16 35.0000000  0  6G 1G 3G14G22G19G31
                   -201527.07649   -137441.94043
       236.0004         74.0004
                     26069.69349     17820.67943
       214.0004         74.0004
  20497707.0944     -73427.44249    -49326.51647  20497706.6434   20497711.0764
       237.0004        208.0004
  21386206.7654     -52459.69949    -36104.45547  21386206.6474   21386209.5194
       240.0004        197.0004
  22798084.9884     -48092.79649    -32882.00146  22798084.0254   22798088.0674
       227.0004        180.0004
                   -261437.50349   -179870.84445                  23288025.5764
       220.0004        152.0004
 07  2 18  1 16 40.0000000  0  6G 1G 3G14G22G19G31
                   -221931.78549   -153358.52143
       238.0004         74.0004
                     28302.70149     19560.69643
       215.0004         74.0004
  20496304.7344     -80795.83349    -55068.12547  20496304.4244   20496308.8434
       236.0004        209.0004
  21385170.5974     -57905.16949    -40347.68147  21385170.2354   21385173.0174
       243.0004        198.0004
  22797147.8484     -53018.77549    -36720.41946  22797146.5144   22797150.3924
       224.0004        180.0004
                   -288186.53249   -200714.24445                  23282935.9894
       220.0004        157.0004
 07  2 18  1 16 45.0000000  0  6G 1G 3G14G22G19G31
                   -242349.09249   -169284.68643
       236.0004         74.0004
                     30517.26449     21286.33743
       218.0004         74.0004
  20494900.4164     -88175.47149    -60818.49247  20494900.3164   20494904.5404
       237.0004        210.0004
  21384130.4614     -63369.28449    -44605.43347  21384130.5544   21384133.2624
       241.0004        200.0004
  22796208.1844     -57954.58049    -40566.50146  22796207.5644   22796211.4394
       226.0004        180.0004
  23277836.2344    -314954.83349   -221572.64845  23277836.6494   23277841.9814
       222.0004        161.0004
 07  2 18  1 16 50.0000000  0  6G 1G 3G14G22G19G31
                   -262777.28849   -185219.44643
       236.0004         74.0004
                     32715.06549     22998.91743
       218.0004         74.0004
  20493494.3344     -95564.66149    -66576.30047  20493494.0194   20493498.5574
       237.0004        210.0004
  21383087.2644     -68850.38049    -48876.41447  21383087.3074   21383090.2134
       240.0004        201.0004
  22795267.4384     -62898.55749    -44418.94946  22795267.3554   22795270.6714
       225.0004        181.0004
  23272738.8084    -341740.62949   -242444.68346  23272739.5784   23272744.7434
       220.0004        164.0004
 07  2 18  1 16 55.0000000  0  6G 1G 3G14G22G19G31
                   -283216.10449   -201162.46343
       236.0004         74.0004
                     34896.28549     24698.57643                  23747885.2204
       217.0004         89.0004
  20492086.5134    -102963.17749    -72341.37747  20492086.1944   20492090.5594
       237.0004        211.0004
  21382041.1534     -74348.15549    -53160.39447  21382041.1214   21382044.1244
       240.0004        202.0004
  22794325.5484     -67850.40149    -48277.54146  22794324.1784   22794328.7774
       225.0004        181.0004
  23267639.1144    -368543.65749   -263330.14846  23267638.8194   23267644.7484
       221.0004        166.0004
 07  2 18  1 17  0.0000000  0  6G 1G 3G14G22G19G31
                   -303668.33649   -217115.91743
       236.0004         74.0004
                     37058.11949     26383.12044                  23748296.6124
       217.0004        125.0004
  20490676.3374    -110373.80349    -78115.88947  20490676.0604   20490680.3794
       237.0004        211.0004
  21380991.2374     -79865.35749    -57459.51447  21380991.1884   21380994.1614
       240.0004        202.0004
  22793380.5454     -72812.95449    -52144.46946  22793379.6224   22793383.9424
       226.0004        182.0004
  23262534.0064    -395366.72949   -284231.23346  23262534.9124   23262539.8904
       221.0004        168.0004
 07  2 18  1 17  5.0000000  0  6G 1G 3G14G22G19G31
                   -324135.90249   -233081.29143
       236.0004         74.0004
                     39198.59549     28051.02245                  23748703.8634
       216.0004        136.0004
  20489263.4864    -117798.46449    -83901.33747  20489263.1084   20489267.4254
       237.0004        212.0004
  21379937.3374     -85404.00849    -61775.34547  21379937.3274   21379940.3654
       241.0004        203.0004
  22792434.4534     -77788.12949    -56021.22546  22792433.3574   22792437.2984
       225.0004        182.0004
  23257425.7204    -422211.71849   -305149.39546  23257426.5694   23257432.1274
       222.0004        169.0004
 07  2 18  1 17 10.0000000  0  6G 1G 3G14G22G19G31
                   -344615.95049   -249056.47343
       235.0004         74.0004
                     41320.57949     29704.51345                  23749108.1754
       217.0004        143.0004
  20487848.6684    -125234.32749    -89695.51447  20487848.3284   20487852.3334
       237.0004        212.0004
  21378880.1064     -90961.20149    -66105.62347  21378879.5404   21378882.6404
       241.0004        203.0004
  22791485.2714     -82773.06249    -59905.58846  22791484.5144   22791489.2664
       225.0004        182.0004
  23252313.7504    -449075.75049   -326082.40346  23252314.1484   23252319.8534
       222.0004        171.0004
 07  2 18  1 17 15.0000000  0  6G 1G 3G14G22G19G31
                   -365108.97249   -265041.69643
       235.0004         74.0004
                     43423.66549     31343.27645                  23749508.2814
       218.0004        147.0004
  20486431.5234    -132681.88449    -95498.80747  20486430.9394   20486435.1364
       237.0004        212.0004
  21377818.5904     -96537.41849    -70450.73647  21377818.9044   21377821.5044
       240.0004        203.0004
  22790534.2294     -87768.28249    -63797.97746  22790534.2614   22790538.6854
       225.0004        182.0004
  23247198.6824    -475959.33949   -347030.64746  23247198.7594   23247203.6814
       222.0004        171.0004
 07  2 18  1 17 20.0000000  0  6G 1G 3G14G22G19G31
                   -385617.79449   -281039.23243
       235.0004         74.0004
  23749897.4784      45504.98149     32965.07345  23749897.0184   23749904.2934
       217.0004        150.0004
  20485011.4894    -140143.98549   -101313.42547  20485010.9424   20485015.3384
       236.0004        212.0004
  21376753.6074    -102135.50749    -74812.87647  21376753.5914   21376756.3794
       241.0004        203.0004
  22789581.9984     -92776.59149    -67700.54646  22789580.5024   22789585.0204
       226.0004        183.0004
  23242078.6374    -502865.26449   -367996.28746  23242079.0834   23242083.8094
       223.0004        172.0004
 07  2 18  1 17 25.0000000  0  6G 1G 3G14G22G19G31
                   -406140.16849     -4079.15443
       235.0004         74.0004
  23750289.7084      47566.72449     34571.62345  23750289.3874   23750296.3944
       216.0004        152.0004
  20483588.9334    -147618.38249   -107137.62847  20483588.7274   20483592.9114
       237.0004        212.0004
  21375684.0204    -107753.21949    -79190.31447  21375684.4124   21375687.7244
       240.0004        204.0004
  22788626.4624     -97795.77749    -71611.60146  22788625.9934   22788630.2534
       226.0004        182.0004
  23236954.0634    -529791.27949   -388977.58946  23236954.1314   23236959.9034
       220.0004        172.0004
 07  2 18  1 17 30.0000000  0  6G 1G 3G14G22G19G31
                   -426670.23349    -20076.63545                  21804854.7254
       236.0004        147.0004
  23750679.2984      49614.69749     36167.44445  23750679.3874   23750686.2044
       216.0004        154.0004
  20482165.3334    -155099.21149   -112966.84247  20482165.0424   20482169.3754
       236.0004        212.0004
  21374612.1794    -113384.66349    -83578.44947  21374612.8934   21374615.7374
       240.0004        204.0004
  22787670.3994    -102820.00149    -75526.57946  22787669.5654   22787674.1844
       227.0004        182.0004
  23231827.1864    -556731.50549   -409969.96546  23231827.5604   23231833.5504
       220.0004        172.0004
 07  2 18  1 17 35.0000000  0  7G 1G 3G14G22G19G31G11
                   -447208.20549    -36080.24546                  21800946.4054
       236.0004        168.0004
  23751066.2934      51648.69349     37752.37145  23751066.7794   23751073.0074
       216.0004        155.0004
  20480740.4714    -162586.74049   -118801.27547  20480740.2494   20480744.3584
       237.0004        212.0004
  21373537.8474    -119030.08149    -87977.47347  21373538.4674   21373541.5504
       241.0004        204.0004
  22786713.3394    -107849.51149    -79445.67846  22786712.4474   22786716.9214
       226.0004        182.0004
  23226697.6964    -583686.05249   -430973.50146  23226698.5914   23226703.6354
       221.0004        172.0004
                   -364805.50059   -249358.98044                  24493897.3914
       206.0004        127.0004
 07  2 18  1 17 40.0000000  0  7G 1G 3G14G22G19G31G11
                   -467749.75149    -52086.63746                  21797037.8304
       237.0004        177.0004
  23751451.5394      53673.03549     39329.78245  23751452.2224   23751458.0794
       217.0004        156.0004
  20479315.2124    -170076.61449   -124637.53947  20479314.9754   20479319.3314
       237.0004        212.0004
  21372461.7404    -124685.13349    -92384.00647  21372462.4524   21372465.3774
       241.0004        204.0004
  22785756.0914    -112879.92649    -83365.48946  22785755.4504   22785759.6734
       225.0004        183.0004
  23221566.3714    -610650.73349   -451984.93446  23221567.9734   23221572.4584
       221.0004        172.0004
  24488901.7854    -391024.91349   -269789.68044  24488901.4964   24488906.0314
       205.0004        129.0004
 07  2 18  1 17 45.0000000  0  7G 1G 3G14G22G19G31G11
                   -488294.38749    -68095.44446                  21793128.1324
       236.0004        183.0004
  23751835.0924      55688.19249     40900.03245  23751835.7164   23751841.4634
       219.0004        156.0004
  20477889.6014    -177568.40449   -130475.29747  20477889.3124   20477893.7684
       237.0004        212.0004
  21371383.9434    -130349.40449    -96797.72447  21371384.5484   21371387.5964
       241.0004        204.0004
  22784798.7084    -117910.83949    -87285.67146  22784798.1524   22784802.6214
       225.0004        183.0004
  23216433.2664    -637625.05649   -473003.87946  23216434.5674   23216439.6254
       220.0004        172.0004
  24483910.0914    -417253.16749   -290227.26644  24483909.5924   24483910.1554
       204.0004        131.0004
 07  2 18  1 17 50.0000000  0  7G 1G 3G14G22G19G31G11
                  -1138327.69949   -574614.90146                  21669431.0654
       236.0004        186.0004
  23632430.1154    -571789.69949   -448043.77845  23632430.5694   23632436.5964
       217.0004        157.0004
  20356676.6774    -814546.59249   -626821.93647  20356676.3864   20356680.7364
       237.0004        212.0004
  21250517.5494    -765507.18849   -591725.86947  21250518.2424   21250521.0534
       241.0004        204.0004
  22664054.3914    -752426.56849   -581713.51746  22664053.8024   22664058.1684
       227.0004        183.0004
  23091511.1874   -1294095.04749   -984538.93646  23091513.3584   23091517.6284
       220.0004        172.0004
  24359130.5874   -1072975.88249   -801180.01845  24359129.9454   24359134.0064
       208.0004        134.0004
 07  2 18  1 17 55.0000000  0  7G 1G 3G14G22G19G31G11
  21667497.3594   -1148459.32849   -582509.67347  21667497.0244   21667503.2564
       236.0004        189.0004
  23634792.8554    -559373.79649   -438369.04645  23634793.5934   23634799.2054
       216.0004        157.0004
  20357233.0374    -811622.96749   -624543.78647  20357232.8314   20357237.1754
       237.0004        212.0004
  21251418.9854    -760770.55449   -588034.98947  21251419.5984   21251422.5314
       242.0004        204.0004
  22665079.5974    -747039.28649   -577515.63646  22665079.1224   22665083.2174
       226.0004        183.0004
  23088357.2124   -1310669.31749   -997453.93846  23088358.2524   23088363.4714
       221.0004        172.0004
  24356118.3854   -1088802.07149   -813512.09045  24356117.8404   24356122.7704
       208.0004        136.0004
 07  2 18  1 18  0.0000000  0  7G 1G 3G14G22G19G31G11
  21665571.2804   -1158580.92449   -590396.61947  21665571.0674   21665577.2124
       236.0004        190.0004
  23637156.3294    -546953.94949   -428691.24745  23637156.7674   23637163.0634
       217.0004        157.0004
  20357791.5394    -808688.15549   -622256.91747  20357791.2244   20357795.5764
       237.0004        212.0004
  21252321.1624    -756029.98149   -584341.03047  21252321.7644   21252324.4614
       241.0004        204.0004
  22666107.2494    -741639.40149   -573307.93046  22666106.8414   22666110.4664
       227.0004        183.0004
  23085203.9874   -1327240.03249  -1010366.17746  23085205.5454   23085209.9614
       221.0004        172.0004
  24353108.6914   -1104623.78349   -825840.69145  24353107.9244   24353112.6444
       209.0004        138.0004
 07  2 18  1 18  5.0000000  0  7G 1G 3G14G22G19G31G11
  21663647.1964   -1168692.01049   -598275.38447  21663647.0594   21663652.8264
       236.0004        192.0004
  23639520.6074    -534529.78949   -419010.08745  23639521.0504   23639527.1304
       217.0004        157.0004
  20358352.2424    -805741.63249   -619960.92247  20358351.8964   20358356.2974
       237.0004        212.0004
  21253224.1914    -751284.96949   -580643.61647  21253224.6794   21253227.2934
       241.0004        204.0004
  22667137.3414    -736226.38249   -569090.00346  22667137.0484   22667140.7974
       226.0004        183.0004
  23082051.5764   -1343806.69049  -1023275.25446  23082051.9084   23082057.4534
       220.0004        171.0004
  24350098.5684   -1120440.48449   -838165.39045  24350096.6894   24350102.5074
       208.0004        138.0004
 07  2 18  1 18 10.0000000  0  7G 1G 3G14G22G19G31G11
  21661724.9694   -1178793.32449   -606146.53547  21661724.6404   21661730.9664
       236.0004        193.0004
  23641885.5874    -522102.05049   -409326.13945  23641885.7234   23641892.2004
       218.0004        158.0004
  20358915.0454    -802784.16849   -617656.40347  20358914.6974   20358919.1024
       236.0004        212.0004
  21254127.9164    -746536.24649   -576943.31147  21254128.1034   21254131.0464
       241.0004        204.0004
  22668169.8174    -730801.00949   -564862.42846  22668169.1134   22668173.3174
       226.0004        183.0004
  23078899.7794   -1360370.00249  -1036181.71546  23078900.0104   23078905.3724
       220.0004        171.0004
  24347089.4844   -1136252.92849   -850486.77145  24347089.0514   24347092.7624
       208.0004        139.0004
 07  2 18  1 18 15.0000000  0  7G 1G 3G14G22G19G31G11
  21659804.6604   -1188884.58149   -614009.84647  21659804.4394   21659810.3924
       235.0004        194.0004
  23644251.2784    -509670.44449   -399639.17745  23644250.9064   23644258.0384
       217.0004        158.0004
  20359479.9734    -799815.53749   -615343.18147  20359479.5964   20359483.9664
       237.0004        212.0004
  21255032.3744    -741783.56449   -573239.92847  21255032.6074   21255035.4154
       241.0004        204.0004
  22669204.6654    -725363.03149   -560625.04746  22669203.5774   22669208.2994
       226.0004        183.0004
  23075748.6134   -1376929.70449  -1049085.37146  23075748.8614   23075754.3184
       218.0004        171.0004
  24344081.3514   -1152060.89349   -862804.65345  24344079.7344   24344085.0694
       209.0004        140.0004
 07  2 18  1 18 20.0000000  0  7G 1G 3G14G22G19G31G11
  21657886.3064   -1198965.59849   -621865.17547  21657885.8284   21657891.8924
       237.0004        194.0004
  23646617.7164    -497234.81349   -389949.07545  23646617.2874   23646624.2414
       216.0004        158.0004
  20360047.0484    -796835.52749   -613021.09347  20360046.7134   20360050.9634
       237.0004        212.0004
  21255937.6234    -737026.72549   -569533.29847  21255937.7414   21255940.7954
       241.0004        204.0004
  22670241.9464    -719912.26849   -556377.70246  22670241.1894   22670245.3024
       226.0004        183.0004
  23072598.1864   -1393485.57649  -1061986.04346  23072598.8824   23072604.1634
       221.0004        171.0004
  24341074.0894   -1167864.09549   -875118.81745  24341073.0864   24341077.2214
       210.0004        140.0004
 07  2 18  1 18 25.0000000  0  7G 1G 3G14G22G19G31G11
  21655969.9054   -1209036.28149   -629712.45847  21655969.3744   21655975.5734
       236.0004        195.0004
  23648984.9444    -484795.01749   -380255.73445  23648984.4494   23648991.6674
       217.0004        158.0004
  20360616.3114    -793844.02049   -610690.04747  20360615.9894   20360620.3224
       237.0004        212.0004
  21256843.6444    -732265.61649   -565823.34347  21256843.8634   21256846.6434
       241.0004        204.0004
  22671281.6624    -714448.64349   -552120.33146  22671280.5694   22671284.6934
       226.0004        183.0004
  23069448.4494   -1410037.53049  -1074883.66446  23069449.5924   23069453.9634
       221.0004        171.0004
  24338067.7754   -1183662.45149   -887429.22345  24338067.0674   24338071.6994
       209.0004        141.0004
 07  2 18  1 18 30.0000000  0  7G 1G 3G14G22G19G31G11
  21654055.4734   -1219096.71049   -637551.74647  21654055.0204   21654061.2754
       236.0004        195.0004
  23651352.8864    -472351.25649   -370559.30045  23651352.3294   23651359.6154
       216.0004        158.0004
  20361187.7464    -790841.15749   -608350.15147  20361187.3634   20361191.7354
       236.0004        212.0004
  21257750.4554    -727500.32349   -562110.12447  21257750.7354   21257753.4394
       240.0004        204.0004
  22672323.8024    -708972.24549   -547853.00346  22672322.9174   22672327.7794
       226.0004        183.0004
  23066299.4724   -1426585.62649  -1087778.27646  23066300.5124   23066304.5834
       219.0004        171.0004
  24335062.2654   -1199456.11149   -899735.96445  24335061.4974   24335066.6374
       210.0004        141.0004
 07  2 18  1 18 35.0000000  0  7G 1G 3G14G22G19G31G11
  21652142.9864   -1229146.79049   -645382.97047  21652142.3444   21652148.8224
       236.0004        195.0004
  23653721.6244    -459903.41449   -360859.68645  23653721.2894   23653728.3954
       216.0004        158.0004
  20361761.3284    -787826.84549   -606001.33347  20361760.9264   20361765.2644
       237.0004        212.0004
  21258658.0784    -722730.76349   -558393.58147  21258658.1474   21258661.2284
       241.0004        204.0004
  22673368.3604    -703482.97849   -543575.65146  22673367.4544   22673371.5484
       225.0004        183.0004
  23063151.2744   -1443129.75449  -1100669.79646  23063152.4824   23063156.8984
       220.0004        171.0004
  24332057.6994   -1215244.85049   -912038.86245  24332057.4874   24332060.3714
       209.0004        141.0004
 07  2 18  1 18 40.0000000  0  7G 1G 3G14G22G19G31G11
  21650232.5794   -1239185.98949   -653205.72047  21650232.1264   21650238.4254
       237.0004        195.0004
  23656091.2074    -447450.97949   -351156.49345  23656090.6094   23656097.7144
       218.0004        158.0004
  20362337.2354    -784800.53149   -603643.16847  20362336.9174   20362341.1414
       237.0004        212.0004
  21259566.6394    -717956.40049   -554673.29647  21259566.7284   21259569.5154
       241.0004        204.0004
  22674415.4574    -697980.32549   -539287.87346  22674414.8094   22674418.7714
       225.0004        183.0004
  23060003.9174   -1459669.36649  -1113557.79046  23060005.2914   23060009.5064
       220.0004        171.0004
  24329054.1454   -1231028.22249   -924337.59145  24329053.6874   24329057.7124
       207.0004        140.0004
 07  2 18  1 18 45.0000000  0  7G 1G 3G14G22G19G31G11
  21648324.1264   -1249215.07249   -661020.58447  21648323.9174   21648329.8304
       236.0004        196.0004
  23658461.5504    -434994.72149   -341450.32045  23658461.4884   23658468.3124
       216.0004        158.0004
  20362915.2444    -781763.01949   -601276.27047  20362914.7974   20362919.3224
       237.0004        212.0004
  21260475.9394    -713178.00049   -550949.86947  21260475.9394   21260478.8424
       241.0004        204.0004
  22675464.9484    -692465.09049   -534990.28746  22675463.7534   22675467.7974
       227.0004        183.0004
  23056857.2964   -1476205.22049  -1126442.86646  23056858.1294   23056862.6454
       222.0004        171.0004
  24326051.5154   -1246806.94149   -936632.70245  24326050.8754   24326055.8364
       209.0004        140.0004
 07  2 18  1 18 50.0000000  0  7G 1G 3G14G22G19G31G11
  21646417.6724   -1259233.54149   -668827.17847  21646417.2974   21646423.4174
       236.0004        196.0004
  23660832.7264    -422534.13649   -331740.78345  23660832.1574   23660839.3274
       217.0004        158.0004
  20363495.5064    -778713.79449   -598900.25147  20363495.1364   20363499.5874
       236.0004        212.0004
  21261386.1154    -708395.06649   -547222.90447  21261386.0794   21261388.8634
       240.0004        204.0004
  22676516.9704    -686936.72349   -530682.46646  22676515.7554   22676520.1954
       225.0004        183.0004
  23053711.4774   -1492736.79749  -1139324.60546  23053711.8374   23053717.4704
       223.0004        171.0004
  24323049.8644   -1262580.49549   -948923.76545  24323048.3944   24323054.0094
       208.0004        139.0004
 07  2 18  1 18 55.0000000  0  8G 1G18G 3G14G22G19G31G11
  21644513.1794   -1269241.65449   -676625.70247  21644513.0454   21644518.9784
       237.0004        196.0004
  23289925.5834    -497773.85059   -388091.17545  23289926.3794   23289930.9474
       220.0004        162.0004
  23663204.6734    -410069.52549   -322028.10145  23663204.1154   23663210.9274
       216.0004        158.0004
  20364077.9244    -775653.10649   -596515.29747  20364077.5124   20364082.0384
       237.0004        212.0004
  21262297.0694    -703607.87849   -543492.62947  21262296.8484   21262300.0494
       240.0004        204.0004
  22677571.4084    -681395.56149   -526364.68046  22677570.7544   22677575.1014
       225.0004        182.0004
  23050566.4604   -1509264.35149  -1152203.21246  23050567.2544   23050572.1694
       222.0004        172.0004
  24320049.1614   -1278349.19549   -961211.05345  24320048.1614   24320053.3804
       209.0004        138.0004
 07  2 18  1 19  0.0000000  0  8G 1G18G 3G14G22G19G31G11
  21642610.7344   -1279239.20749   -684416.00047  21642610.4734   21642616.4724
       236.0004        196.0004
  23291868.3664    -487564.80149   -380136.06645  23291869.2444   23291873.1514
       219.0004        162.0004
  23665577.4474    -397600.64749   -312312.09245  23665577.0024   23665583.6364
       217.0004        158.0004
  20364662.5714    -772580.83849   -594121.32247  20364662.1984   20364666.4544
       237.0004        212.0004
  21263208.8974    -698816.20549   -539758.85447  21263208.8774   21263211.6994
       240.0004        204.0004
  22678628.3244    -675841.37449   -522036.74246  22678627.1934   22678631.5214
       226.0004        182.0004
  23047422.2374   -1525787.67049  -1165078.51846  23047423.2414   23047427.4814
       222.0004        172.0004
  24317049.4424   -1294112.79249   -973494.36145  24317049.0074   24317053.5904
       208.0004        138.0004
 07  2 18  1 19  5.0000000  0  8G 1G18G 3G14G22G19G31G11
  21640710.2364   -1289226.30849   -692198.15047  21640709.8784   21640715.9504
       236.0004        196.0004
  23293811.8504    -477352.56749   -372178.46345  23293812.1694   23293817.6554
       220.0004        162.0004
  23667950.9994    -385127.66449   -302592.88745  23667950.6094   23667957.3364
       217.0004        158.0004
  20365249.3964    -769497.07549   -591718.38647  20365248.9824   20365253.4214
       237.0004        212.0004
  21264121.5584    -694020.17449   -536021.68947  21264121.7754   21264124.5124
       241.0004        204.0004
  22679687.7004    -670274.30349   -517698.76546  22679686.2704   22679690.7714
       225.0004        182.0004
  23044278.7834   -1542306.85649  -1177950.60446  23044279.4074   23044283.4964
       223.0004        172.0004
  24314050.6644   -1309871.41649   -985773.80945  24314049.0144   24314054.5604
       205.0004        138.0004
 07  2 18  1 19 10.0000000  0  8G 1G18G 3G14G22G19G31G11
  21638811.7974   -1299202.82249   -699972.04847  21638811.2934   21638817.3564
       236.0004        196.0004
  23295755.9224    -467136.98549   -364218.28945  23295756.5034   23295761.1334
       222.0004        162.0004
  23670325.3334    -372650.44849   -292870.38645  23670325.1154   23670332.1044
       217.0004        158.0004
  20365838.4494    -766401.65549   -589306.37047  20365838.0744   20365842.4494
       236.0004        212.0004
  21265035.0774    -689219.64049   -532281.01147  21265035.3324   21265037.9034
       241.0004        204.0004
  22680749.5404    -664694.20349   -513350.62646  22680748.7644   22680753.0614
       226.0004        182.0004
  23041136.1184   -1558821.74249  -1190819.33246  23041137.0134   23041141.7194
       223.0004        173.0004
  24311052.8534   -1325624.83049   -998049.18445  24311052.0794   24311055.9494
       207.0004        138.0004
 07  2 18  1 19 15.0000000  0  8G 1G18G 3G14G22G19G31G11
  21636915.2714   -1309169.13349   -707737.99847  21636914.8064   21636920.8214
       237.0004        196.0004
  23297700.5874    -456918.50349   -356255.84745  23297700.5384   23297705.9324
       222.0004        162.0004
  23672700.4234    -360169.33749   -283144.84645  23672700.5504   23672706.9404
       217.0004        158.0004
  20366429.6104    -763294.99249   -586885.58847  20366429.3844   20366433.4564
       237.0004        212.0004
  21265949.3904    -684414.98749   -528537.12447  21265949.4904   21265952.1034
       241.0004        204.0004
  22681813.8094    -659101.45749   -508992.64446  22681812.9384   22681817.3234
       226.0004        182.0004
  23037994.1974   -1575332.71449  -1203685.01046  23037995.0684   23037999.7504
       224.0004        173.0004
  24308055.9734   -1341373.46849  -1010320.84745  24308055.1444   24308059.8514
       206.0004        138.0004
 07  2 18  1 19 20.0000000  0  8G 1G18G 3G14G22G19G31G11
  21635020.7914   -1319124.77049   -715495.63747  21635020.5074   21635026.8104
       236.0004        196.0004
  23299645.9254    -446696.61349   -348290.73545  23299646.2514   23299650.0924
       220.0004        162.0004
  23675076.3244    -347683.93949   -273415.96345  23675076.1964   23675083.0734
       217.0004        158.0004
  20367023.0304    -760176.61849   -584455.68847  20367022.7944   20367026.9404
       237.0004        212.0004
  21266864.5664    -679605.73549   -524789.65847  21266864.7264   21266867.4554
       241.0004        204.0004
  22682880.5654    -653495.62549   -504624.46646  22682879.8694   22682883.7654
       226.0004        182.0004
  23034853.1714   -1591839.26249  -1216547.24946  23034854.0824   23034858.4364
       223.0004        174.0004
  24305060.0404   -1357116.82349  -1022588.38445  24305060.4274   24305064.6954
       207.0004        139.0004
 07  2 18  1 19 25.0000000  0  8G 1G18G 3G14G22G19G31G11
  21633128.3184   -1329069.78049   -723244.99247  21633128.2474   21633133.6854
       236.0004        196.0004
  23301591.8834    -436471.29649   -340322.94145  23301592.1134   23301596.3914
       220.0004        162.0004
  23677453.0504    -335194.30049   -263683.77645  23677452.8304   23677459.8524
       217.0004        158.0004
  20367618.6514    -757046.58249   -582016.69847  20367618.4814   20367622.6854
       237.0004        212.0004
  21267780.5824    -674791.96349   -521038.66447  21267780.6224   21267783.3154
       241.0004        204.0004
  22683949.7964    -647876.74649   -500246.11846  22683948.8694   22683952.8534
       226.0004        182.0004
  23031712.9434   -1608341.45549  -1229406.08646  23031713.5764   23031718.2294
       223.0004        174.0004
  24302065.1214   -1372854.94549  -1034851.84845  24302064.4214   24302069.0704
       205.0004        138.0004
 07  2 18  1 19 30.0000000  0  8G 1G18G 3G14G22G19G31G11
  21631237.8124   -1339004.49349   -730986.32047  21631237.8464   21631243.3774
       236.0004        196.0004
  23303538.3864    -426242.97049   -332352.80645  23303538.0664   23303543.8704
       218.0004        162.0004
  23679830.4984    -322700.78549   -253948.57445  23679830.3354   23679837.5274
       218.0004        158.0004
  20368216.4444    -753905.21749   -579568.87947  20368216.1174   20368220.3894
       237.0004        212.0004
  21268697.4444    -669974.00049   -517284.40547  21268697.6274   21268700.3024
       241.0004        204.0004
  22685021.4844    -642245.15749   -495857.85846  22685020.6574   22685024.5764
       225.0004        182.0004
  23028573.4594   -1624839.61649  -1242261.79046  23028573.7904   23028579.0844
       222.0004        174.0004
  24299071.1274   -1388588.14349  -1047111.46445  24299069.5844   24299074.2834
       204.0004        138.0004
 07  2 18  1 19 35.0000000  0  8G 1G18G 3G14G22G19G31G11
  21629349.2904   -1348928.75049   -738719.49647  21629349.0334   21629354.9564
       237.0004        197.0004
  23305485.4204    -416011.42549   -324380.19345  23305484.5594   23305489.6654
       219.0004        161.0004
  23682208.6884    -310203.25949   -244210.24245  23682208.4084   23682215.4154
       218.0004        158.0004
  20368816.4264    -750752.39749   -577112.13347  20368816.0024   20368820.2414
       237.0004        212.0004
  21269615.1084    -665151.67549   -513526.74347  21269615.0524   21269618.1094
       241.0004        204.0004
  22686095.5604    -636600.74949   -491459.62246  22686094.9634   22686098.8764
       226.0004        182.0004
  23025434.7844   -1641333.56949  -1255114.20946  23025435.6234   23025439.8874
       223.0004        174.0004
  24296078.1404   -1404316.25149  -1059367.13245  24296076.9964   24296083.9184
       206.0004        137.0004
 07  2 18  1 19 40.0000000  0  8G 1G18G 3G14G22G19G31G11
  21627462.7464   -1358842.54749   -746444.53247  21627462.4094   21627468.1774
       237.0004        197.0004
  23307433.0104    -405776.68549   -316405.06145  23307432.9104   23307437.4824
       219.0004        161.0004
  23684587.6824    -297701.73249   -234468.79645  23684587.8914   23684594.5774
       217.0004        158.0004
  20369418.5614    -747588.08049   -574646.43347  20369418.2554   20369422.5304
       237.0004        212.0004
  21270533.5964    -660324.97049   -509765.67947  21270533.6464   21270536.2674
       241.0004        204.0004
  22687172.0834    -630943.49649   -487051.37846  22687171.5184   22687175.3054
       226.0004        182.0004
  23022296.9104   -1657823.29749  -1267963.33846  23022297.6054   23022301.7694
       223.0004        174.0004
  24293086.0964   -1420039.28049  -1071618.83045  24293085.0374   24293090.3584
       205.0004        137.0004
 07  2 18  1 19 45.0000000  0  8G 1G18G 3G14G22G19G31G11
  21625578.2374   -1368745.79649   -754161.34947  21625577.6444   21625583.8014
       236.0004        197.0004
  23309381.2314    -395538.66549   -308427.37845  23309381.0214   23309384.7784
       218.0004        160.0004
  23686967.4134    -285196.16749   -224724.19945  23686967.4344   23686974.1074
       217.0004        159.0004
  20370022.9014    -744412.27549   -572171.77547  20370022.6674   20370026.8974
       237.0004        212.0004
  21271452.9344    -655493.83149   -506001.14947  21271452.8104   21271455.8354
       241.0004        204.0004
  22688251.0634    -625273.33749   -482633.06646  22688250.3514   22688254.2514
       226.0004        182.0004
  23019159.8634   -1674308.70449  -1280809.09946  23019160.0974   23019164.9514
       223.0004        174.0004
  24290095.0654   -1435757.13749  -1083866.50645  24290095.0274   24290098.8154
       205.0004        136.0004
 07  2 18  1 19 50.0000000  0  8G 1G18G 3G14G22G19G31G11
  21623695.6754   -1378638.58549   -761870.00347  21623695.2774   21623701.3644
       236.0004        197.0004
  23311330.0294    -385297.45549   -300447.22445  23311328.3534   23311333.5734
       216.0004        160.0004
  23689347.9124    -272686.63449   -214976.51445  23689347.9064   23689354.8134
       217.0004        158.0004
  20370629.4094    -741225.02749   -569688.20547  20370629.0274   20370633.3984
       237.0004        212.0004
  21272373.1024    -650658.32949   -502233.22647  21272373.1434   21272376.2084
       241.0004        204.0004
  22689332.5034    -619590.37249   -478204.77746  22689331.9424   22689336.3124
       226.0004        182.0004
  23016023.6294   -1690789.82049  -1293651.52446  23016024.0284   23016028.5894
       222.0004        174.0004
  24287104.9914   -1451469.84449  -1096110.16545  24287104.0284   24287109.6114
       205.0004        136.0004
 07  2 18  1 19 55.0000000  0  8G 1G18G 3G14G22G19G31G11
  21621815.1794   -1388520.77549   -769570.41147  21621814.7394   21621820.7824
       236.0004        197.0004
  23313279.4544    -375052.94449   -292464.49145  23313279.3134   23313282.8624
       218.0004        160.0004
  23691729.1614    -260172.96349   -205225.60345  23691728.8574   23691736.1624
       216.0004        158.0004
  20371238.1254    -738026.21349   -567195.62047  20371237.7864   20371242.0434
       237.0004        212.0004
  21273294.1144    -645818.29649   -498461.77047  21273294.1954   21273296.9664
       241.0004        204.0004
  22690416.3974    -613894.48249   -473766.42746  22690415.6324   22690419.7494
       226.0004        182.0004
  23012888.2204   -1707266.52249  -1306490.50246  23012889.0084   23012893.2114
       223.0004        174.0004
  24284115.9394   -1467177.33449  -1108349.75745  24284114.5574   24284120.5284
       206.0004        137.0004
 07  2 18  1 20  0.0000000  0  8G 1G18G 3G14G22G19G31G11
  21619936.6304   -1398392.55049   -777262.69647  21619936.2404   21619942.3604
       236.0004        197.0004
  23315229.4954    -364805.29949   -284479.30745  23315230.7824   23315234.2684
       220.0004        160.0004
  23694111.1604    -247655.43349   -195471.68645  23694110.4994   23694117.6264
       216.0004        158.0004
  20371849.0124    -734816.05649   -564694.19747  20371848.6734   20371852.9294
       237.0004        212.0004
  21274215.9614    -640973.95949   -494686.96047  21274216.0274   21274218.6574
       240.0004        204.0004
  22691502.7224    -608185.84049   -469318.13346  22691502.2904   22691505.9874
       226.0004        182.0004
  23009753.6304   -1723738.99449  -1319326.17946  23009753.5694   23009758.8604
       222.0004        174.0004
  24281127.8254   -1482879.79949  -1120585.43445  24281127.2454   24281132.8254
       205.0004        137.0004
 07  2 18  1 20  5.0000000  0  8G 1G18G 3G14G22G19G31G11
  21618060.1494   -1408253.47949   -784946.53347  21618059.5094   21618066.0794
       235.0004        197.0004
  23317180.2484    -354554.11249   -276491.37145  23317180.9024   23317184.8724
       221.0004        161.0004
  23696493.9924    -235133.53449   -185714.36545  23696493.3694   23696500.7324
       216.0004        158.0004
  20372462.1144    -731594.13749   -562183.61247  20372461.6584   20372465.9364
       237.0004        212.0004
  21275138.7194    -636124.87749   -490908.45447  21275138.6684   21275141.7894
       241.0004        204.0004
  22692591.5484    -602464.05449   -464859.59746  22692590.4774   22692595.1054
       226.0004        182.0004
  23006619.9004   -1740206.78949  -1332158.22346  23006620.0184   23006625.1514
       223.0004        174.0004
  24278140.7514   -1498576.76549  -1132816.82245  24278140.9834   24278145.0554
       208.0004        137.0004
 07  2 18  1 20 10.0000000  0  8G 1G18G 3G14G22G19G31G11
  21616185.6664   -1418103.98449   -792622.24447  21616185.1164   21616191.2234
       236.0004        197.0004
  23319131.6384    -344299.78449   -268500.99045  23319131.6514   23319135.5214
       220.0004        161.0004
  23698877.5604    -222607.74349   -175954.01145  23698877.2294   23698884.5494
       217.0004        158.0004
  20373077.3954    -728360.87549   -559664.18647  20373076.9524   20373081.1404
       237.0004        212.0004
  21276062.2884    -631271.43649   -487126.55247  21276062.2394   21276065.1134
       241.0004        204.0004
  22693682.8274    -596729.51749   -460391.12346  22693682.1714   22693686.7364
       226.0004        182.0004
  23003486.9934   -1756670.33249  -1344986.94246  23003486.8274   23003491.8984
       223.0004        174.0004
  24275154.6504   -1514268.61849  -1145044.23345  24275154.7204   24275159.3554
       207.0004        138.0004
 07  2 18  1 20 15.0000000  0  8G 1G18G 3G14G22G19G31G11
  21614313.1764   -1427943.90249   -800289.70647  21614312.6734   21614318.8834
       236.0004        197.0004
  23321083.6474    -334042.15349   -260508.02745  23321082.6404   23321087.0674
       218.0004        161.0004
  23701261.8994    -210077.90549   -166190.50345  23701261.9584   23701268.5994
       217.0004        158.0004
  20373694.8384    -725116.07849   -557135.77147  20373694.4054   20373698.6174
       237.0004        212.0004
  21276986.7244    -626413.48649   -483341.13847  21276986.5894   21276989.7724
       240.0004        204.0004
  22694776.5414    -590982.10049   -455912.61346  22694775.5144   22694779.8954
       225.0004        183.0004
  23000354.9214   -1773129.42349  -1357812.19746  23000355.6754   23000359.9034
       223.0004        174.0004
  24272169.5904   -1529955.18149  -1157267.51045  24272169.5674   24272173.7204
       205.0004        138.0004
 07  2 18  1 20 20.0000000  0  8G 1G18G 3G14G22G19G31G11
  21612442.6194   -1437773.59249   -807949.20047  21612442.0284   21612448.2614
       237.0004        197.0004
  23323036.2004    -323781.55649   -252512.75745  23323035.3094   23323041.0044
       221.0004        161.0004
  23703646.9284    -197544.41349   -156424.15045  23703646.8074   23703653.1754
       217.0004        158.0004
  20374314.4224    -721860.11549   -554598.65547  20374314.0464   20374318.2204
       237.0004        212.0004
  21277911.9574    -621551.42949   -479552.51847  21277911.8984   21277914.9134
       241.0004        204.0004
  22695872.6014    -585222.22449   -451424.40546  22695872.0354   22695876.3214
       226.0004        183.0004
  22997223.6404   -1789584.37949  -1370634.23646  22997224.3134   22997228.1214
       223.0004        174.0004
  24269185.4654   -1545636.80749  -1169486.95245  24269185.2234   24269190.4324
       206.0004        138.0004
 07  2 18  1 20 25.0000000  0  8G 1G18G 3G14G22G19G31G11
  21610574.1144   -1447592.62749   -815600.39147  21610573.6314   21610579.8034
       236.0004        197.0004
  23324989.4294    -313517.56049   -244514.82445  23324989.2664   23324994.3434
       217.0004        160.0004
  23706032.7474    -185006.93849   -146654.68945  23706032.2554   23706038.9574
       218.0004        158.0004
  20374936.2284    -718592.58749   -552052.52947  20374935.8154   20374940.0844
       237.0004        212.0004
  21278838.0444    -616684.80949   -475760.34847  21278838.0474   21278841.2534
       241.0004        204.0004
  22696971.1234    -579449.45149   -446926.14146  22696970.4144   22696974.5914
       226.0004        183.0004
  22994093.2234   -1806034.80549  -1383452.74146  22994094.1804   22994098.3364
       224.0004        175.0004
  24266202.3604   -1561313.10849  -1181702.23745  24266202.3784   24266206.8074
       208.0004        139.0004
 07  2 18  1 20 30.0000000  0  8G 1G18G 3G14G22G19G31G11
  21608707.6184   -1457401.06949   -823243.32447  21608706.9434   21608713.2154
       236.0004        197.0004
  23326943.2254    -303250.25449   -236514.33945  23326943.0434   23326947.8654
       217.0004        160.0004
  23708419.2964    -172465.50549   -136882.14745  23708419.2334   23708425.3944
       218.0004        158.0004
  20375560.1944    -715313.57649   -549497.45247  20375559.6244   20375564.2044
       237.0004        212.0004
  21279764.9884    -611813.68049   -471964.66547  21279765.1854   21279767.6894
       241.0004        204.0004
  22698072.0764    -573663.80249   -442417.84146  22698071.0424   22698075.6934
       226.0004        183.0004
  22990963.6634   -1822480.75049  -1396267.74946  22990964.4074   22990968.8264
       224.0004        175.0004
  24263220.2854   -1576984.09749  -1193913.39045  24263219.8624   24263224.4174
       208.0004        139.0004
 07  2 18  1 20 35.0000000  0  8G 1G18G 3G14G22G19G31G11
  21606843.1434   -1467198.96749   -830878.04747  21606842.5044   21606849.1814
       236.0004        197.0004
  23328897.6584    -292979.72949   -228511.33145  23328896.8814   23328901.5164
       218.0004        160.0004
  23710806.6134    -159920.20149   -127106.59145  23710806.0314   23710813.1594
       218.0004        158.0004
  20376186.3334    -712023.17249   -546933.50147  20376185.9804   20376190.2254
       237.0004        212.0004
  21280692.7804    -606938.14349   -468165.53947  21280692.7134   21280695.8494
       241.0004        204.0004
  22699175.4984    -567865.34849   -437899.56046  22699174.6984   22699178.9464
       226.0004        183.0004
  22987834.9654   -1838922.25449  -1409079.31246  22987835.5634   22987839.6304
       225.0004        175.0004
  24260239.2114   -1592649.84049  -1206120.45445  24260237.8874   24260243.4284
       208.0004        139.0004
 07  2 18  1 20 40.0000000  0  8G 1G18G 3G14G22G19G31G11
  21604980.5694   -1476986.73849   -838504.87647  21604980.0144   21604986.5514
       236.0004        197.0004
  23330852.6024    -282706.34549   -220506.09245  23330852.4274   23330856.5704
       219.0004        160.0004
  23713194.5814    -147371.41449   -117328.31845  23713194.2674   23713201.0784
       218.0004        158.0004
  20376814.5774    -708721.74449   -544360.95647  20376813.8954   20376818.3064
       236.0004        212.0004
  21281621.3474    -602058.57049   -464363.27347  21281621.4704   21281624.2924
       240.0004        204.0004
  22700281.2734    -562054.51849   -433371.64346  22700281.1124   22700284.3824
       226.0004        183.0004
  22984707.0354   -1855359.72449  -1421887.72446  22984708.2784   22984711.8434
       224.0004        175.0004
  24257259.0314   -1608310.70449  -1218323.70645  24257257.7104   24257262.5854
       210.0004        140.0004
 07  2 18  1 20 45.0000000  0  8G 1G18G 3G14G22G19G31G11
  21603120.0334   -1486763.86649   -846123.41247  21603119.5624   21603126.0044
       236.0004        197.0004
  23332808.1994    -272429.66849   -212498.28445  23332808.2434   23332812.7834
       221.0004        160.0004
  23715583.3254    -134818.61649   -107546.91945  23715582.9544   23715589.6814
       218.0004        158.0004
  20377445.0184    -705408.78849   -541779.43047  20377444.4494   20377448.9264
       237.0004        212.0004
  21282550.7564    -597174.46449   -460557.47247  21282550.7674   21282553.8674
       240.0004        204.0004
  22701389.5244    -556230.81849   -428833.69046  22701388.9054   22701392.6114
       227.0004        183.0004
  22981579.9634   -1871792.66049  -1434692.60246  22981580.9934   22981584.3974
       224.0004        175.0004
  24254279.9014   -1623966.20849  -1230522.78945  24254279.6924   24254283.7144
       210.0004        140.0004
 07  2 18  1 20 50.0000000  0  8G 1G18G 3G14G22G19G31G11
  21601261.4394   -1496530.70749   -853733.93347  21601261.2084   21601267.3044
       236.0004        197.0004
  23334764.3784    -262150.05649   -204488.19545  23334764.8684   23334768.5734
       219.0004        160.0004
  23717972.7644    -122262.14949    -97762.66145  23717973.2294   23717978.9374
       217.0004        158.0004
  20378077.5454    -702084.72149   -539189.24847  20378077.0414   20378081.3624
       237.0004        212.0004
  21283480.9524    -592286.21549   -456748.45047  21283481.0834   21283483.7624
       241.0004        204.0004
  22702500.1344    -550394.59249   -424285.98246  22702499.1574   22702503.5464
       225.0004        183.0004
  22978453.7204   -1888221.37049  -1447494.18846  22978454.6674   22978458.4884
       224.0004        175.0004
  24251301.6854   -1639616.67249  -1242717.93645  24251302.1234   24251306.1564
       211.0004        141.0004
 07  2 18  1 20 55.0000000  0  8G 1G18G 3G14G22G19G31G11
  21599404.8744   -1506286.97749   -861336.21647  21599404.5334   21599410.6844
       236.0004        197.0004
  23336721.1764    -251867.15449   -196475.55945  23336720.9844   23336726.4044
       220.0004        159.0004
  23720362.9454    -109701.75849    -87975.34545  23720362.6054   23720369.4044
       219.0004        158.0004
  20378712.2644    -698749.24049   -536590.16947  20378711.9414   20378716.1044
       237.0004        212.0004
  21284412.0344    -587393.47649   -452935.92747  21284411.9684   21284415.1544
       241.0004        204.0004
  22703613.1654    -544545.56549   -419728.30746  22703612.1064   22703616.4884
       226.0004        183.0004
  22975328.3094   -1904645.55049  -1460292.24746  22975328.8214   22975333.3974
       224.0004        175.0004
  24248324.5414   -1655261.79049  -1254908.93445  24248323.5354   24248329.4064
       211.0004        142.0004
 07  2 18  1 21  0.0000000  0  8G 1G18G 3G14G22G19G31G11
  21597550.3074   -1516032.78649   -868930.35147  21597550.0774   21597555.9794
       237.0004        197.0004
  23338678.5854    -241581.08049   -188460.43845  23338679.1394   23338683.9564
       220.0004        159.0004
  23722753.8584     -97137.54749    -78185.05245  23722753.5394   23722760.3184
       217.0004        158.0004
  20379349.1404    -695402.46449   -533982.29347  20379348.7004   20379353.0904
       237.0004        212.0004
  21285343.9204    -582496.36349   -449119.99447  21285344.0234   21285346.7544
       241.0004        204.0004
  22704728.6144    -538683.86849   -415160.75046  22704728.1444   22704732.0854
       226.0004        183.0004
  22972203.7604   -1921065.29849  -1473086.85046  22972203.3954   22972208.6254
       223.0004        175.0004
  24245348.3534   -1670901.70749  -1267095.87345  24245347.6454   24245353.6254
       210.0004        142.0004
 07  2 18  1 21  5.0000000  0  8G 1G18G 3G14G22G19G31G11
  21595697.7464   -1525768.11549   -876516.31747  21595697.3004   21595703.5414
       237.0004        197.0004
  23340636.6434    -231291.80649   -180442.81345  23340636.6334   23340641.4534
       220.0004        160.0004
  23725145.4894     -84569.64049    -68391.88145  23725145.0444   23725152.1444
       217.0004        158.0004
  20379988.1424    -692044.39649   -531365.61347  20379987.7384   20379992.0664
       237.0004        212.0004
  21286276.6604    -577594.87149   -445300.64447  21286276.6774   21286279.4194
       241.0004        204.0004
  22705846.4554    -532809.52649   -410583.34046  22705845.5904   22705849.7384
       226.0004        183.0004
  22969080.0134   -1937480.57749  -1485877.96346  22969080.0674   22969084.7034
       223.0004        175.0004
  24242373.1804   -1686536.36849  -1279278.72545  24242372.9544   24242378.1014
       212.0004        142.0004
 07  2 18  1 21 10.0000000  0  8G 1G18G 3G14G22G19G31G11
  21593847.1374   -1535493.15749   -884094.26747  21593846.9214   21593852.4954
       236.0004        197.0004
  23342595.2534    -220999.43549   -172422.79845  23342594.7284   23342598.9174
       218.0004        159.0004
  23727537.7754     -71998.17749    -58595.94245  23727537.1484   23727544.0804
       217.0004        158.0004
  20380629.2684    -688675.20449   -528740.26547  20380628.7844   20380633.1754
       237.0004        212.0004
  21287210.2014    -572689.16949   -441478.01647  21287210.2614   21287213.1854
       240.0004        204.0004
  22706966.6964    -526922.71849   -405996.21546  22706965.9454   22706970.0054
       225.0004        182.0004
  22965957.1004   -1953891.56449  -1498665.72946  22965957.2794   22965962.3594
       223.0004        175.0004
  24239398.9844   -1702165.92749  -1291457.59445  24239398.8934   24239403.4604
       213.0004        143.0004
 07  2 18  1 21 15.0000000  0  8G 1G18G 3G14G22G19G31G11
  21591998.5124   -1545207.76649   -891664.08647  21591998.2814   21592003.6554
       236.0004        197.0004
  23344554.4424    -210703.95449   -164400.35245  23344554.1714   23344558.4494
       219.0004        159.0004
  23729930.7174     -59423.11549    -48797.19245  23729930.4514   23729937.2034
       217.0004        157.0004
  20381272.5444    -685294.75549   -526106.14947  20381272.0194   20381276.4924
       237.0004        212.0004
  21288144.5414    -567779.15949   -437652.03547  21288144.6844   21288147.5574
       240.0004        204.0004
  22708089.3244    -521023.34549   -401399.30246  22708088.5174   22708092.8404
       225.0004        182.0004
  22962835.0454   -1970298.14249  -1511450.06846  22962835.2404   22962840.4974
       224.0004        176.0004
  24236425.7524   -1717790.29249  -1303632.42145  24236425.9414   24236430.6574
       213.0004        144.0004
 07  2 18  1 21 20.0000000  0  8G 1G18G 3G14G22G19G31G11
  21590151.8864   -1554911.92049   -899225.75947  21590151.7394   21590157.6624
       236.0004        197.0004
  23346514.1994    -200405.29749   -156375.41945  23346514.0654   23346519.0614
       218.0004        160.0004
  23732324.3744     -46844.36449    -38995.56445  23732324.0244   23732331.0234
       218.0004        157.0004
  20381917.9854    -681903.02349   -523463.23947  20381917.6224   20381921.9794
       237.0004        212.0004
  21289079.7044    -562864.79849   -433822.66247  21289079.7674   21289082.5634
       241.0004        204.0004
  22709214.3324    -515111.36549   -396792.56346  22709214.0584   22709217.3244
       226.0004        182.0004
  22959713.8344   -1986700.25149  -1524230.91546  22959714.1314   22959718.8014
       224.0004        176.0004
  24233453.5414   -1733409.39449  -1315803.14745  24233453.3494   24233457.9514
       211.0004        144.0004
 07  2 18  1 21 25.0000000  0  8G 1G18G 3G14G22G19G31G11
  21588307.2704   -1564605.48749   -906779.18647  21588307.1164   21588313.0914
       237.0004        197.0004
  23348474.6094    -190103.31449   -148347.90245  23348474.1084   23348479.4144
       218.0004        160.0004
  23734718.7774     -34261.67349    -29190.87445  23734718.3164   23734725.2594
       217.0004        157.0004
  20382565.5494    -678499.90849   -520811.46047  20382565.1144   20382569.5724
       237.0004        212.0004
  21290015.7304    -557945.92849   -429989.77347  21290015.6594   21290018.6764
       241.0004        204.0004
  22710341.7554    -509186.68149   -392175.92946  22710340.9784   22710345.3544
       226.0004        182.0004
  22956593.5034   -2003097.73249  -1537008.17746  22956594.1914   22956598.8864
       223.0004        176.0004
  24230482.3444   -1749023.11349  -1327969.66745  24230482.3464   24230486.1994
       212.0004        145.0004
 07  2 18  1 21 30.0000000  0  8G 1G18G 3G14G22G19G31G11
  21586464.6674   -1574288.45949   -914324.35647  21586464.0524   21586470.2164
       236.0004        197.0004
  23350435.6314    -179798.02449   -140317.79345  23350435.0204   23350439.5284
       219.0004        160.0004
  23737113.9454     -21675.12449    -19383.17045  23737113.5384   23737119.9544
       217.0004        157.0004
  20383215.3164    -675085.38849   -518150.79347  20383214.8844   20383219.5044
       237.0004        212.0004
  21290952.5994    -553022.62749   -426153.43447  21290952.6304   21290955.4994
       240.0004        204.0004
  22711471.6134    -503249.25249   -387549.36246  22711471.0164   22711474.9084
       225.0004        182.0004
  22953474.0264   -2019490.59149  -1549781.82046  22953474.5504   22953479.0794
       224.0004        176.0004
  24227512.1474   -1764631.38949  -1340131.94745  24227511.9724   24227516.7714
       212.0004        146.0004
 07  2 18  1 21 35.0000000  0  8G 1G18G 3G14G22G19G31G11
  21584624.0104   -1583961.09949   -921861.47247  21584623.5664   21584629.5664
       237.0004        197.0004
  23352397.2444    -169489.63949   -132285.27945  23352396.4424   23352401.5724
       219.0004        159.0004
  23739509.7394      -9085.08749     -9572.75845  23739509.2704   23739515.7914
       218.0004        157.0004
  20383867.1914    -671659.79049   -515481.49647  20383866.9034   20383871.2654
       237.0004        212.0004
  21291890.2884    -548095.10149   -422313.80747  21291890.5614   21291893.2034
       241.0004        204.0004
  22712603.8264    -497299.36549   -382913.08946  22712603.0924   22712607.3164
       225.0004        182.0004
  22950355.3914   -2035879.10949  -1562552.07946  22950355.1504   22950359.9644
       223.0004        176.0004
  24224542.9644   -1780234.50749  -1352290.21045  24224542.7684   24224547.2584
       214.0004        146.0004
 07  2 18  1 21 40.0000000  0  8G 1G18G 3G14G22G19G31G11
  21582785.3754   -1593623.27649   -929390.43547  21582785.1794   21582791.3034
       237.0004        197.0004
  23354359.4584    -159178.04549   -124250.26145  23354358.7344   23354363.7104
       219.0004        159.0004
  23741906.2264       3508.53449       240.45545  23741906.0204   23741912.7624
       217.0004        157.0004
  20384521.1874    -668222.98349   -512803.46247  20384520.8404   20384525.2814
       237.0004        212.0004
  21292828.8034    -543163.21749   -418470.77947  21292828.7614   21292831.6494
       241.0004        204.0004
  22713738.4554    -491336.92249   -378267.03146  22713737.6274   22713741.4544
       226.0004        182.0004
  22947237.6254   -2052263.08449  -1575318.79546  22947237.8484   22947242.6564
       222.0004        176.0004
  24221574.7794   -1795832.31749  -1364444.34445  24221574.7934   24221579.3634
       212.0004        147.0004
 07  2 18  1 21 45.0000000  0  8G 1G18G 3G14G22G19G31G11
  21580948.7224   -1603274.91249   -936911.18547  21580948.3204   21580954.2184
       237.0004        197.0004
  23356322.3104    -148863.20249   -116212.72545  23356321.8354   23356328.3424
       217.0004        158.0004
  23744303.4224      16105.89749     10056.58045  23744303.1014   23744309.6704
       216.0004        157.0004
  20385177.3434    -664774.89749   -510116.64247  20385177.0564   20385181.3354
       237.0004        212.0004
  21293768.1664    -538226.89749   -414624.29147  21293768.3714   21293771.1094
       241.0004        204.0004
  22714875.4624    -485361.86849   -373611.14346  22714874.8894   22714879.1064
       225.0004        182.0004
  22944120.7184   -2068642.45849  -1588081.93646  22944120.3964   22944125.5794
       222.0004        176.0004
  24218607.5824   -1811424.79249  -1376594.31245  24218606.7274   24218612.0594
       214.0004        147.0004
 07  2 18  1 21 50.0000000  0  8G 1G18G 3G14G22G19G31G11
  21579114.0614   -1612916.16249   -944423.84347  21579113.6504   21579119.6764
       237.0004        197.0004
  23358285.7374    -138545.29549   -108172.81245  23358285.3564   23358290.4444
       217.0004        158.0004
  23746701.2574      28706.72449     19875.40445  23746700.4814   23746706.9554
       217.0004        157.0004
  20385835.6224    -661315.67849   -507421.14647  20385835.4004   20385839.6214
       238.0004        212.0004
  21294708.3404    -533286.29949   -410774.47447  21294708.4904   21294711.3104
       240.0004        204.0004
  22716014.8904    -479374.34149   -368945.54446  22716014.1314   22716018.2514
       225.0004        182.0004
  22941004.6524   -2085017.38849  -1600841.60446  22941004.5934   22941009.4494
       222.0004        176.0004
  24215641.4344   -1827011.97849  -1388740.15945  24215641.2704   24215645.9154
       213.0004        147.0004
 07  2 18  1 21 55.0000000  0  8G 1G18G 3G14G22G19G31G11
  21577281.3914   -1622546.89449   -951928.30247  21577281.1394   21577287.0844
       236.0004        197.0004
  23360249.8044    -128224.17649   -100130.37345  23360249.3564   23360252.5174
       216.0004        157.0004
  23749099.8084      41311.20749     29697.07645  23749099.5114   23749106.0884
       218.0004        157.0004
  20386496.0194    -657845.21749   -504716.89047  20386495.8734   20386500.1794
       237.0004        212.0004
  21295649.3494    -528341.29749   -406921.22547  21295649.4494   21295652.3524
       241.0004        204.0004
  22717156.6564    -473374.23849   -364270.14246  22717155.8904   22717159.9834
       225.0004        182.0004
  22937889.4594   -2101387.71649  -1613597.70046  22937889.3604   22937894.8324
       222.0004        176.0004
  24212676.3134   -1842593.80049  -1400881.82945  24212676.0234   24212680.6294
       215.0004        148.0004
 07  2 18  1 22  0.0000000  0  8G 1G18G 3G14G22G19G31G11
  21575450.7314   -1632167.00349   -959424.48547  21575450.4564   21575456.2634
       236.0004        197.0004
  23362214.4834    -117899.74849    -92085.37845  23362214.4954   23362217.3994
       214.0004        157.0004
  23751499.0654      53919.34449     39521.59845  23751498.8404   23751505.3774
       216.0004        157.0004
  20387158.5944    -654363.37049   -502003.76047  20387158.3544   20387162.6094
       237.0004        212.0004
  21296591.1874    -523391.78149   -403064.45747  21296591.1874   21296594.0484
       241.0004        204.0004
  22718300.8654    -467361.43549   -359584.83346  22718299.8684   22718304.1574
       226.0004        182.0004
  22934775.1514   -2117753.32049  -1626350.10246  22934775.7454   22934780.1814
       223.0004        176.0004
  24209712.2584   -1858170.13149  -1413019.21645  24209712.4554   24209716.4154
       214.0004        148.0004
 07  2 18  1 22  5.0000000  0  8G 1G18G 3G14G22G19G31G11
  21573622.0804   -1641776.58149   -966912.46347  21573621.6334   21573627.9054
       237.0004        197.0004
  23364179.7734    -107572.11349    -84037.86045  23364179.3654   23364182.4004
       218.0004        156.0004
  23753898.9964      66531.20349     49349.02045  23753898.2284   23753905.7424
       217.0004        157.0004
  20387823.3194    -650870.26249   -499281.85447  20387822.9944   20387827.3934
       237.0004        212.0004
  21297533.8954    -518437.85349   -399204.25047  21297533.8844   21297536.7044
       241.0004        204.0004
  22719447.4534    -461336.06849   -354889.74046  22719446.1854   22719451.0394
       225.0004        182.0004
  22931661.7244   -2134114.29749  -1639098.90146  22931660.6024   22931667.0244
       223.0004        176.0004
  24206749.2254   -1873741.05749  -1425152.39745  24206749.1564   24206753.6644
       214.0004        149.0004
 07  2 18  1 22 10.0000000  0  8G 1G18G 3G14G22G19G31G11
  21571795.4274   -1651375.73549   -974392.31747  21571794.9974   21571801.0344
       237.0004        197.0004
  23366145.6814     -97241.35449    -75987.90545  23366146.1544   23366150.3274
       217.0004        156.0004
  23756299.6324      79146.62249     59179.21645  23756300.5854   23756306.0944
       217.0004        157.0004
  20388490.1374    -647366.04449   -496551.29447  20388489.7624   20388494.2214
       237.0004        212.0004
  21298477.4414    -513479.58149   -395340.65747  21298477.3614   21298480.2324
       242.0004        204.0004
  22720596.4154    -455298.23349   -350184.93646  22720595.3194   22720600.3434
       225.0004        182.0004
  22928549.1664   -2150470.75849  -1651844.18746  22928549.6554   22928554.2044
       225.0004        176.0004
  24203787.2214   -1889306.66549  -1437281.42945  24203787.2974   24203792.0304
       215.0004        149.0004
 07  2 18  1 22 15.0000000  0  8G 1G18G 3G14G22G19G31G11
  21569970.7394   -1660964.46449   -981864.05347  21569970.4604   21569976.3044
       236.0004        197.0004
  23368112.1434     -86907.46449    -67935.52745  23368110.6044   23368117.3304
       215.0004        156.0004
  23758700.9324      91765.47649     69012.09045  23758700.6944   23758707.3514
       218.0004        157.0004
  20389159.0754    -643850.69549   -493812.06147  20389158.7494   20389163.0574
       237.0004        212.0004
  21299421.8344    -508516.88749   -391473.62547  21299421.9774   21299424.6554
       241.0004        204.0004
  22721747.7274    -449247.94049   -345470.42546  22721747.0324   22721750.9224
       225.0004        182.0004
  22925437.5084   -2166822.62349  -1664585.90146  22925437.8404   22925442.8654
       225.0004        176.0004
  24200826.1934   -1904866.93949  -1449406.31345  24200826.0374   24200830.2644
       215.0004        149.0004
 07  2 18  1 22 20.0000000  0  8G 1G18G 3G14G22G19G31G11
  21568148.0584   -1670542.65749   -989327.57447  21568147.8424   21568153.5274
       236.0004        197.0004
  23370079.2394     -76570.32849    -59880.62045  23370079.1914   23370082.5194
       216.0004        156.0004
  23761102.8704     104387.87549     78847.71845  23761102.7814   23761109.9964
       216.0004        157.0004
  20389830.1714    -640324.13449   -491064.09147  20389829.8654   20389834.2034
       237.0004        212.0004
  21300367.0494    -503549.82849   -387603.19047  21300367.1034   21300369.7564
       240.0004        204.0004
  22722901.4454    -443185.08449   -340746.12446  22722901.0534   22722904.4654
       225.0004        182.0004
  22922326.7374   -2183169.77149  -1677323.91646  22922327.6734   22922331.5334
       224.0004        176.0004
  24197866.2304   -1920421.78349  -1461526.97545  24197866.5164   24197870.3214
       213.0004        149.0004
 07  2 18  1 22 25.0000000  0  8G 1G18G 3G14G22G19G31G11
  21566327.3774   -1680110.39749   -996782.94947  21566327.2324   21566332.8254
       236.0004        197.0004
  23372046.9024     -66230.06749    -51823.28845  23372046.2194   23372048.6334
       216.0004        155.0004
  23763505.4814     117013.80849     88686.10745  23763505.5274   23763512.1064
       218.0004        157.0004
  20390503.3844    -636786.46449   -488307.46247  20390503.2584   20390507.4834
       237.0004        212.0004
  21301313.0494    -498578.47749   -383729.40647  21301313.0984   21301316.2194
       241.0004        204.0004
  22724057.5174    -437109.77449   -336012.11746  22724056.6934   22724061.0734
       225.0004        182.0004
  22919216.8844   -2199512.30849  -1690058.35646  22919217.8064   22919221.7584
       226.0004        177.0004
  24194907.2454   -1935971.25549  -1473643.43945  24194907.6544   24194910.8434
       212.0004        149.0004
 07  2 18  1 22 30.0000000  0  8G 1G18G 3G14G22G19G31G11
  21564508.7494   -1689667.53149  -1004230.06147  21564508.6314   21564514.3034
       237.0004        197.0004
  23374015.1694     -55886.51849    -43763.36345  23374014.1474   23374019.4374
       215.0004        155.0004
  23765908.8014     129643.38249     98527.32945  23765908.3944   23765914.8304
       216.0004        157.0004
  20391178.7264    -633237.49749   -485542.03147  20391178.4814   20391182.8014
       238.0004        212.0004
  21302259.9454    -493602.61649   -379852.10947  21302259.8424   21302262.9504
       240.0004        204.0004
  22725216.0164    -431021.86149   -331268.28846  22725215.5414   22725219.3934
       225.0004        182.0004
  22916107.9604   -2215850.01849  -1702789.02946  22916108.5684   22916113.2434
       225.0004        177.0004
  24191949.3234   -1951515.20549  -1485755.59745  24191948.5824   24191953.5284
       212.0004        149.0004
 07  2 18  1 22 35.0000000  0  8G 1G18G 3G14G22G19G31G11
  21562692.1064   -1699213.95349  -1011668.82747  21562691.7694   21562697.6084
       236.0004        197.0004
  23375984.1464     -45539.54149    -35700.76645  23375981.8354   23375988.8704
       213.0004        155.0004
  23768312.8324     142276.68049    108371.46145  23768312.2504   23768319.0404
       217.0004        157.0004
  20391856.2334    -629677.13949   -482767.72447  20391855.8924   20391860.2684
       237.0004        212.0004
  21303207.6724    -488622.18649   -375971.25647  21303207.5464   21303210.2864
       241.0004        204.0004
  22726376.9184    -424921.27449   -326514.58646  22726376.2774   22726380.3284
       224.0004        182.0004
  22912999.9484   -2232182.79949  -1715515.86046  22913000.2604   22913005.0284
       225.0004        177.0004
  24188992.4954   -1967053.52049  -1497863.36845  24188991.3404   24188996.8494
       211.0004        149.0004
 07  2 18  1 22 40.0000000  0  8G 1G18G 3G14G22G19G31G11
  21560877.4074   -1708750.29149  -1019099.73847  21560877.0654   21560882.8654
       236.0004        197.0004
  23377953.6094     -35189.75749    -27636.01745  23377953.0604   23377959.3254
       214.0004        154.0004
  23770717.4584     154913.08349    118218.01045  23770717.3954   23770725.2394
       218.0004        157.0004
  20392535.8214    -626106.05249   -479985.05947  20392535.4614   20392539.9254
       237.0004        212.0004
  21304156.1764    -483637.79049   -372087.30547  21304156.0904   21304159.1304
       240.0004        204.0004
  22727540.1034    -418808.63349   -321751.49546  22727539.6224   22727543.5624
       226.0004        182.0004
  22909892.7574   -2248511.29649  -1728239.36046  22909893.1514   22909897.5564
       225.0004        177.0004
  24186036.5754   -1982586.81049  -1509967.22945  24186035.8064   24186041.1714
       212.0004        148.0004
 07  2 18  1 22 45.0000000  0  8G 1G18G 3G14G22G19G31G11
  21559064.7384   -1718275.84449  -1026522.24147  21559064.3404   21559070.4064
       237.0004        197.0004
  23379923.7244     -24836.52449    -19568.57045  23379923.6564   23379928.3894
       215.0004        155.0004
  23773122.7904     167553.30549    128067.52745  23773122.7804   23773130.2484
       217.0004        157.0004
  20393217.5514    -622523.53249   -477193.48447  20393217.2794   20393221.5054
       237.0004        212.0004
  21305105.5814    -478648.68149   -368199.68647  21305105.2934   21305108.2184
       241.0004        204.0004
  22728705.7524    -412683.26749   -316978.48046  22728705.3354   22728709.6704
       225.0004        182.0004
  22906786.5284   -2264834.76449  -1740958.93746  22906786.6724   22906791.0214
       224.0004        177.0004
  24183081.7694   -1998114.37649  -1522066.62045  24183082.0114   24183086.6014
       210.0004        148.0004
 07  2 18  1 22 50.0000000  0  8G 1G18G 3G14G22G19G31G11
  21557253.9024   -1727791.98749  -1033937.41147  21557253.7744   21557259.4994
       237.0004        198.0004
  23381894.2614     -14481.18749    -11499.46845  23381893.8024   23381898.2764
       217.0004        155.0004
  23775528.6164     180195.94449    137918.93145  23775528.3444   23775535.4734
       217.0004        157.0004
  20393901.2014    -618930.95649   -474394.07347  20393900.8364   20393905.0834
       237.0004        212.0004
  21306055.5984    -473656.28249   -364309.50547  21306055.3054   21306057.9974
       240.0004        204.0004
  22729873.5554    -406546.54649   -312196.62546  22729872.8764   22729877.2354
       225.0004        182.0004
  22903680.9624   -2281154.63649  -1753675.71046  22903681.0024   22903685.3974
       224.0004        177.0004
  24180127.7634   -2013637.59549  -1534162.61645  24180127.7964   24180132.0694
       210.0004        148.0004
 07  2 18  1 22 55.0000000  0  8G 1G18G 3G14G22G19G31G11
  21555445.2514   -1737296.49149  -1041343.51447  21555444.8864   21555451.0344
       237.0004        198.0004
  23383865.6284      -4121.49549     -3426.98745  23383864.2784   23383869.8454
       216.0004        155.0004
  23777935.3224     192843.20649    147773.93545  23777934.4494   23777941.5634
       217.0004        157.0004
  20394587.1804    -615326.12149   -471585.11147  20394586.7314   20394591.2854
       237.0004        212.0004
  21307006.6584    -468658.39849   -360415.04747  21307006.6364   21307009.2654
       241.0004        204.0004
  22731043.9184    -400396.22549   -307404.16346  22731043.0264   22731047.3254
       225.0004        182.0004
  22900576.5444   -2297468.62349  -1766387.89946  22900576.8014   22900581.0054
       225.0004        177.0004
  24177175.0124   -2029154.14349  -1546253.41845  24177173.5814   24177178.4554
       211.0004        147.0004
 07  2 18  1 23  0.0000000  0  8G 1G18G 3G14G22G19G31G11
  21553638.5774   -1746790.50249  -1048741.44047  21553638.4874   21553644.1524
       237.0004        198.0004
  23385837.5654       6241.36049      4647.96045  23385836.1924   23385842.0474
       216.0004        155.0004
  23780342.6694     205493.83549    157631.57045  23780342.3224   23780348.9754
       217.0004        157.0004
  20395275.2674    -611710.19449   -468767.50647  20395274.9654   20395279.3064
       237.0004        212.0004
  21307958.5484    -463656.15449   -356517.19447  21307958.5674   21307961.1754
       240.0004        204.0004
  22732216.6864    -394233.49949   -302602.04346  22732215.3354   22732220.1194
       225.0004        182.0004
  22897472.9794   -2313777.87449  -1779096.39546  22897473.7394   22897477.8504
       224.0004        177.0004
  24174223.2874   -2044665.22549  -1558339.96145  24174223.1444   24174226.3764
       212.0004        147.0004
 07  2 18  1 23  5.0000000  0  8G 1G18G 3G14G22G19G31G11
  21551833.8714   -1756274.32649  -1056131.42747  21551833.6464   21551839.5654
       237.0004        198.0004
  23387810.0894      16607.12649     12725.18345  23387811.0454   23387814.1784
       219.0004        156.0004
  23782750.5964     218147.47949    167491.55445  23782750.1054   23782758.0324
       216.0004        157.0004
  20395965.4104    -608083.49349   -465941.50247  20395965.0274   20395969.4424
       237.0004        212.0004
  21308911.2224    -458649.81649   -352616.14447  21308911.0684   21308914.1644
       240.0004        203.0004
  22733391.7084    -388058.67449   -297790.49046  22733390.9714   22733394.8604
       225.0004        182.0004
  22894370.2994   -2330082.68449  -1791801.42846  22894370.6474   22894375.7944
       225.0004        177.0004
  24171272.5684   -2060171.15549  -1570422.49645  24171272.0174   24171277.0354
       210.0004        146.0004
 07  2 18  1 23 10.0000000  0  8G 1G18G 3G14G22G19G31G11
  21550031.2104   -1765747.33749  -1063512.99247  21550030.5744   21550037.0954
       236.0004        198.0004
  23389783.3084      26976.41949     20805.15845  23389783.8904   23389787.3884
       218.0004        157.0004
  23785159.2184     230804.91749    177354.48545  23785158.6374   23785166.6504
       217.0004        157.0004
  20396657.7144    -604445.38249   -463106.60747  20396657.4884   20396661.7334
       237.0004        212.0004
  21309864.7914    -453638.73149   -348711.40347  21309864.6184   21309867.6954
       239.0004        203.0004
  22734569.1464    -381871.12549   -292969.02646  22734568.4364   22734572.5944
       225.0004        182.0004
  22891268.5854   -2346382.40049  -1804502.49746  22891269.0244   22891273.8664
       225.0004        177.0004
  24168322.9754   -2075671.25049  -1582500.48145  24168322.2694   24168327.7324
       210.0004        147.0004
 07  2 18  1 23 15.0000000  0  8G 1G18G 3G14G22G19G31G11
  21548230.5154   -1775209.90049  -1070886.41547  21548230.2014   21548236.1764
       237.0004        198.0004
  23391757.1524      37348.84749     28887.58045  23391757.7234   23391760.9984
       216.0004        157.0004
  23787568.4654     243465.68749    187220.01045  23787568.7894   23787575.4074
       216.0004        157.0004
  20397352.0894    -600796.23349   -460263.11847  20397351.7474   20397356.0844
       237.0004        212.0004
  21310819.1924    -448623.31549   -344803.28647  21310819.0374   21310821.8504
       240.0004        203.0004
  22735748.9384    -375671.22049   -288137.92846  22735748.2694   22735752.1514
       225.0004        182.0004
  22888167.7434   -2362677.34749  -1817199.85246  22888168.1514   22888172.4014
       224.0004        177.0004
  24165374.4044   -2091165.93749  -1594574.27045  24165373.9604   24165379.5404
       210.0004        147.0004
 07  2 18  1 23 20.0000000  0  8G 1G18G 3G14G22G19G31G11
  21546431.8174   -1784662.03649  -1078251.70947  21546431.8964   21546437.5454
       236.0004        198.0004
  23393731.6244      47724.43849     36972.44545  23393730.5074   23393734.9724
       216.0004        157.0004
  23789978.3654     256129.80149    197088.15945  23789977.9514   23789985.3484
       217.0004        157.0004
  20398048.6104    -597136.06249   -457411.03447  20398048.1954   20398052.6254
       237.0004        212.0004
  21311774.4004    -443603.58249   -340891.80647  21311774.0564   21311777.0294
       240.0004        203.0004
  22736931.0844    -369458.99449   -283297.24146  22736929.8114   22736933.9034
       225.0004        181.0004
  22885067.8474   -2378967.55049  -1829893.50746  22885067.8774   22885072.1854
       224.0004        177.0004
  24162426.9124   -2106655.17849  -1606643.80245  24162426.7904   24162432.0094
       211.0004        147.0004
 07  2 18  1 23 25.0000000  0  8G 1G18G 3G14G22G19G31G11
  21544635.1284   -1794103.68149  -1085608.83047  21544634.8804   21544641.0234
       237.0004        198.0004
  23395706.6814      58103.22949     45059.81345  23395705.8704   23395710.8624
       216.0004        157.0004
  23792388.9034     268797.31349    206958.94445  23792388.6724   23792396.2534
       217.0004        157.0004
  20398747.2094    -593464.84649   -454550.34247  20398746.8314   20398751.1884
       237.0004        212.0004
  21312730.4744    -438579.47249   -336976.91247  21312730.5144   21312733.2434
       240.0004        203.0004
  22738115.5694    -363234.40749   -278446.90546  22738114.8914   22738119.2344
       225.0004        181.0004
  22881968.8074   -2395252.98449  -1842583.45046  22881968.6534   22881973.0704
       223.0004        177.0004
  24159480.4524   -2122138.88949  -1618709.02945  24159480.1904   24159485.0724
       210.0004        147.0004
 07  2 18  1 23 30.0000000  0  8G 1G18G 3G14G22G19G31G11
  21542840.4514   -1803534.78549  -1092957.73647  21542839.9324   21542846.0974
       237.0004        198.0004
  23397682.3434      68485.24849     53149.70445  23397681.5324   23397687.1414
       218.0004        157.0004
  23794800.0854     281468.20449    216832.36245  23794800.0534   23794807.2854
       218.0004        157.0004
  20399447.9204    -589782.57849   -451681.04347  20399447.5664   20399451.9874
       237.0004        212.0004
  21313687.3644    -433550.91649   -333058.55447  21313687.2114   21313690.2974
       240.0004        203.0004
  22739302.4384    -356997.42249   -273586.92846  22739301.8894   22739305.4944
       225.0004        181.0004
  22878870.7044   -2411533.56749  -1855269.59546  22878870.4184   22878875.5164
       223.0004        177.0004
  24156535.0824   -2137617.04549  -1630769.91245  24156534.3694   24156540.2984
       207.0004        146.0004
 07  2 18  1 23 35.0000000  0  8G 1G18G 3G14G22G19G31G11
  21541047.7754   -1812955.44449  -1100298.50347  21541047.2334   21541053.5774
       237.0004        198.0004
  23399658.5994      78870.40549     61242.04245  23399657.8844   23399663.2494
       216.0004        157.0004
  23797211.8864     294142.28149    226708.26645  23797212.1534   23797218.3864
       217.0004        157.0004
  20400150.7264    -586089.29549   -448803.15547  20400150.1604   20400154.6984
       237.0004        212.0004
  21314645.0764    -428518.05249   -329136.84147  21314644.8384   21314647.8084
       240.0004        203.0004
  22740491.6334    -350748.13649   -268717.35446  22740490.7764   22740494.6814
       225.0004        181.0004
  22875773.5004   -2427809.38549  -1867952.04746  22875773.1124   22875778.2394
       223.0004        177.0004
  24153590.7444   -2153089.68049  -1642826.50445  24153589.2084   24153595.2684
       206.0004        145.0004
 07  2 18  1 23 40.0000000  0  8G 1G18G 3G14G22G19G31G11
  21539257.1264   -1822365.33349  -1107630.87847  21539256.5134   21539262.8354
       237.0004        198.0004
  23401635.4894      89259.04149     69337.06445  23401634.3264   23401640.0624
       216.0004        157.0004
  23799624.3864     306819.99949    236587.01245  23799623.9834   23799631.6984
       217.0004        157.0004
  20400855.6714    -582384.69649   -445916.45347  20400855.2424   20400859.6914
       237.0004        212.0004
  21315603.6904    -423480.54349   -325211.50947  21315603.8154   21315606.6784
       240.0004        203.0004
  22741683.2334    -344486.25049   -263837.97046  22741682.3914   22741687.0884
       225.0004        181.0004
  22872677.2924   -2444080.06949  -1880630.49546  22872677.6354   22872682.0874
       223.0004        177.0004
  24150647.5114   -2168556.48649  -1654878.54645  24150646.3254   24150651.7774
       208.0004        145.0004
 07  2 18  1 23 45.0000000  0  8G 1G18G 3G14G22G19G31G11
  21537468.3794   -1831765.11549  -1114955.38047  21537468.0714   21537474.1064
       237.0004        198.0004
  23403612.9064      99650.49349     77434.28845  23403613.1364   23403617.1624
       216.0004        156.0004
  23802037.4314     319500.62349    246468.00745  23802036.7434   23802044.4124
       217.0004        157.0004
  20401562.6504    -578669.45749   -443021.46047  20401562.1524   20401566.7564
       237.0004        212.0004
  21316563.0454    -418439.02749   -321283.05347  21316563.0304   21316565.8024
       240.0004        203.0004
  22742877.1064    -338212.40849   -258949.25046  22742876.4944   22742880.2964
       224.0004        181.0004
  22869581.9024   -2460346.26549  -1893305.43446  22869581.5284   22869586.5964
       224.0004        177.0004
  24147705.2494   -2184018.16249  -1666926.59545  24147703.8624   24147709.0404
       208.0004        144.0004
 07  2 18  1 23 50.0000000  0  8G 1G18G 3G14G22G19G31G11
  21535681.7264   -1841154.07449  -1122271.44747  21535681.5484   21535687.5544
       237.0004        198.0004
  23405590.9874     110045.45249     85534.26045  23405590.1774   23405594.0624
       217.0004        156.0004
  23804451.1594     332184.87949    256351.82945  23804451.2114   23804457.7634
       217.0004        157.0004
  20402271.8094    -574942.85249   -440117.61147  20402271.3714   20402275.8994
       237.0004        212.0004
  21317523.3074    -413392.81449   -317350.93747  21317523.3264   21317526.1834
       240.0004        203.0004
  22744073.3934    -331925.93149   -254050.70346  22744072.3964   22744076.5764
       223.0004        181.0004
  22866487.5204   -2476607.24649  -1905976.32046  22866486.9804   22866492.1994
       222.0004        177.0004
  24144764.1004   -2199473.95949  -1678970.05745  24144762.7494   24144767.4704
       203.0004        144.0004
 07  2 18  1 23 55.0000000  0  8G 1G18G 3G14G22G19G31G11
  21533897.0454   -1850532.49649  -1129579.30447  21533896.6744   21533902.5854
       237.0004        198.0004
  23407569.6954     120443.65349     93636.77045  23407568.4184   23407573.9414
       215.0004        156.0004
  23806865.5384     344872.52149    266238.30145  23806865.5004   23806872.6704
       216.0004        157.0004
  20402983.0574    -571205.16949   -437205.13247  20402982.6594   20402987.1664
       238.0004        212.0004
  21318484.4074    -408342.15249   -313415.35347  21318484.4604   21318487.1414
       240.0004        203.0004
  22745272.0274    -325627.10949   -249142.52946  22745271.0864   22745275.6384
       223.0004        181.0004
  22863394.0894   -2492863.33449  -1918643.38146  22863394.5614   22863398.6354
       224.0004        177.0004
  24141823.9994   -2214924.14549  -1691009.13545  24141822.2344   24141829.0314
       208.0004        143.0004
 07  2 18  1 24  0.0000000  0  8G 1G18G 3G14G22G19G31G11
  21532114.3994   -1859900.44949  -1136879.00647  21532114.3174   21532119.8484
       237.0004        198.0004
  23409549.0144     130845.02349    101741.73645  23409547.4974   23409554.4584
       213.0004        155.0004
  23809280.5264     357563.33149    276127.24345  23809280.4784   23809287.5864
       218.0004        157.0004
  20403696.3984    -567456.57149   -434284.14247  20403695.9554   20403700.4554
       237.0004        212.0004
  21319446.3504    -403287.15149   -309476.38947  21319446.4344   21319449.1964
       241.0004        203.0004
  22746472.9874    -319316.03249   -244224.81246  22746472.1154   22746476.7284
       224.0004        181.0004
  22860301.5764   -2509114.50749  -1931306.63046  22860301.8424   22860306.4894
       224.0004        177.0004
  24138884.9774   -2230368.71849  -1703043.85345  24138883.2494   24138890.3254
       206.0004        143.0004
 07  2 18  1 24  5.0000000  0  8G 1G18G 3G14G22G19G31G11
  21530333.7144   -1869257.89949  -1144170.51547  21530333.4304   21530339.4054
       237.0004        198.0004
  23411528.9464     141249.61649    109849.20045  23411527.8074   23411533.7654
       215.0004        155.0004
  23811696.1404     370257.35749    286018.68945  23811696.0564   23811702.9364
       217.0004        157.0004
  20404411.8084    -563696.98849   -431354.59747  20404411.3504   20404415.7964
       237.0004        212.0004
  21320409.1214    -398227.76949   -305534.01047  21320409.2184   21320411.8594
       240.0004        203.0004
  22747676.2714    -312992.66949   -239297.51346  22747675.4524   22747679.5784
       225.0004        181.0004
  22857210.0074   -2525360.75749  -1943966.03646  22857210.4724   22857214.7164
       225.0004        177.0004
  24135946.9964   -2245807.73249  -1715074.23845  24135946.1824   24135951.4474
       208.0004        143.0004
 07  2 18  1 24 10.0000000  0  8G 1G18G 3G14G22G19G31G11
  21528555.0784   -1878604.76449  -1151453.78447  21528554.8824   21528561.0554
       237.0004        198.0004
  23413509.5084     151657.48349    117959.21145  23413510.3344   23413513.7354
       218.0004        154.0004
  23814112.3624     382954.73649    295912.74645  23814112.1734   23814118.4574
       217.0004        157.0004
  20405129.3534    -559926.30249   -428416.40047  20405128.9634   20405133.3254
       237.0004        212.0004
  21321372.7294    -393163.91449   -301588.14747  21321372.8414   21321375.5484
       241.0004        203.0004
  22748881.8844    -306656.96949   -234360.60446  22748881.0074   22748885.2304
       225.0004        181.0004
  22854119.3994   -2541601.99549  -1956621.53646  22854119.9424   22854124.1324
       224.0004        177.0004
  24133010.1344   -2261241.02749  -1727100.17145  24133009.8654   24133014.8274
       208.0004        143.0004
 07  2 18  1 24 15.0000000  0  8G 1G18G 3G14G22G19G31G11
  21526778.4324   -1887940.98549  -1158728.75547  21526778.2224   21526784.1024
       236.0004        198.0004
  23415490.6874     162068.67349    126071.85145  23415491.3934   23415493.7514
       215.0004        154.0004
  23816529.2394     395655.45549    305809.41445  23816529.5504   23816535.5594
       216.0004        157.0004
  20405848.9894    -556144.50349   -425469.54247  20405848.8554   20405852.9914
       237.0004        212.0004
  21322337.2284    -388095.53149   -297638.75747  21322337.3634   21322340.0464
       241.0004        203.0004
  22750089.9004    -300308.86049   -229414.02746  22750089.2314   22750092.8634
       223.0004        181.0004
  22851029.7524   -2557838.13749  -1969273.06046  22851030.1614   22851034.2094
       225.0004        177.0004
  24130074.3334   -2276668.57249  -1739121.62845  24130073.9674   24130078.7944
       207.0004        143.0004
 07  2 18  1 24 20.0000000  0  8G 1G18G 3G14G22G19G31G11
  21525003.7804   -1897266.90849  -1165995.70347  21525003.3004   21525009.3764
       237.0004        198.0004
  23417472.4544     172482.82349    134186.78845  23417471.1924   23417475.9994
       215.0004        154.0004
  23818946.7054     408359.19949    315708.43445  23818947.0764   23818953.8324
       217.0004        157.0004
  20406570.7004    -552351.95249   -422514.30447  20406570.3654   20406574.7914
       237.0004        212.0004
  21323302.5044    -383022.97449   -293686.11847  21323302.6354   21323305.2164
       240.0004        203.0004
  22751300.2104    -293948.70049   -224458.05946  22751299.4034   22751303.4824
       225.0004        181.0004
  22847941.0244   -2574069.56149  -1981920.91446  22847941.3694   22847945.0224
       225.0004        177.0004
  24127139.6184   -2292090.73049  -1751138.88945  24127138.6394   24127143.5204
       207.0004        143.0004
 07  2 18  1 24 25.0000000  0  8G 1G18G 3G14G22G19G31G11
  21523231.1694   -1906582.03449  -1173254.24047  21523230.8074   21523236.7344
       237.0004        198.0004
  23419454.8684     182900.45649    142304.41145  23419452.8204   23419458.3164
       213.0004        154.0004
  23821364.8174     421066.37149    325610.11945  23821364.4234   23821371.4294
       216.0004        157.0004
  20407294.5504    -548548.12449   -419550.28247  20407294.3044   20407298.5174
       237.0004        212.0004
  21324268.7034    -377945.73749   -289729.82847  21324268.7464   21324271.6314
       240.0004        203.0004
  22752512.8964    -287576.05749   -219492.36146  22752512.1244   22752515.9494
       225.0004        181.0004
  22844853.2874   -2590295.71749  -1994564.66446  22844853.4474   22844857.9424
       225.0004        177.0004
  24124206.0184   -2307506.91049  -1763151.48645  24124206.0104   24124210.4914
       207.0004        143.0004
 07  2 18  1 24 30.0000000  0  8G 1G18G 3G14G22G19G31G11
  21521460.5234   -1915886.79849  -1180504.69847  21521460.3534   21521466.3744
       237.0004        198.0004
  23421437.8184     193321.12549    150424.40345  23421436.8474   23421442.5104
       214.0004        154.0004
  23823783.5214     433776.55949    335514.15245  23823783.8984   23823790.1924
       215.0004        157.0004
  20408020.4564    -544733.46649   -416577.82047  20408020.2224   20408024.5064
       238.0004        212.0004
  21325235.6734    -372864.26449   -285770.23547  21325235.6374   21325238.4744
       240.0004        203.0004
  22753727.8624    -281191.33449   -214517.25946  22753726.6734   22753730.8334
       225.0004        180.0004
  22841766.4874   -2606517.04849  -2007204.65246  22841766.6644   22841771.2454
       225.0004        177.0004
  24121273.4494   -2322917.61149  -1775159.82045  24121273.0204   24121278.2344
       208.0004        143.0004
 07  2 18  1 24 35.0000000  0  8G 1G18G 3G14G22G19G31G11
  21519691.9194   -1925180.80349  -1187746.77547  21519691.3084   21519697.3414
       237.0004        198.0004
  23423421.4104     203745.25149    158547.09945  23423421.4734   23423425.5724
       215.0004        154.0004
  23826202.8264     446490.05249    345420.76045  23826202.6534   23826209.7104
       216.0004        157.0004
  20408748.4834    -540907.59249   -413596.62247  20408748.2084   20408752.6664
       238.0004        212.0004
  21326203.5304    -367778.14349   -281807.02747  21326203.3974   21326206.3834
       240.0004        203.0004
  22754945.1984    -274794.11749   -209532.41346  22754944.1604   22754948.3784
       223.0004        180.0004
  22838680.6804   -2622733.13849  -2019840.56346  22838681.1704   22838685.9034
       225.0004        177.0004
  24118342.0174   -2338322.39149  -1787163.53645  24118341.7394   24118346.7884
       210.0004        143.0004
 07  2 18  1 24 40.0000000  0  8G 1G18G 3G14G22G19G31G11
  21517925.2944   -1934464.51149  -1194980.83047  21517924.9914   21517930.8864
       238.0004        198.0004
  23425405.6164     214172.36949    166672.13945  23425406.1594   23425410.0214
       215.0004        154.0004
  23828622.6624     459206.46749    355329.65745  23828622.4584   23828629.1664
       216.0004        157.0004
  20409478.5904    -537070.99649   -410607.06647  20409478.2024   20409482.6984
       237.0004        212.0004
  21327172.1864    -362687.83649   -277840.55247  21327172.1764   21327174.8484
       240.0004        203.0004
  22756164.8004    -268384.90649   -204538.22346  22756163.6264   22756167.8034
       223.0004        180.0004
  22835595.7634   -2638944.43549  -2032472.73546  22835595.9164   22835600.5344
       224.0004        177.0004
  24115411.6514   -2353721.73449  -1799163.01845  24115411.6284   24115415.8004
       209.0004        143.0004
 07  2 18  1 24 45.0000000  0  8G 1G18G 3G14G22G19G31G11
  21516160.6834   -1943737.57449  -1202206.59047  21516160.2924   21516166.3464
       238.0004        199.0004
  23427390.4654     224602.83949    174799.78645  23427389.8264   23427395.0374
       215.0004        154.0004
  23831043.1534     471926.13349    365241.08945  23831043.1024   23831049.3924
       215.0004        157.0004
  20410210.7594    -533223.34249   -407608.88947  20410210.4154   20410214.7864
       237.0004        212.0004
  21328141.6914    -357593.00449   -273870.54647  21328141.5854   21328144.3204
       239.0004        203.0004
  22757386.7734    -261963.32349   -199534.39346  22757385.6704   22757389.9484
       223.0004        180.0004
  22832511.8474   -2655150.55749  -2045100.87846  22832511.5914   22832515.9224
       224.0004        178.0004
  24112482.3904   -2369115.24249  -1811157.96445  24112482.1764   24112486.9514
       209.0004        143.0004
 07  2 18  1 24 50.0000000  0  8G 1G18G 3G14G22G19G31G11
  21514398.0974   -1953000.05949  -1209424.10547  21514397.7224   21514403.9774
       237.0004        199.0004
  23429375.9244     235036.63949    182929.99445  23429374.5424   23429381.5904
       215.0004        154.0004
  23833464.2444     484649.03049    375155.02645  23833463.4474   23833471.0904
       215.0004        157.0004
  20410945.0494    -529364.73749   -404602.18247  20410944.9374   20410949.2094
       238.0004        212.0004
  21329112.0694    -352493.69949   -269897.06347  21329111.9234   21329114.6194
       240.0004        203.0004
  22758611.0554    -255529.47849   -194521.00446  22758610.3224   22758614.7704
       223.0004        180.0004
  22829428.8754   -2671351.58149  -2057725.03746  22829429.3954   22829433.3274
       225.0004        178.0004
  24109554.2124   -2384502.98549  -1823148.40445  24109553.3544   24109559.1384
       207.0004        143.0004
 07  2 18  1 24 55.0000000  0  8G 1G18G 3G14G22G19G31G11
  21512637.5174   -1962252.05049  -1216633.44247  21512637.0714   21512643.4364
       237.0004        199.0004
  23431362.0154     245473.58349    191062.67945  23431362.6754   23431367.0814
       215.0004        154.0004
  23835885.9514     497375.08649    385071.42745  23835885.7404   23835893.0124
       216.0004        157.0004
  20411681.3954    -525495.22349   -401586.97647  20411681.1374   20411685.3834
       238.0004        212.0004
  21330083.2524    -347390.01249   -265920.16247  21330082.9814   21330086.2814
       239.0004        203.0004
  22759837.6714    -249083.48449   -189498.15546  22759836.6234   22759841.0904
       223.0004        180.0004
  22826346.8654   -2687547.56749  -2070345.28046  22826346.9894   22826351.7654
       223.0004        178.0004
  24106627.1394   -2399885.06049  -1835134.43545  24106626.3004   24106631.6484
       209.0004        143.0004
 07  2 18  1 25  0.0000000  0  8G 1G18G 3G14G22G19G31G11
  21510878.9364   -1971493.42749  -1223834.51147  21510878.4894   21510884.7204
       238.0004        199.0004
  23433348.7644     255913.85849    199197.96845  23433347.7214   23433353.3864
       215.0004        154.0004
  23838308.2774     510104.40349    394990.37145  23838308.0634   23838315.2034
       215.0004        157.0004
  20412419.8264    -521614.71249   -398563.19447  20412419.5864   20412423.8354
       237.0004        212.0004
  21331055.2674    -342281.83749   -261939.76347  21331055.0284   21331057.8834
       240.0004        203.0004
  22761066.6114    -242625.18649   -184465.72046  22761066.2524   22761070.0054
       222.0004        179.0004
  22823265.8214   -2703738.40949  -2082961.50946  22823265.9324   22823270.8744
       224.0004        178.0004
  24103701.1094   -2415261.35749  -1847115.95645  24103700.9554   24103707.5824
       205.0004        143.0004
 07  2 18  1 25  5.0000000  0  8G 1G18G 3G14G22G19G31G11
  21509122.3594   -1980724.28449  -1231027.37847  21509121.9754   21509128.2504
       238.0004        199.0004
  23435336.0824     266357.35749    207335.75245  23435335.5854   23435339.2054
       214.0004        154.0004
  23840731.1934     522836.79949    404911.71945  23840731.3454   23840737.7574
       216.0004        157.0004
  20413160.3364    -517723.30949   -395530.93147  20413160.1934   20413164.5054
       238.0004        212.0004
  21332028.1644    -337169.24549   -257955.92947  21332028.1544   21332030.9934
       240.0004        203.0004
  22762297.8684    -236154.76849   -179423.84446  22762297.2894   22762301.4844
       223.0004        179.0004
  22820185.7654   -2719924.18649  -2095573.79346  22820185.8044   22820189.7844
       223.0004        177.0004
  24100776.1814   -2430631.91049  -1859092.98845  24100776.5104   24100781.4264
       208.0004        142.0004
 07  2 18  1 25 10.0000000  0  8G 1G18G 3G14G22G19G31G11
  21507367.8024   -1989944.41249  -1238211.89047  21507367.3494   21507373.5464
       237.0004        199.0004
  23437324.0714     276804.22049    215476.15745  23437323.4794   23437327.1804
       216.0004        154.0004
  23843154.7304     535572.45849    414835.60045  23843154.8074   23843161.0534
       215.0004        157.0004
  20413902.9444    -513820.80349   -392490.01747  20413902.5394   20413906.9774
       238.0004        212.0004
  21333001.9434    -332052.04349   -253968.49947  21333001.9104   21333004.8254
       240.0004        203.0004
  22763531.5064    -229671.96649   -174372.30446  22763530.6964   22763534.9114
       223.0004        179.0004
  22817106.7204   -2736104.67649  -2108181.95546  22817106.9364   22817111.4514
       225.0004        178.0004
  24097852.3524   -2445996.50849  -1871065.39045  24097852.0644   24097856.4924
       206.0004        142.0004
 07  2 18  1 25 15.0000000  0  8G 1G18G 3G14G22G19G31G11
  21505615.2234   -1999154.30449  -1245388.42447  21505614.6734   21505621.1044
       237.0004        199.0004
  23439312.5904     287254.00049    223618.85745  23439312.8114   23439316.4984
       218.0004        154.0004
  23845578.7714     548310.89149    424761.64445  23845578.6294   23845586.1764
       215.0004        157.0004
  20414647.5864    -509907.71749   -389440.85547  20414647.1044   20414651.6594
       237.0004        212.0004
  21333976.5084    -326930.73249   -249977.86247  21333976.3554   21333979.1564
       240.0004        203.0004
  22764767.3904    -223177.29449   -169311.52546  22764766.6504   22764770.7924
       223.0004        179.0004
  22814028.5614   -2752280.34249  -2120786.36546  22814028.7874   22814033.2784
       224.0004        178.0004
  24094929.5904   -2461355.65549  -1883033.54345  24094928.8784   24094933.7464
       205.0004        142.0004
 07  2 18  1 25 20.0000000  0  8G 1G18G 3G14G22G19G31G11
  21503864.6754   -2008353.48449  -1252556.61347  21503864.2754   21503870.2124
       238.0004        199.0004
  23441301.8024     297707.23049    231764.23645  23441301.6654   23441305.1484
       216.0004        154.0004
  23848003.4204     561052.51949    434690.18845  23848003.6814   23848010.3204
       216.0004        157.0004
  20415394.3404    -505983.57049   -386383.07847  20415393.9474   20415398.3794
       238.0004        212.0004
  21334951.9304    -321804.82849   -245983.65347  21334951.8804   21334954.7304
       240.0004        203.0004
  22766005.6254    -216670.28749   -164241.13346  22766004.3434   22766008.9764
       223.0004        179.0004
  22810951.4484   -2768450.71849  -2133386.64646  22810951.6574   22810957.1094
       223.0004        178.0004
  24092007.9234   -2476708.82449  -1894997.03945  24092007.7304   24092013.2154
       207.0004        141.0004
 07  2 18  1 25 25.0000000  0  8G 1G18G 3G14G22G19G31G11
  21502116.1334   -2017542.13249  -1259716.59747  21502115.9754   21502121.8244
       237.0004        199.0004
  23443291.6084     308163.65549    239912.10145  23443291.0274   23443296.7454
       216.0004        154.0004
  23850428.6664     573797.22949    444621.11945  23850428.7624   23850435.6264
       216.0004        157.0004
  20416143.1444    -502048.53449   -383316.81747  20416142.8884   20416147.1574
       237.0004        212.0004
  21335928.1944    -316674.48749   -241985.98347  21335928.2444   21335930.7974
       240.0004        203.0004
  22767246.1434    -210151.15149   -159161.29346  22767245.3644   22767249.7964
       222.0004        179.0004
  22807875.2764   -2784615.94849  -2145982.91446  22807875.3064   22807880.3214
       225.0004        178.0004
  24089087.3694   -2492056.20849  -1906956.03145  24089087.2724   24089092.6364
       206.0004        140.0004
 07  2 18  1 25 30.0000000  0  8G 1G18G 3G14G22G19G31G11
  21500369.6174   -2026720.17649  -1266868.31447  21500369.3544   21500375.2324
       238.0004        199.0004
  23445282.0444     318623.35849    248062.51945  23445281.1704   23445287.4754
       214.0004        155.0004
  23852854.5104     586545.00849    454554.45545  23852854.2634   23852861.9004
       216.0004        157.0004
  20416894.0314    -498102.56349   -380242.03447  20416893.7794   20416898.0864
       237.0004        212.0004
  21336905.3224    -311539.67049   -237984.82647  21336905.4184   21336908.2524
       240.0004        203.0004
  22768489.0254    -203619.81749   -154071.94146  22768488.2144   22768492.4204
       223.0004        179.0004
  22804800.1254   -2800775.92049  -2158575.09546  22804799.7964   22804805.2394
       224.0004        178.0004
  24086167.9484   -2507397.73249  -1918910.45645  24086167.0844   24086172.4104
       206.0004        140.0004
 07  2 18  1 25 35.0000000  0  8G 1G18G 3G14G22G19G31G11
  21498625.0684   -2035887.84249  -1274011.94747  21498624.9524   21498630.9674
       238.0004        199.0004
  23447273.0214     329086.14049    256215.32845  23447272.0614   23447277.4794
       215.0004        155.0004
  23855280.8794     599295.54449    464489.93745  23855281.1724   23855286.7584
       215.0004        157.0004
  20417646.9604    -494145.87549   -377158.89747  20417646.5274   20417651.0584
       238.0004        212.0004
  21337883.2584    -306400.59249   -233980.34947  21337883.1914   21337886.1594
       240.0004        203.0004
  22769734.1294    -197076.54549   -148973.28446  22769733.2224   22769737.6724
       223.0004        179.0004
  22801725.9164   -2816930.85049  -2171163.34746  22801726.1434   22801730.8814
       225.0004        178.0004
  24083249.5914   -2522733.58949  -1930860.46745  24083249.6234   24083253.2574
       208.0004        140.0004
 07  2 18  1 25 40.0000000  0  8G 1G18G 3G14G22G19G31G11
  21496882.6154   -2045044.46949  -1281146.97847  21496882.2284   21496888.3804
       238.0004        199.0004
  23449264.7344     339552.64849    264371.03945  23449264.1524   23449268.8514
       215.0004        155.0004
  23857707.9084     612049.66749    474428.21145  23857708.0824   23857714.3504
       216.0004        157.0004
  20418402.0644    -490177.80949   -374066.89847  20418401.6454   20418406.1594
       237.0004        212.0004
  21338862.1454    -301256.58249   -229972.03047  21338862.1334   21338865.3404
       240.0004        203.0004
  22770981.6974    -190520.65549   -143864.79746  22770981.0184   22770985.0744
       223.0004        179.0004
  22798652.8054   -2833080.11549  -2183747.17746  22798653.0914   22798658.1274
       225.0004        179.0004
  24080332.4864   -2538063.13149  -1942805.54945  24080333.3924   24080337.5234
       207.0004        139.0004
 07  2 18  1 25 45.0000000  0  8G 1G18G 3G14G22G19G31G11
  21495142.1034   -2054191.00849  -1288274.14747  21495141.9034   21495147.8844
       238.0004        199.0004
  23451256.9224     350021.92749    272528.92545  23451256.8134   23451261.1094
       215.0004        155.0004
  23860135.4304     624806.36349    484368.49145  23860135.0224   23860142.7564
       215.0004        157.0004
  20419159.1244    -486199.35049   -370966.79647  20419158.8304   20419163.2274
       237.0004        212.0004
  21339841.7604    -296108.62249   -225960.62947  21339841.9154   21339844.6784
       240.0004        203.0004
  22772231.4384    -183953.14349   -138747.26146  22772231.2124   22772234.8724
       223.0004        179.0004
  22795580.5744   -2849224.60449  -2196327.28746  22795581.2374   22795585.7504
       225.0004        179.0004
  24077416.3944   -2553387.33549  -1954746.48645  24077417.0114   24077419.8014
       206.0004        139.0004
 07  2 18  1 25 50.0000000  0  8G 1G18G 3G14G22G19G31G11
  21493403.6154   -2063326.82249  -1295392.95447  21493403.2274   21493409.2664
       238.0004        200.0004
  23453249.7814     360494.62149    280689.47245  23453249.5634   23453254.3584
       215.0004        155.0004
  23862563.5774     637566.25649    494311.26545  23862562.9814   23862570.1964
       215.0004        157.0004
  20419918.2924    -482209.86549   -367858.10547  20419917.8154   20419922.3384
       237.0004        212.0004
  21340822.2754    -290956.06549   -221945.64847  21340822.2664   21340824.9794
       240.0004        203.0004
  22773483.5424    -177373.35049   -133620.14646  22773483.1464   22773486.6144
       224.0004        179.0004
  22792509.4134   -2865363.70749  -2208903.20546  22792509.7144   22792514.4704
       226.0004        179.0004
  24074501.4314   -2568705.53049  -1966682.74445  24074502.2194   24074504.9874
       204.0004        138.0004
 07  2 18  1 25 55.0000000  0  8G 1G18G 3G14G22G19G31G11
  21491667.0754   -2072452.30749  -1302503.72147  21491666.7694   21491672.7234
       238.0004        200.0004
  23455243.2444     370970.33649    288852.36845  23455242.3744   23455247.1904
       214.0004        155.0004
  23864992.2304     650328.94749    504256.20945  23864991.9904   23864998.6134
       216.0004        157.0004
  20420679.4974    -478209.74549   -364741.12547  20420679.1684   20420683.5394
       237.0004        212.0004
  21341803.5984    -285799.28049   -217927.37347  21341803.4874   21341806.2894
       240.0004        203.0004
  22774737.8634    -170781.69449   -128483.79746  22774737.0884   22774741.4314
       223.0004        179.0004
  22789439.2094   -2881497.79049  -2221475.20746  22789439.6294   22789444.0894
       226.0004        180.0004
  24071587.5634   -2584018.08249  -1978614.60445  24071587.3974   24071593.1334
       207.0004        138.0004
 07  2 18  1 26  0.0000000  0  8G 1G18G 3G14G22G19G31G11
  21489932.6404   -2081566.95249  -1309606.04047  21489932.2894   21489938.3454
       238.0004        200.0004
  23457237.3464     381449.64049    297018.05845  23457236.3234   23457241.4934
       213.0004        155.0004
  23867421.5234     663094.83649    514203.65545  23867421.4484   23867428.0574
       216.0004        156.0004
  20421442.8134    -474198.49649   -361615.47847  20421442.3804   20421446.8844
       237.0004        212.0004
  21342785.7994    -280637.75349   -213905.40347  21342785.4874   21342788.6114
       240.0004        203.0004
  22775994.5664    -164177.65449   -123337.79146  22775993.8784   22775998.3004
       222.0004        179.0004
  22786370.0454   -2897626.30649  -2234042.87446  22786370.1144   22786374.8444
       226.0004        180.0004
  24068674.8654   -2599324.45749  -1990541.62545  24068674.0444   24068680.0734
       207.0004        138.0004
 07  2 18  1 26  5.0000000  0  8G 1G18G 3G14G22G19G31G11
  21488200.1514   -2090671.23949  -1316700.28247  21488200.1194   21488205.8694
       238.0004        200.0004
  23459232.0434     391931.95649    305186.10445  23459231.6524   23459235.0084
       215.0004        154.0004
  23869851.3064     675863.43049    524153.20345  23869850.8464   23869857.4454
       216.0004        156.0004
  20422208.1244    -470176.62949   -358481.55147  20422207.8404   20422212.1294
       237.0004        212.0004
  21343768.7994    -275471.97049   -209880.11447  21343768.8064   21343771.4654
       240.0004        203.0004
  22777253.5454    -157561.72449   -118182.52246  22777253.2764   22777257.3624
       223.0004        179.0004
  22783301.8914   -2913749.75949  -2246606.59646  22783302.0384   22783306.8614
       224.0004        180.0004
  24065763.2354   -2614625.17549  -2002464.25645  24065762.4294   24065767.6144
       206.0004        137.0004
 07  2 18  1 26 10.0000000  0  8G 1G18G 3G14G22G19G31G11
  21486469.6674   -2099764.91249  -1323786.25547  21486469.3274   21486475.4244
       237.0004        200.0004
  23461227.3744     402417.62949    313356.76545  23461226.5614   23461231.5384
       215.0004        154.0004
  23872281.6574     688634.95349    534105.03445  23872281.7134   23872288.1384
       216.0004        156.0004
  20422975.5334    -466143.88349   -355339.15047  20422975.0394   20422979.5394
       238.0004        212.0004
  21344752.6754    -270301.69049   -205851.32347  21344752.6654   21344755.6704
       240.0004        203.0004
  22778514.8034    -150933.66849   -113017.80646  22778514.0534   22778518.3424
       222.0004        179.0004
  22780234.7324   -2929867.85849  -2259166.14446  22780235.0414   22780239.5584
       226.0004        180.0004
  24062852.7774   -2629919.89949  -2014382.22545  24062852.5844   24062856.5124
       207.0004        137.0004
 07  2 18  1 26 15.0000000  0  8G 1G18G 3G14G22G19G31G11
  21484741.2614   -2108847.90949  -1330863.91447  21484740.9934   21484747.0494
       237.0004        200.0004
  23463223.3464     412906.67149    321530.05445  23463222.1594   23463227.7114
       214.0004        154.0004
  23874712.5844     701409.54149    544059.25245  23874712.2814   23874718.7104
       215.0004        156.0004
  20423745.0314    -462100.20749   -352188.23347  20423744.8164   20423749.0034
       237.0004        212.0004
  21345737.4324    -265126.84649   -201818.97747  21345737.1544   21345740.1854
       240.0004        203.0004
  22779778.4194    -144293.42849   -107843.59446  22779778.0384   22779781.7594
       223.0004        179.0004
  22777168.5964   -2945980.53149  -2271721.46146  22777168.8544   22777173.2514
       224.0004        180.0004
  24059943.4374   -2645208.63649  -2026295.52245  24059943.6984   24059946.9554
       210.0004        137.0004
 07  2 18  1 26 20.0000000  0  8G 1G18G 3G14G22G19G31G11
  21483014.7994   -2117920.39949  -1337933.38547  21483014.5784   21483020.4554
       238.0004        200.0004
  23465219.9574     423398.91749    329705.83145  23465220.0364   23465224.6644
       214.0004        154.0004
  23877144.0834     714186.98849    554015.69745  23877143.8974   23877149.8714
       215.0004        156.0004
  20424516.5334    -458045.78649   -349028.94247  20424516.3324   20424520.6144
       238.0004        212.0004
  21346722.9804    -259947.59749   -197783.20047  21346722.6614   21346725.6714
       240.0004        203.0004
  22781044.2784    -137641.19849   -102660.03946  22781043.4024   22781048.1884
       224.0004        179.0004
  22774103.4274   -2962087.95649  -2284272.69346  22774103.7764   22774108.3634
       224.0004        180.0004
  24057035.2644   -2660491.49349  -2038204.23745  24057034.5724   24057039.3624
       209.0004        137.0004
 07  2 18  1 26 25.0000000  0  8G 1G18G 3G14G22G19G31G11
  21481290.3904   -2126982.28149  -1344994.58347  21481290.1724   21481296.1324
       237.0004        200.0004
  23467217.2184     433894.44949    337884.14445  23467217.0444   23467221.4824
       215.0004        154.0004
  23879576.0934     726967.38749    563974.44945  23879576.0534   23879582.0904
       215.0004        156.0004
  20425290.1584    -453980.50849   -345861.19447  20425289.9464   20425294.1154
       237.0004        212.0004
  21347709.4224    -254763.85249   -193743.91747  21347709.5184   21347712.1174
       240.0004        203.0004
  22782312.4664    -130976.89549    -97467.07546  22782311.8244   22782316.3304
       224.0004        179.0004
  22771039.3154   -2978189.98749  -2296819.72246  22771039.5974   22771044.3304
       224.0004        180.0004
  24054128.1954   -2675768.43849  -2050108.34745  24054128.5934   24054132.3124
       209.0004        138.0004
 07  2 18  1 26 30.0000000  0  8G 1G18G 3G14G22G19G31G11
  21479567.9734   -2136033.67549  -1352047.61547  21479567.5954   21479573.7424
       238.0004        200.0004
  23469215.0474     444393.13049    346064.92845  23469215.2504   23469220.1294
       216.0004        154.0004
  23882008.6664     739750.62349    573935.41045  23882008.9294   23882014.5494
       214.0004        155.0004
  20426065.7684    -449904.51649   -342685.09547  20426065.3594   20426069.8724
       237.0004        212.0004
  21348696.6804    -249575.71749   -189701.21847  21348696.5854   21348699.3154
       240.0004        203.0004
  22783582.9224    -124300.64549    -92264.81046  22783582.3444   22783586.8754
       224.0004        179.0004
  22767976.1844   -2994286.77349  -2309362.66446  22767976.0184   22767981.1784
       224.0004        180.0004
  24051222.2194   -2691039.49349  -2062007.85845  24051221.8364   24051225.8444
       209.0004        138.0004
 07  2 18  1 26 35.0000000  0  8G 1G18G 3G14G22G19G31G11
  21477847.5104   -2145074.71649  -1359092.57647  21477846.9964   21477853.3284
       239.0004        200.0004
  23471213.4974     454894.86449    354248.10645  23471213.6374   23471217.5374
       216.0004        154.0004
  23884441.7424     752536.48749    583898.42345  23884440.8764   23884447.5074
       214.0004        155.0004
  20426843.4314    -445817.98649   -339500.78247  20426843.1114   20426847.4334
       237.0004        212.0004
  21349684.7404    -244383.33849   -185655.20147  21349684.8514   21349687.6124
       240.0004        203.0004
  22784855.6344    -117612.60349    -87053.33946  22784855.0534   22784858.3274
       224.0004        179.0004
  22764914.0194   -3010378.42949  -2321901.60246  22764913.6984   22764918.8834
       224.0004        180.0004
  24048317.3524   -2706304.80549  -2073902.90245  24048317.5364   24048320.9064
       208.0004        139.0004
 07  2 18  1 26 40.0000000  0  8G 1G18G 3G14G22G19G31G11
  21476129.1314   -2154104.99549  -1366129.15347  21476129.0354   21476135.1394
       238.0004        200.0004
  23473212.5904     465400.03549    362433.95645  23473212.1434   23473216.7464
       216.0004        154.0004
  23886875.3634     765325.37749    593863.78745  23886874.4414   23886881.8804
       215.0004        155.0004
  20427623.1344    -441720.51649   -336307.94647  20427622.7514   20427627.0614
       237.0004        212.0004
  21350673.7044    -239186.32749   -181605.58347  21350673.7464   21350676.4014
       240.0004        203.0004
  22786130.6524    -110912.37649    -81832.38646  22786129.9804   22786134.2564
       223.0004        179.0004
  22761852.8884   -3026464.53849  -2334436.22346  22761853.5374   22761857.2554
       224.0004        180.0004
  24045413.6434   -2721563.92449  -2085793.12045  24045413.6574   24045417.7454
       208.0004        140.0004
 07  2 18  1 26 45.0000000  0  8G 1G18G 3G14G22G19G31G11
  21474412.7264   -2163124.62149  -1373157.43047  21474412.3344   21474418.5224
       238.0004        200.0004
  23475212.3154     475908.56749    370622.42245  23475211.9994   23475216.9654
       216.0004        154.0004
  23889309.5884     778117.22749    603831.45645  23889309.8054   23889315.7694
       215.0004        154.0004
  20428404.9254    -437612.18749   -333106.65147  20428404.5204   20428408.9564
       237.0004        212.0004
  21351663.5434    -233984.74949   -177552.40447  21351663.6314   21351666.2084
       240.0004        203.0004
  22787407.9924    -104200.07149    -76602.02146  22787407.3064   22787411.5294
       223.0004        179.0004
  22758792.8184   -3042545.16149  -2346966.56646  22758792.8064   22758798.3614
       223.0004        180.0004
  24042511.0714   -2736817.02549  -2097678.64245  24042510.6164   24042515.2234
       211.0004        140.0004
 07  2 18  1 26 50.0000000  0  8G 1G18G 3G14G22G19G31G11
  21472698.3574   -2172133.79749  -1380177.56647  21472698.0304   21472703.8384
       238.0004        200.0004
  23477212.6504     486420.23349    378813.33145  23477212.6644   23477217.2964
       215.0004        154.0004
  23891744.3224     790911.81149    613801.26545  23891744.5994   23891750.5604
       215.0004        154.0004
  20429188.7544    -433493.20649   -329897.05447  20429188.6874   20429192.7704
       237.0004        212.0004
  21352654.2074    -228778.82449   -173495.83847  21352654.2354   21352656.9864
       240.0004        203.0004
  22788687.5784     -97475.87549    -71362.38946  22788686.8504   22788691.0654
       224.0004        179.0004
  22755733.7694   -3058620.52549  -2359492.81546  22755733.5434   22755739.0944
       224.0004        180.0004
  24039609.6214   -2752064.26849  -2109559.60545  24039609.4354   24039614.3084
       211.0004        141.0004
 07  2 18  1 26 55.0000000  0  8G 1G18G 3G14G22G19G31G11
  21470985.9504   -2181132.44949  -1387189.49447  21470985.7964   21470991.5784
       238.0004        200.0004
  23479213.5854     496935.14649    387006.77145  23479212.1604   23479217.1234
       214.0004        154.0004
  23894179.5714     803709.10749    623773.17445  23894178.7944   23894185.7054
       215.0004        154.0004
  20429974.6294    -429363.49649   -326679.09347  20429974.3234   20429978.5744
       238.0004        212.0004
  21353645.6744    -223568.48249   -169435.82947  21353645.6194   21353648.3784
       240.0004        203.0004
  22789969.4164     -90739.78249    -66113.48146  22789968.3134   22789972.9174
       224.0004        179.0004
  22752675.7344   -3074690.48549  -2372014.85446  22752675.7804   22752680.3704
       225.0004        180.0004
  24036709.2984   -2767305.56749  -2121435.93645  24036709.4224   24036713.2734
       209.0004        142.0004
 07  2 18  1 27  0.0000000  0  8G 1G18G 3G14G22G19G31G11
  21469275.6094   -2190120.41849  -1394193.10847  21469275.1804   21469281.2034
       238.0004        200.0004
  23481215.1354     507453.38749    395202.79745  23481214.3844   23481219.2634
       216.0004        154.0004
  23896615.3844     816509.34949    633747.38545  23896615.2674   23896622.2194
       214.0004        155.0004
  20430762.5584    -425222.92749   -323452.67347  20430762.2384   20430766.5274
       238.0004        212.0004
  21354638.0354    -218353.59849   -165372.28547  21354637.9024   21354640.6154
       240.0004        203.0004
  22791253.5534     -83991.62249    -60855.18246  22791252.6844   22791257.3214
       222.0004        179.0004
  22749618.7614   -3090754.91249  -2384532.57746  22749618.9174   22749623.7914
       225.0004        180.0004
  24033810.1184   -2782540.75449  -2133307.50345  24033810.2194   24033814.0644
       211.0004        142.0004
 07  2 18  1 27  5.0000000  0  8G 1G18G 3G14G22G19G31G11
  21467567.2474   -2199097.90749  -1401188.54847  21467566.6634   21467572.7074
       238.0004        200.0004
  23483217.3134     517974.85549    403401.33845  23483216.7874   23483221.5704
       216.0004        154.0004
  23899051.7164     829312.35449    643723.75045  23899051.2014   23899058.3374
       215.0004        154.0004
  20431552.4934    -421071.71849   -320217.96247  20431552.1914   20431556.3734
       238.0004        212.0004
  21355631.2524    -213134.29749   -161305.29747  21355631.2944   21355633.8804
       240.0004        203.0004
  22792539.9614     -77231.61649    -55587.64446  22792539.1834   22792544.0284
       223.0004        179.0004
  22746562.8254   -3106813.97649  -2397046.11746  22746563.1924   22746568.1864
       225.0004        180.0004
  24030912.0444   -2797770.04349  -2145174.47045  24030912.6054   24030916.7724
       209.0004        143.0004
 07  2 18  1 27 10.0000000  0  8G 1G18G 3G14G22G19G31G11
  21465860.9484   -2208064.65149  -1408175.62047  21465860.4244   21465866.7854
       238.0004        200.0004
  23485220.1054     528499.74049    411602.55845  23485220.1804   23485224.7514
       214.0004        154.0004
  23901488.6154     842118.34349    653702.44645  23901488.1844   23901495.7044
       214.0004        154.0004
  20432344.5184    -416909.59949   -316974.75047  20432344.3624   20432348.3894
       238.0004        212.0004
  21356625.3304    -207910.36049   -157234.69447  21356625.3764   21356627.7574
       240.0004        203.0004
  22793828.6514     -70459.50749    -50310.68046  22793827.9014   22793832.0314
       224.0004        179.0004
  22743507.9624   -3122867.43849  -2409555.30346  22743507.8574   22743512.5914
       226.0004        180.0004
  24028015.1714   -2812993.12549  -2157036.59445  24028015.8614   24028019.8824
       211.0004        143.0004
 07  2 18  1 27 15.0000000  0  8G 1G18G 3G14G22G19G31G11
  21464156.5824   -2217021.15449  -1415154.70747  21464156.3444   21464162.1814
       238.0004        200.0004
  23487223.4924     539027.55149    419806.05145  23487222.9744   23487227.9844
       214.0004        153.0004
  23903925.9494     854926.70149    663682.97545  23903925.6474   23903931.9614
       215.0004        155.0004
  20433138.5344    -412737.08349   -313723.43547  20433138.1534   20433142.4574
       238.0004        212.0004
  21357620.2054    -202682.29349   -153160.87247  21357620.0274   21357623.2504
       240.0004        203.0004
  22795119.5384     -63675.78849    -45024.67046  22795119.1074   22795124.0574
       223.0004        180.0004
  22740454.0584   -3138915.77549  -2422060.48746  22740454.5314   22740458.9554
       226.0004        180.0004
  24025119.3964   -2828210.50149  -2168894.28445  24025119.5364   24025123.3564
       212.0004        144.0004
 07  2 18  1 27 20.0000000  0  8G 1G18G 3G14G22G19G31G11
  21462454.2714   -2225966.81049  -1422125.34447  21462453.8824   21462459.8844
       238.0004        200.0004
  23489227.5364     549558.88149    428012.28745  23489227.0274   23489231.9454
       215.0004        154.0004
  23906363.8754     867738.12049    673665.90145  23906363.0194   23906370.3634
       215.0004        155.0004
  20433934.6364    -408553.59749   -310463.57347  20433934.2524   20433938.6484
       238.0004        212.0004
  21358615.9854    -197449.48349   -149083.36247  21358615.9384   21358618.5794
       240.0004        203.0004
  22796412.7694     -56879.86849    -39729.14246  22796412.1424   22796416.2844
       223.0004        180.0004
  22737401.2604   -3154958.39449  -2434561.22646  22737401.8044   22737406.2124
       226.0004        180.0004
  24022224.7964   -2843421.56649  -2180747.04545  24022223.8404   24022229.4304
       209.0004        145.0004
 07  2 18  1 27 25.0000000  0  8G 1G18G 3G14G22G19G31G11
  21460753.9934   -2234901.89049  -1429087.74047  21460753.6094   21460759.6194
       238.0004        200.0004
  23491232.2024     560093.44849    436221.04345  23491231.7694   23491236.5254
       216.0004        154.0004
  23908802.3084     880552.23049    683650.92245  23908801.6814   23908809.5434
       213.0004        154.0004
  20434732.7554    -404359.40949   -307195.37547  20434732.3594   20434736.7034
       237.0004        212.0004
  21359612.5834    -192212.20049   -145002.36147  21359612.5984   21359615.4274
       240.0004        203.0004
  22797708.2344     -50072.06449    -34424.36546  22797707.4564   22797712.4524
       222.0004        180.0004
  22734349.5144   -3170995.49649  -2447057.65946  22734349.8274   22734354.5044
       226.0004        181.0004
  24019331.3414   -2858626.55049  -2192595.07245  24019330.9634   24019335.7334
       212.0004        145.0004
 07  2 18  1 27 30.0000000  0  8G 1G18G 3G14G22G19G31G11
  21459055.7204   -2243826.34549  -1436041.85547  21459055.3754   21459061.5574
       237.0004        200.0004
  23493237.4984     570631.32849    444432.36845  23493236.4514   23493242.9774
       216.0004        154.0004
  23911241.2834     893369.08749    693638.08245  23911240.5534   23911247.8264
       214.0004        154.0004
  20435532.9324    -400154.47249   -303918.80147  20435532.6254   20435536.8344
       238.0004        212.0004
  21360610.0574    -186970.41949   -140917.85147  21360610.2474   21360613.1284
       240.0004        203.0004
  22799005.9884     -43252.28949    -29110.24846  22799005.3774   22799009.4794
       222.0004        179.0004
  22731298.8284   -3187027.02749  -2459549.75746  22731298.9294   22731303.6404
       226.0004        181.0004
  24016439.0594   -2873825.42149  -2204438.34345  24016439.0754   24016443.7264
       211.0004        146.0004
 07  2 18  1 27 35.0000000  0  8G 1G18G 3G14G22G19G31G11
  21457359.4424   -2252740.33849  -1442987.81847  21457358.9404   21457365.1194
       238.0004        200.0004
  23495243.4104     581172.35049    452646.15745  23495242.7524   23495246.9504
       215.0004        154.0004
  23913680.7454     906188.56649    703627.28245  23913679.4244   23913686.9794
       215.0004        154.0004
  20436335.1124    -395938.97849   -300633.99847  20436334.7804   20436339.0704
       237.0004        212.0004
  21361608.3534    -181724.28349   -136829.95147  21361608.3464   21361611.3384
       240.0004        203.0004
  22800306.0034     -36420.74949    -23786.97946  22800305.1274   22800309.7424
       224.0004        179.0004
  22728249.1504   -3203053.17449  -2472037.65746  22728249.3204   22728254.3864
       227.0004        181.0004
  24013547.9244   -2889018.35049  -2216276.98545  24013547.8174   24013552.8624
       211.0004        147.0004
 07  2 18  1 27 40.0000000  0  8G 1G18G 3G14G22G19G31G11
  21455665.1804   -2261643.70549  -1449925.50847  21455664.5434   21455670.9024
       238.0004        200.0004
  23497249.9274     591716.71449    460862.54145  23497249.1134   23497254.0054
       212.0004        154.0004
  23916120.7044     919010.72849    713618.57345  23916120.8144   23916127.6054
       215.0004        154.0004
  20437139.3264    -391712.75849   -297340.83647  20437139.1234   20437143.2314
       238.0004        212.0004
  21362607.5344    -176473.63249   -132738.53547  21362607.4354   21362610.1904
       240.0004        203.0004
  22801608.2604     -29577.28549    -18454.41046  22801607.4564   22801611.8574
       223.0004        179.0004
  22725200.5494   -3219073.72649  -2484521.19546  22725201.0014   22725205.7054
       227.0004        181.0004
  24010657.9504   -2904205.11149  -2228110.81945  24010657.8774   24010662.9744
       212.0004        147.0004
 07  2 18  1 27 45.0000000  0  8G 1G18G 3G14G22G19G31G11
  21453972.8914   -2270536.62949  -1456855.05347  21453972.6044   21453978.3894
       238.0004        200.0004
  23499257.0624     602264.20649    469081.37345  23499256.0444   23499260.4694
       213.0004        153.0004
  23918561.1614     931835.44949    723611.86345  23918561.6344   23918567.4774
       216.0004        154.0004
  20437945.5694    -387475.99449   -294039.46247  20437945.1454   20437949.6174
       237.0004        212.0004
  21363607.5164    -171218.63049   -128643.72647  21363607.5424   21363610.2684
       240.0004        203.0004
  22802912.7684     -22722.07049    -13112.67646  22802912.4824   22802915.9534
       224.0004        179.0004
  22722152.9774   -3235088.86949  -2497000.51446  22722153.4904   22722158.1804
       226.0004        181.0004
  24007769.0904   -2919385.92649  -2239940.02045  24007770.1274   24007773.8684
       213.0004        148.0004
 07  2 18  1 27 50.0000000  0  8G 1G18G 3G14G22G19G31G11
  21452282.6854   -2279418.72049  -1463776.15747  21452282.4044   21452288.2084
       238.0004        200.0004
  23501264.8584     612815.22149    477302.94445  23501264.5334   23501269.2974
       214.0004        153.0004
  23921002.1994     944663.09949    733607.43545  23921001.7054   23921009.3174
       214.0004        154.0004
  20438753.8654    -383228.31849   -290729.58347  20438753.5654   20438757.7204
       238.0004        212.0004
  21364608.4074    -165958.90749   -124545.24147  21364608.3694   21364611.3454
       240.0004        203.0004
  22804219.5714     -15854.75749     -7761.53246  22804218.5284   22804223.9954
       223.0004        179.0004
  22719106.4724   -3251098.22049  -2509475.33046  22719106.4004   22719111.0464
       226.0004        182.0004
  24004881.4894   -2934560.36049  -2251764.24645  24004882.3164   24004886.3454
       214.0004        148.0004
 07  2 18  1 27 55.0000000  0  8G 1G18G 3G14G22G19G31G11
  21450594.4644   -2288290.29849  -1470689.07547  21450593.7934   21450599.9914
       238.0004        200.0004
  23503273.2694     623369.45649    485527.02145  23503273.5324   23503278.0924
       217.0004        154.0004
  23923443.7214     957493.34249    743605.02545  23923443.7254   23923450.2164
       213.0004        154.0004
  20439564.1874    -378970.06049   -287411.45647  20439563.8444   20439568.2694
       237.0004        212.0004
  21365610.1424    -160694.78149   -120443.32347  21365610.1264   21365613.0474
       240.0004        203.0004
  22805528.6014      -8975.70349     -2401.22946  22805527.3324   22805532.5674
       223.0004        179.0004
  22716061.0584   -3267102.04549  -2521945.82846  22716061.4384   22716066.0804
       226.0004        182.0004
  24001995.0564   -2949728.80749  -2263583.80545  24001995.3144   24001999.9084
       211.0004        149.0004
 07  2 18  1 28  0.0000000  0  8G 1G18G 3G14G22G19G31G11
  21448908.2814   -2297151.15849  -1477593.63747  21448907.8804   21448913.6944
       238.0004        200.0004
  23505282.3234     633927.11949    493753.77345  23505282.2324   23505287.0034
       216.0004        154.0004
  23925885.7444     970326.34449    753604.76445  23925886.1944   23925891.8314
       214.0004        154.0004
  20440376.5464    -374701.01749   -284084.93047  20440376.3124   20440380.5074
       238.0004        212.0004
  21366612.7684    -155426.02049   -116337.79847  21366612.8724   21366615.5334
       240.0004        203.0004
  22806839.9474      -2084.65649      2968.41746  22806838.9844   22806843.4964
       223.0004        180.0004
  22713016.7254   -3283100.16049  -2534411.88946  22713016.7764   22713022.0934
       226.0004        182.0004
  23999109.7664   -2964891.09049  -2275398.56045  23999109.7524   23999114.2044
       213.0004        149.0004
 07  2 18  1 28  5.0000000  0  8G 1G18G 3G14G22G19G31G11
  21447224.0974   -2306001.66149  -1484490.12947  21447223.6464   21447229.6814
       238.0004        200.0004
  23507291.9914     644487.86149    501982.92045  23507291.5614   23507297.1624
       216.0004        154.0004
  23928328.2184     983161.69849    763606.32845  23928327.8234   23928334.8184
       216.0004        153.0004
  20441190.8904    -370421.59249   -280750.31047  20441190.5184   20441194.8154
       237.0004        212.0004
  21367616.1674    -150153.02049   -112228.96547  21367616.1574   21367618.9094
       240.0004        203.0004
  22808153.4834       4817.95749      8347.06746  22808153.1844   22808157.3184
       223.0004        180.0004
  22709973.3984   -3299092.89849  -2546873.75846  22709973.6124   22709978.1344
       225.0004        182.0004
  23996225.6174   -2980047.44749  -2287208.69945  23996225.5694   23996230.5664
       216.0004        149.0004
 07  2 18  1 28 10.0000000  0  8G 1G18G 3G14G22G19G31G11
  21445541.9184   -2314841.50949  -1491378.31947  21445541.5414   21445547.4564
       238.0004        200.0004
  23509302.3024     655051.94549    510214.67845  23509301.7594   23509306.6484
       214.0004        154.0004
  23930771.2324     995999.79749    773610.04445  23930770.9824   23930777.9794
       215.0004        153.0004
  20442007.2864    -366131.44449   -277407.33747  20442006.9434   20442011.1024
       238.0004        212.0004
  21368620.4784    -144875.45249   -108116.57547  21368620.5524   21368623.2844
       240.0004        202.0004
  22809469.2674      11732.48649     13735.01246  22809468.5244   22809473.3344
       223.0004        180.0004
  22706931.1434   -3315079.92349  -2559331.17046  22706931.2594   22706935.8774
       224.0004        181.0004
  23993342.6864   -2995197.52049  -2299013.94345  23993342.7644   23993347.5794
       213.0004        150.0004
 07  2 18  1 28 15.0000000  0  8G 1G18G 3G14G22G19G31G11
  21443861.7814   -2323670.76249  -1498258.25147  21443861.4444   21443867.6174
       238.0004        200.0004
  23511313.2234     665619.29449    518448.96845  23511312.6774   23511317.7374
       214.0004        155.0004
  23933214.7354    1008840.49449    783615.77345  23933214.0514   23933220.9894
       214.0004        153.0004
  20442825.6864    -361830.67049   -274056.08247  20442825.1674   20442829.6354
       237.0004        212.0004
  21369625.6324    -139593.34749   -104000.64447  21369625.4864   21369628.5464
       240.0004        202.0004
  22810787.3234      18658.81749     19132.15546  22810787.2514   22810791.2114
       224.0004        180.0004
  22703889.9444   -3331061.32149  -2571784.19946  22703890.4344   22703894.3524
       226.0004        181.0004
  23990460.8974   -3010341.45649  -2310814.40245  23990460.9494   23990465.6274
       215.0004        150.0004
 07  2 18  1 28 20.0000000  0  8G 1G18G 3G14G22G19G31G11
  21442183.5964   -2332489.63049  -1505130.09647  21442183.2354   21442189.1314
       239.0004        200.0004
  23513324.7044     676189.69049    526685.64445  23513324.5244   23513329.8844
       213.0004        155.0004
  23935658.6924    1021683.60049    793623.38045  23935658.6184   23935665.1514
       214.0004        154.0004
  20443646.0644    -357519.49349   -270696.72647  20443645.7894   20443649.9714
       238.0004        212.0004
  21370631.5874    -134306.95749    -99881.38247  21370631.5004   21370634.4124
       240.0004        202.0004
  22812107.5904      25596.71649     24538.31646  22812107.0274   22812111.1144
       223.0004        180.0004
  22700849.8164   -3347037.30849  -2584233.00946  22700849.9394   22700854.1014
       225.0004        181.0004
  23987580.3024   -3025479.38949  -2322610.18445  23987580.5444   23987585.5224
       216.0004        150.0004
 07  2 18  1 28 25.0000000  0  8G 1G18G 3G14G22G19G31G11
  21440507.4544   -2341297.85449  -1511993.64047  21440507.4264   21440513.1444
       238.0004        200.0004
  23515336.8254     686763.43049    534924.92045  23515336.7314   23515341.5344
       216.0004        155.0004
  23938103.1534    1034529.38249    803633.07345  23938102.4964   23938110.5914
       214.0004        153.0004
  20444468.4764    -353197.67149   -267329.06947  20444468.1194   20444472.3144
       238.0004        212.0004
  21371638.4074    -129016.04949    -95758.59347  21371638.3234   21371641.2514
       240.0004        203.0004
  22813430.0724      32546.48249     29953.71946  22813429.1124   22813433.6074
       223.0004        180.0004
  22697810.7714   -3363007.57549  -2596677.36446  22697810.9724   22697815.8124
       226.0004        181.0004
  23984700.8604   -3040611.07549  -2334401.10145  23984700.4374   23984705.9974
       216.0004        150.0004
 07  2 18  1 28 30.0000000  0  8G 1G18G 3G14G22G19G31G11
  21438833.3134   -2350095.45949  -1518848.91947  21438833.0554   21438838.8784
       238.0004        200.0004
  23517349.5754     697340.48849    543166.77945  23517350.1674   23517353.8394
       214.0004        155.0004
  23940548.1144    1047377.76249    813644.79145  23940547.7844   23940555.6634
       214.0004        153.0004
  20445292.9084    -348865.21349   -263953.12547  20445292.5784   20445296.8794
       238.0004        212.0004
  21372646.1024    -123720.57849    -91632.25047  21372646.1354   21372649.0334
       240.0004        202.0004
  22814754.8214      39508.06549     35378.32546  22814753.9544   22814758.4364
       223.0004        179.0004
  22694772.7864   -3378972.12449  -2609117.26546  22694773.1754   22694777.1874
       226.0004        181.0004
  23981822.6204   -3055736.56349  -2346187.19045  23981822.1904   23981827.7444
       216.0004        151.0004
 07  2 18  1 28 35.0000000  0  8G 1G18G 3G14G22G19G31G11
  21437161.2374   -2358882.30949  -1525695.80747  21437160.9324   21437166.8384
       238.0004        201.0004
  23519362.9864     707920.98349    551411.30645  23519363.5434   23519366.6564
       215.0004        155.0004
  23942993.5904    1060228.84949    823658.62545  23942993.6704   23943000.4964
       213.0004        153.0004
  20446119.4164    -344521.98749   -260568.79447  20446118.9264   20446123.3474
       238.0004        212.0004
  21373654.6924    -118420.43549    -87502.27047  21373654.4574   21373657.5964
       239.0004        202.0004
  22816081.8414      46481.53949     40812.19746  22816081.3164   22816085.1874
       224.0004        179.0004
  22691735.9444   -3394930.83549  -2621552.61346  22691736.0684   22691740.2084
       226.0004        181.0004
  23978945.5684   -3070855.65449  -2357968.29345  23978945.2024   23978950.2004
       215.0004        151.0004
 07  2 18  1 28 40.0000000  0  8G 1G18G 3G14G22G19G31G11
  21435491.1284   -2367658.76149  -1532534.59747  21435491.0284   21435496.7304
       238.0004        201.0004
  23521376.9784     718504.54649    559658.24845  23521376.9804   23521380.8254
       215.0004        155.0004
  23945439.4804    1073082.23849    833674.25245  23945439.6474   23945446.5934
       215.0004        153.0004
  20446947.8644    -340168.38749   -257176.37547  20446947.5834   20446951.9174
       238.0004        212.0004
  21374664.0664    -113116.04149    -83368.97247  21374663.9784   21374666.9594
       239.0004        202.0004
  22817411.0564      53466.59649     46255.09946  22817410.4754   22817414.1184
       224.0004        179.0004
  22688700.1614   -3410884.02049  -2633983.66246  22688700.2804   22688704.6894
       226.0004        181.0004
  23976069.6764   -3085968.72249  -2369744.70245  23976069.4434   23976073.5884
       215.0004        151.0004
 07  2 18  1 28 45.0000000  0  8G 1G18G 3G14G22G19G31G11
  21433823.0484   -2376424.60449  -1539365.12647  21433822.4734   21433828.6704
       238.0004        201.0004
  23523391.5974     729091.44049    567907.78445  23523391.5854   23523395.5564
       216.0004        154.0004
  23947885.8564    1085938.14549    843691.83745  23947886.2234   23947893.1784
       214.0004        154.0004
  20447778.3514    -335804.19549   -253775.70347  20447777.7984   20447782.2494
       237.0004        212.0004
  21375674.3114    -107807.18149    -79232.20047  21375674.2194   21375677.1674
       240.0004        202.0004
  22818742.5134      60463.41249     51707.16246  22818741.8544   22818746.2714
       223.0004        179.0004
  22685665.4494   -3426831.46649  -2646410.23246  22685665.8104   22685669.6054
       225.0004        181.0004
  23973194.9724   -3101075.55249  -2381516.25145  23973194.4934   23973199.2534
       215.0004        152.0004
 07  2 18  1 28 50.0000000  0  8G 1G18G 3G14G22G19G31G11
  21432157.0114   -2385179.75049  -1546187.31247  21432156.5274   21432162.9394
       238.0004        201.0004
  23525406.8744     739681.73849    576159.97445  23525406.2804   23525410.4324
       215.0004        154.0004
  23950332.7594    1098796.68449    853711.47445  23950332.8904   23950339.5724
       215.0004        154.0004
  20448610.8574    -331429.32549   -250366.71247  20448610.3824   20448614.8074
       237.0004        212.0004
  21376685.4394    -102493.73549    -75091.85247  21376685.3594   21376688.0164
       240.0004        202.0004
  22820076.2074      67472.07849     57168.46146  22820075.3614   22820079.1584
       224.0004        179.0004
  22682631.8694   -3442773.08149  -2658832.25846  22682632.3604   22682637.0484
       227.0004        181.0004
  23970321.4694   -3116176.03149  -2393282.84845  23970321.2824   23970325.6044
       216.0004        152.0004
 07  2 18  1 28 55.0000000  0  8G 1G18G 3G14G22G19G31G11
  21430492.9304   -2393924.43349  -1553001.34947  21430492.5894   21430498.9324
       238.0004        201.0004
  23527422.7564     750275.16549    584414.58045  23527422.2054   23527427.2164
       213.0004        154.0004
  23952780.1254    1111657.64149    863732.99545  23952780.6354   23952786.1104
       215.0004        153.0004
  20449445.3274    -327044.04349   -246949.60747  20449445.0044   20449449.3904
       238.0004        212.0004
  21377697.3784     -97175.90049    -70948.08247  21377697.3684   21377700.2814
       239.0004        202.0004
  22821412.1414      74492.36949     62638.81746  22821411.1764   22821415.2664
       224.0004        178.0004
  22679599.3764   -3458709.03849  -2671249.88746  22679599.9304   22679604.1914
       227.0004        181.0004
  23967449.0994   -3131270.36149  -2405044.65045  23967449.4204   23967452.9704
       216.0004        152.0004
 07  2 18  1 29  0.0000000  0  8G 1G18G 3G14G22G19G31G11
  21428830.9464   -2402658.25849  -1559806.92147  21428830.6594   21428836.7434
       239.0004        201.0004
  23529439.3204     760872.16449    592671.98545  23529438.6994   23529444.0294
       212.0004        153.0004
  23955227.9914    1124521.30849    873756.62945  23955227.3914   23955235.0834
       214.0004        153.0004
  20450281.9044    -322647.93649   -243524.07047  20450281.6054   20450285.9234
       237.0004        212.0004
  21378710.2074     -91853.30249    -66800.60647  21378710.2174   21378712.8714
       239.0004        202.0004
  22822750.3504      81524.64549     68118.50946  22822749.1804   22822753.6874
       223.0004        178.0004
  22676568.0064   -3474638.99049  -2683662.82646  22676568.4284   22676572.2484
       227.0004        181.0004
  23964577.9984   -3146358.16649  -2416801.37745  23964578.2184   23964582.1664
       214.0004        153.0004
 07  2 18  1 29  5.0000000  0  8G 1G18G 3G14G22G19G31G11
  21427170.8954   -2411381.78949  -1566604.47347  21427170.6184   21427176.6424
       239.0004        201.0004
  23531456.4734     771472.13449    600931.69845  23531455.5824   23531460.2024
       214.0004        153.0004
  23957676.2704    1137387.12249    883781.93645  23957676.2464   23957683.0114
       215.0004        153.0004
  20451120.4094    -318241.56949   -240090.53447  20451120.1244   20451124.4414
       238.0004        212.0004
  21379723.8574     -86526.49949    -62649.85147  21379723.7554   21379726.5734
       240.0004        202.0004
  22824090.7354      88568.30749     73607.07846  22824089.9714   22824094.4444
       223.0004        178.0004
  22673537.6804   -3490563.48349  -2696071.51346  22673537.5274   22673542.8294
       226.0004        181.0004
  23961708.0504   -3161439.99849  -2428553.44645  23961708.6944   23961712.4614
       216.0004        153.0004
 07  2 18  1 29 10.0000000  0  8G 1G18G 3G14G22G19G31G11
  21425512.9024   -2420094.64249  -1573393.70747  21425512.6764   21425518.9024
       239.0004        201.0004
  23533474.2134     782075.47849    609194.04345  23533473.3954   23533476.7274
       213.0004        153.0004
  23960125.0294    1150255.43149    893809.18645  23960125.1014   23960131.9594
       215.0004        153.0004
  20451960.9124    -313824.57949   -236648.72447  20451960.8324   20451964.9904
       239.0004        212.0004
  21380738.3934     -81195.13549    -58495.54047  21380738.4634   21380741.1864
       240.0004        202.0004
  22825433.3434      95623.73449     79104.80846  22825432.7724   22825436.8094
       223.0004        178.0004
  22670508.4734   -3506482.09449  -2708475.62046  22670508.7534   22670513.4074
       227.0004        181.0004
  23958839.2864   -3176515.46949  -2440300.55945  23958838.7814   23958843.9204
       216.0004        153.0004
 07  2 18  1 29 15.0000000  0  8G 1G18G 3G14G22G19G31G11
  21423856.9644   -2428796.67649  -1580174.51147  21423856.8924   21423862.5404
       239.0004        201.0004
  23535492.6454     792682.35149    617459.14045  23535491.7784   23535496.4234
       215.0004        153.0004
  23962574.2994    1163126.46749    903838.56645  23962574.0754   23962581.5424
       214.0004        153.0004
  20452803.4894    -309396.83549   -233198.53047  20452803.1294   20452807.6624
       238.0004        212.0004
  21381753.8194     -75859.08549    -54337.57947  21381754.0404   21381756.4294
       240.0004        202.0004
  22826778.2074     102691.05749     84611.80446  22826777.5514   22826781.5044
       223.0004        178.0004
  22667480.3914   -3522394.69449  -2720875.04646  22667481.0594   22667484.6014
       228.0004        182.0004
  23955971.7554   -3191584.45249  -2452042.62245  23955972.0164   23955975.8434
       215.0004        153.0004
 07  2 18  1 29 20.0000000  0  8G 1G18G 3G14G22G19G31G11
  21422202.9884   -2437488.53749  -1586947.38347  21422202.8184   21422208.4654
       239.0004        201.0004
  23537511.5914     803292.09349    625726.46945  23537511.6004   23537516.0434
       216.0004        153.0004
  23965023.9544    1175999.53249    913869.52545  23965023.6794   23965030.3074
       213.0004        153.0004
  20453648.0104    -304958.95949   -229740.44447  20453647.7044   20453651.9374
       238.0004        212.0004
  21382770.0094     -70518.93249    -50176.42047  21382769.8264   21382772.6424
       240.0004        202.0004
  22828125.2114     109769.60949     90127.56146  22828124.7584   22828128.1684
       223.0004        178.0004
  22664453.3644   -3538301.90849  -2733270.26546  22664453.6654   22664458.2654
       227.0004        182.0004
  23953105.3324   -3206647.59549  -2463780.13145  23953104.8014   23953109.4434
       217.0004        153.0004
 07  2 18  1 29 25.0000000  0  8G 1G18G 3G14G22G19G31G11
  21420551.0324   -2446169.54049  -1593711.79547  21420550.9914   21420556.4064
       239.0004        201.0004
  23539531.2534     813905.41049    633996.57645  23539531.6014   23539535.3244
       216.0004        153.0004
  23967474.1274    1188875.22349    923902.52945  23967474.3334   23967481.5754
       214.0004        152.0004
  20454494.5584    -300510.33449   -226273.98147  20454494.3484   20454498.7674
       238.0004        212.0004
  21383787.1274     -65174.02549    -46011.54847  21383786.9924   21383789.9254
       240.0004        202.0004
  22829474.4844     116860.05849     95652.59146  22829473.7344   22829477.4774
       224.0004        178.0004
  22661427.4754   -3554203.04649  -2745660.75246  22661428.0704   22661432.0494
       227.0004        182.0004
  23950240.1744   -3221704.15349  -2475512.50745  23950239.9244   23950244.4144
       216.0004        153.0004
 07  2 18  1 29 30.0000000  0  8G 1G18G 3G14G22G19G31G11
  21418901.1454   -2454839.77849  -1600467.82647  21418900.8144   21418906.5974
       239.0004        201.0004
  23541551.5384     824522.14949    642269.37045  23541550.6444   23541556.3754
       214.0004        154.0004
  23969924.7884    1201753.57049    933937.60045  23969924.2974   23969931.1714
       213.0004        152.0004
  20455343.1294    -296051.04049   -222799.20447  20455342.7314   20455347.0614
       238.0004        212.0004
  21384805.1134     -59824.47049    -41843.07047  21384805.2074   21384807.9524
       240.0004        202.0004
  22830826.0044     123962.28449    101186.78246  22830825.7684   22830829.0214
       224.0004        178.0004
  22658402.7214   -3570098.18349  -2758046.56646  22658403.1644   22658407.3964
       227.0004        182.0004
  23947376.2494   -3236754.21849  -2487239.82645  23947375.6474   23947380.2214
       213.0004        153.0004
 07  2 18  1 29 35.0000000  0  8G 1G18G 3G14G22G19G31G11
  21417253.2584   -2463499.56949  -1607215.71247  21417252.9444   21417258.9354
       239.0004        201.0004
  23543572.4484     835142.09349    650544.65245  23543571.1254   23543577.0574
       213.0004        154.0004
  23972375.8884    1214634.12049    943974.38045  23972376.2094   23972382.0854
       214.0004        152.0004
  20456193.6774    -291581.39449   -219316.36047  20456193.2724   20456197.6304
       238.0004        212.0004
  21385823.9474     -54470.54549    -37671.17647  21385823.7824   21385826.6254
       240.0004        202.0004
  22832179.7404     131076.03649    106729.96646  22832179.1214   22832183.5364
       224.0004        178.0004
  22655379.0644   -3585987.61949  -2770427.93646  22655379.8474   22655384.0994
       227.0004        182.0004
  23944513.5154   -3251798.06849  -2498962.29245  23944513.1684   23944517.9054
       215.0004        153.0004
 07  2 18  1 29 40.0000000  0  8G 1G18G 3G14G22G19G31G11
  21415607.3504   -2472148.75649  -1613955.33447  21415607.1144   21415612.8514
       239.0004        201.0004
  23545593.9564     845765.25449    658822.44245  23545592.7754   23545597.8454
       213.0004        153.0004
  23974827.4494    1227517.03249    954013.01945  23974827.2224   23974834.4454
       214.0004        152.0004
  20457046.2324    -287101.23349   -215825.32647  20457045.8824   20457050.2214
       238.0004        212.0004
  21386843.6224     -49112.06749    -33495.74047  21386843.8264   21386846.4544
       239.0004        202.0004
  22833535.6804     138201.41749    112282.20846  22833534.7234   22833539.6424
       224.0004        178.0004
  22652356.5284   -3601871.20849  -2782804.75446  22652356.5004   22652361.3784
       226.0004        183.0004
  23941652.0034   -3266835.61949  -2510679.85645  23941651.7094   23941656.6484
       213.0004        153.0004
 07  2 18  1 29 45.0000000  0  8G 1G18G 3G14G22G19G31G11
  21413963.4604   -2480787.54549  -1620686.85247  21413963.1124   21413969.0274
       239.0004        201.0004
  23547616.0604     856391.52749    667102.65245  23547615.0554   23547620.0374
       209.0004        153.0004
  23977279.3794    1240402.05049    964053.27445  23977278.8354   23977286.3224
       213.0004        152.0004
  20457900.7514    -282610.81449   -212326.29547  20457900.2304   20457904.8174
       238.0004        212.0004
  21387864.1404     -43749.26649    -29316.93247  21387864.3504   21387866.8854
       239.0004        202.0004
  22834893.7914     145338.23649    117843.36746  22834892.6634   22834897.0044
       224.0004        178.0004
  22649335.0494   -3617749.12249  -2795177.14146  22649334.9524   22649339.8224
       226.0004        183.0004
  23938791.6144   -3281866.97249  -2522392.58345  23938791.5994   23938796.3934
       213.0004        153.0004
 07  2 18  1 29 50.0000000  0  8G 1G18G 3G14G22G19G31G11
  21412321.6024   -2489415.57549  -1627409.98547  21412321.0894   21412327.2344
       239.0004        201.0004
  23549638.7954     867021.28049    675385.58745  23549638.1454   23549643.0404
       209.0004        153.0004
  23979731.8124    1253289.60649    974095.51845  23979732.1874   23979738.4054
       214.0004        152.0004
  20458757.2724    -278109.77249   -208818.99147  20458756.8274   20458761.0774
       238.0004        212.0004
  21388885.5244     -38381.82949    -25134.50147  21388885.8024   21388888.1724
       240.0004        202.0004
  22836254.1394     152486.81949    123413.69946  22836253.2114   22836257.2154
       225.0004        178.0004
  22646314.6854   -3633620.98749  -2807544.81846  22646315.1424   22646319.8424
       228.0004        183.0004
  23935932.5054   -3296891.79149  -2534100.22245  23935931.9094   23935936.7514
       216.0004        153.0004
 07  2 18  1 29 55.0000000  0  8G 1G18G 3G14G22G19G31G11
  21410681.7674   -2498032.96949  -1634124.83247  21410681.4044   21410687.1914
       239.0004        201.0004
  23551662.1974     877654.42349    683671.17145  23551660.3354   23551667.5024
       211.0004        152.0004
  23982184.7094    1266179.51849    984139.60245  23982184.5794   23982190.7804
       214.0004        152.0004
  20459615.7824    -273598.27149   -205303.53047  20459615.4634   20459619.6454
       238.0004        212.0004
  21389907.7724     -33009.86949    -20948.56047  21389908.0954   21389910.7044
       240.0004        202.0004
  22837616.6864     159647.01549    128993.07546  22837615.9474   22837619.3144
       224.0004        179.0004
  22643295.4984   -3649486.89949  -2819907.86646  22643295.9624   22643300.0154
       228.0004        183.0004
  23933074.6064   -3311910.22649  -2545802.88545  23933074.0484   23933079.0954
       216.0004        153.0004
 07  2 18  1 30  0.0000000  0  8G 1G18G 3G14G22G19G31G11
  21409043.9424   -2506639.74949  -1640831.41447  21409043.7274   21409049.3794
       239.0004        201.0004
  23553686.2074     888290.86949    691959.30445  23553685.5234   23553691.1034
       209.0004        151.0004
  23984638.0224    1279071.77349    994185.51145  23984637.8114   23984644.7934
       216.0004        152.0004
  20460476.2774    -269076.35749   -201779.95947  20460476.0174   20460480.2214
       238.0004        212.0004
  21390930.9034     -27633.35549    -16759.06747  21390931.0474   21390933.7974
       240.0004        202.0004
  22838981.4524     166818.83249    134581.49846  22838980.8134   22838984.5934
       224.0004        179.0004
  22640277.4174   -3665346.87649  -2832266.28246  22640277.5924   22640282.4244
       228.0004        183.0004
  23930217.9034   -3326922.27849  -2557500.58545  23930217.2354   23930222.5194
       216.0004        154.0004
 07  2 18  1 30  5.0000000  0  8G 1G18G 3G14G22G19G31G11
  21407408.1584   -2515235.75249  -1647529.59247  21407407.7604   21407413.5664
       239.0004        201.0004
  23555710.8794     898930.68149    700250.07045  23555709.9914   23555715.3484
       210.0004        151.0004
  23987091.8054    1291966.51349   1004233.36145  23987090.9234   23987098.4224
       214.0004        152.0004
  20461338.7944    -264543.81649   -198248.11247  20461338.3704   20461342.8964
       238.0004        212.0004
  21391954.9204     -22252.13049    -12565.90947  21391954.8984   21391957.8964
       240.0004        202.0004
  22840348.4304     174002.37749    140179.06046  22840347.5364   22840352.1914
       224.0004        179.0004
  22637260.4934   -3681200.77849  -2844619.96346  22637260.7504   22637265.3034
       226.0004        183.0004
  23927362.4304   -3341927.78049  -2569193.18145  23927361.7724   23927366.7834
       216.0004        154.0004
 07  2 18  1 30 10.0000000  0  8G 1G18G 3G14G22G19G31G11
  21405774.3674   -2523821.44649  -1654219.74447  21405774.0714   21405779.7644
       239.0004        201.0004
  23557736.1374     909573.49749    708543.14745  23557736.4384   23557740.5164
       214.0004        151.0004
  23989545.9904    1304863.22349   1014282.74045  23989545.8934   23989552.0804
       214.0004        152.0004
  20462203.2264    -260001.15249   -194708.37047  20462202.9124   20462207.2964
       238.0004        212.0004
  21392979.7534     -16866.69549     -8369.46447  21392979.6484   21392982.4174
       240.0004        202.0004
  22841717.5574     181197.20049    145785.41446  22841716.8984   22841720.8764
       225.0004        179.0004
  22634244.6754   -3697049.01649  -2856969.21746  22634245.0184   22634249.3984
       228.0004        183.0004
  23924508.1494   -3356927.15449  -2580880.99345  23924507.8384   23924512.6554
       214.0004        154.0004
 07  2 18  1 30 15.0000000  0  8G 1G18G 3G14G22G19G31G11
  21404142.6094   -2532396.40949  -1660901.53047  21404142.3614   21404148.1044
       239.0004        202.0004
  23559762.0604     920219.74249    716838.92345  23559761.9264   23559766.5574
       214.0004        151.0004
  23992000.6154    1317762.35249   1024334.00645  23992001.5234   23992007.2884
       215.0004        152.0004
  20463069.6594    -255447.98049   -191160.44347  20463069.4324   20463073.6744
       238.0004        212.0004
  21394005.4644     -11476.59349     -4169.39147  21394005.4484   21394008.1224
       239.0004        202.0004
  22843088.9144     188403.72449    151400.88446  22843088.5994   22843092.3124
       224.0004        179.0004
  22631229.9974   -3712891.16149  -2869313.74546  22631230.1854   22631235.2904
       227.0004        183.0004
  23921655.1154   -3371919.99649  -2592563.72345  23921655.2834   23921658.7984
       215.0004        154.0004
 07  2 18  1 30 20.0000000  0  8G 1G18G 3G14G22G19G31G11
  21402512.8844   -2540960.58649  -1667574.90747  21402512.6894   21402518.4124
       239.0004        202.0004
  23561788.6594     930869.51349    725137.45645  23561787.7744   23561794.4804
       213.0004        151.0004
  23994455.7014    1330663.93149   1034387.17845  23994456.0744   23994462.2674
       215.0004        152.0004
  20463938.1204    -250884.20549   -187604.25347  20463937.9914   20463941.9444
       238.0004        212.0004
  21395032.0644      -6081.78649        34.36147  21395032.0874   21395034.5564
       240.0004        202.0004
  22844462.5184     195621.97649    157025.49746  22844461.3484   22844465.9004
       224.0004        179.0004
  22628216.4864   -3728727.13149  -2881653.45246  22628216.2224   22628221.1304
       228.0004        183.0004
  23918803.3564   -3386906.19749  -2604241.27445  23918803.1474   23918806.8084
       216.0004        154.0004
 07  2 18  1 30 25.0000000  0  8G 1G18G 3G14G22G19G31G11
  21400885.1924   -2549514.29649  -1674240.13747  21400885.0564   21400890.8414
       239.0004        202.0004
  23563815.8734     941522.41949    733438.41945  23563814.3414   23563821.3134
       210.0004        152.0004
  23996911.2114    1343567.66549   1044442.03445  23996912.1834   23996917.5604
       214.0004        152.0004
  20464808.5134    -246310.16249   -184040.06747  20464808.2284   20464812.6024
       238.0004        212.0004
  21396059.4844       -682.59449      4241.51947  21396059.7164   21396062.0294
       240.0004        201.0004
  22845838.2784     202851.60149    162658.97746  22845837.7564   22845841.4124
       224.0004        179.0004
  22625204.0954   -3744557.22249  -2893988.58246  22625204.3574   22625209.5824
       228.0004        183.0004
  23915952.7734   -3401886.08449  -2615913.91345  23915952.9304   23915956.3314
       216.0004        153.0004
 07  2 18  1 30 30.0000000  0  8G 1G18G 3G14G22G19G31G11
  21399259.4534   -2558057.49349  -1680897.16747  21399259.2814   21399264.8804
       239.0004        202.0004
  23565843.6744     952178.57049    741741.90345  23565843.1264   23565848.8894
       213.0004        152.0004
  23999367.1504    1356473.55649   1054498.57445  23999366.9144   23999373.8534
       213.0004        152.0004
  20465680.9034    -241725.80949   -180467.83847  20465680.4744   20465684.7644
       238.0004        212.0004
  21397087.7504       4721.00649      8452.12147  21397087.7644   21397090.3534
       240.0004        201.0004
  22847216.2184     210092.65249    168301.34546  22847215.6924   22847219.9384
       225.0004        179.0004
  22622192.8504   -3760381.41249  -2906319.11346  22622193.0624   22622197.7674
       229.0004        183.0004
  23913103.4144   -3416859.64949  -2627581.62745  23913103.0134   23913107.6544
       215.0004        154.0004
 07  2 18  1 30 35.0000000  0  8G 1G18G 3G14G22G19G31G11
  21397635.7644   -2566590.02549  -1687545.88947  21397635.2154   21397641.3394
       239.0004        202.0004
  23567872.0834     962838.07149    750048.00745  23567871.9724   23567876.5394
       214.0004        152.0004
  24001823.4724    1369381.74849   1064556.90445  24001822.8744   24001830.0094
       213.0004        152.0004
  20466555.2514    -237131.02049   -176887.48247  20466554.9994   20466559.1104
       238.0004        212.0004
  21398116.9054      10129.19449     12666.29247  21398116.8624   21398119.8454
       239.0004        201.0004
  22848596.3504     217345.24649    173952.72346  22848596.3264   22848599.6754
       224.0004        179.0004
  22619182.7644   -3776199.49649  -2918644.88246  22619183.1454   22619187.6064
       229.0004        183.0004
  23910255.2534   -3431826.68849  -2639244.23845  23910255.2254   23910259.2214
       216.0004        154.0004
 07  2 18  1 30 40.0000000  0  8G 1G18G 3G14G22G19G31G11
  21396014.1104   -2575111.99649  -1694186.38247  21396013.7584   21396019.8034
       239.0004        202.0004
  23569901.1284     973500.85249    758356.67145  23569900.7874   23569905.1524
       214.0004        152.0004
  24004280.1934    1382292.09249   1074616.90645  24004280.2434   24004286.2894
       214.0004        152.0004
  20467431.6014    -232525.85449   -173299.04047  20467431.2924   20467435.5744
       238.0004        212.0004
  21399146.9084      15541.87949     16883.97247  21399146.8294   21399149.4134
       239.0004        201.0004
  22849978.6694     224609.29249    179613.01646  22849978.0094   22849981.8804
       224.0004        179.0004
  22616173.8264   -3792011.61049  -2930966.00046  22616174.8184   22616178.3914
       229.0004        183.0004
  23907408.3584   -3446787.29249  -2650901.84145  23907408.0664   23907412.4364
       214.0004        154.0004
 07  2 18  1 30 45.0000000  0  8G 1G18G 3G14G22G19G31G11
  21394394.4664   -2583623.22549  -1700818.50447  21394394.0994   21394400.1624
       239.0004        202.0004
  23571930.8504     984167.12949    766668.06445  23571930.5024   23571935.0604
       213.0004        152.0004
  24006737.3644    1395204.81649   1084678.76745  24006737.2224   24006743.5884
       214.0004        151.0004
  20468309.9274    -227910.18149   -169702.40947  20468309.5344   20468313.9114
       238.0004        212.0004
  21400177.7884      20959.20949     21105.26747  21400177.5754   21400180.5294
       239.0004        201.0004
  22851363.2104     231884.99349    185282.38546  22851362.3614   22851366.5984
       224.0004        179.0004
  22613166.0534   -3807817.55249  -2943282.31346  22613166.5814   22613170.4344
       229.0004        183.0004
  23904562.7094   -3461741.29649  -2662554.30845  23904562.9454   23904567.3134
       215.0004        154.0004
 07  2 18  1 30 50.0000000  0  8G 1G18G 3G14G22G19G31G11
  21392776.8294   -2592123.99049  -1707442.47547  21392776.7794   21392782.5524
       239.0004        202.0004
  23573961.1284     994836.50749    774981.86845  23573960.4274   23573965.7604
       211.0004        152.0004
  24009194.9344    1408119.56849   1094742.20645  24009195.1604   24009202.1874
       214.0004        152.0004
  20469190.1984    -223284.29449   -166097.82247  20469189.9354   20469194.2334
       238.0004        212.0004
  21401209.5044      26380.94149     25329.99547  21401209.5814   21401212.1824
       240.0004        201.0004
  22852749.9004     239172.02549    190960.59646  22852749.6514   22852753.5654
       225.0004        179.0004
  22610159.4294   -3823617.58749  -2955594.02546  22610159.6924   22610163.9394
       229.0004        183.0004
  23901718.2464   -3476688.97749  -2674201.84345  23901718.3654   23901722.8274
       214.0004        154.0004
 07  2 18  1 30 55.0000000  0  8G 1G18G 3G14G22G19G31G11
  21391161.2124   -2600614.16749  -1714058.19747  21391161.1374   21391166.6884
       239.0004        202.0004
  23575992.0594    1005509.21449    783298.26545  23575991.3414   23575997.1894
       212.0004        152.0004
  24011652.9354    1421036.48149   1104807.32845  24011652.9794   24011660.0624
       214.0004        152.0004
  20470072.4244    -218648.06949   -162485.17847  20470072.1344   20470076.2424
       238.0004        212.0004
  21402242.0924      31807.17149     29558.22647  21402242.3064   21402244.5664
       240.0004        201.0004
  22854138.7484     246470.50049    196647.71146  22854138.4094   22854141.7774
       224.0004        179.0004
  22607153.9324   -3839411.57549  -2967901.02246  22607154.5434   22607158.5714
       229.0004        183.0004
  23898875.0584   -3491630.13749  -2685844.29045  23898874.4734   23898879.6954
       217.0004        154.0004
 07  2 18  1 31  0.0000000  0  8G 1G18G 3G14G22G19G31G11
  21389547.6064   -2609093.71849  -1720665.63147  21389547.2654   21389553.1864
       239.0004        202.0004
  23578023.6404    1016185.29349    791617.27445  23578023.0344   23578028.2224
       214.0004        152.0004
  24014111.3364    1433955.50949   1114874.10945  24014111.0374   24014118.2174
       215.0004        152.0004
  20470956.6484    -214001.46549   -158864.44547  20470956.4324   20470960.6534
       238.0004        212.0004
  21403275.5284      37237.93349     33789.99147  21403275.4814   21403278.3814
       240.0004        201.0004
  22855529.7994     253780.44949    202343.77646  22855529.4164   22855533.1934
       225.0004        179.0004
  22604149.6094   -3855199.48549  -2980203.28246  22604149.8434   22604153.7564
       228.0004        183.0004
  23896033.0814   -3506564.78649  -2697481.67245  23896032.7114   23896038.3504
       217.0004        154.0004
 07  2 18  1 31  5.0000000  0  8G 1G18G 3G14G22G19G31G11
  21387936.0704   -2617562.40549  -1727264.60747  21387935.8504   21387941.6174
       239.0004        202.0004
  23580055.9284    1026864.93049    799939.06745  23580055.5674   23580059.2864
       214.0004        152.0004
  24016570.2114    1446876.97049   1124942.77945  24016570.8044   24016576.3014
       215.0004        152.0004
  20471842.8964    -209344.26849   -155235.45947  20471842.5284   20471846.7464
       238.0004        212.0004
  21404309.8904      42673.48849     38025.48647  21404309.8854   21404312.7114
       240.0004        201.0004
  22856923.0534     261102.06949    208048.93646  22856922.8824   22856926.4054
       224.0004        179.0004
  22601146.4724   -3870981.04749  -2992500.60646  22601146.8524   22601151.0764
       228.0004        183.0004
  23893192.4244   -3521492.66349  -2709113.77945  23893192.1174   23893197.0704
       218.0004        154.0004
 07  2 18  1 31 10.0000000  0  8G 1G18G 3G14G22G19G31G11
  21386326.4814   -2626020.88849  -1733855.63147  21386326.1154   21386331.8774
       239.0004        202.0004
  23582088.7724    1037547.45349    808263.11445  23582087.5604   23582092.7574
       212.0004        151.0004
  24019029.4214    1459800.11349   1135012.75145  24019028.7424   24019035.8594
       215.0004        152.0004
  20472731.0164    -204677.14049   -151598.73547  20472730.7834   20472735.0064
       238.0004        212.0004
  21405345.0314      48113.21249     42264.23647  21405345.0384   21405347.7344
       239.0004        201.0004
  22858318.4504     268434.73949    213762.70346  22858317.4564   22858322.4384
       225.0004        179.0004
  22598144.4464   -3886756.89249  -3004793.46446  22598144.1304   22598149.5564
       228.0004        183.0004
  23890352.9084   -3536414.41149  -2720741.10145  23890352.5134   23890356.5564
       218.0004        154.0004
 07  2 18  1 31 15.0000000  0  8G 1G18G 3G14G22G19G31G11
  21384718.9484   -2634468.48149  -1740438.16547  21384718.2984   21384724.5264
       239.0004        202.0004
  23584122.2804    1048233.58349    816589.98045  23584121.9524   23584126.7594
       213.0004        151.0004
  24021489.0904    1472725.65949   1145084.60245  24021489.1994   24021495.8104
       215.0004        152.0004
  20473621.1554    -199999.41549   -147953.75347  20473620.8074   20473625.0514
       238.0004        212.0004
  21406381.0874      53557.74549     46506.73047  21406380.8814   21406383.8764
       239.0004        201.0004
  22859716.0224     275779.11749    219485.59946  22859715.4184   22859719.7594
       225.0004        179.0004
  22595143.5994   -3902526.35449  -3017081.35046  22595143.9274   22595147.9884
       228.0004        183.0004
  23887514.7114   -3551329.30049  -2732363.08445  23887513.9884   23887519.0424
       216.0004        155.0004
 07  2 18  1 31 20.0000000  0  8G 1G18G 3G14G22G19G31G11
  21383113.4274   -2642905.46349  -1747012.43247  21383113.1494   21383118.8714
       239.0004        202.0004
  23586156.4114    1058922.99649    824919.39445  23586156.9134   23586159.6064
       214.0004        151.0004
  24023949.1424    1485653.28349   1155158.07245  24023948.9964   24023956.0074
       215.0004        152.0004
  20474513.2594    -195311.38149   -144300.73747  20474512.9604   20474517.1704
       238.0004        212.0004
  21407418.0074      59006.80849     50752.75347  21407417.8934   21407420.8854
       239.0004        201.0004
  22861115.8044     283134.88549    225217.35946  22861115.0894   22861118.6494
       223.0004        179.0004
  22592143.9174   -3918289.67149  -3029364.44746  22592144.3844   22592148.4134
       227.0004        182.0004
  23884677.7634   -3566237.64749  -2743979.97045  23884677.6524   23884681.3404
       217.0004        155.0004
 07  2 18  1 31 25.0000000  0  8G 1G18G 3G14G22G19G31G11
  21381509.8684   -2651332.13849  -1753578.66647  21381509.4694   21381515.4654
       239.0004        202.0004
  23588191.1244    1069615.37949    833251.12245  23588190.5854   23588195.6224
       212.0004        151.0004
  24026409.5494    1498582.77149   1165232.99845  24026409.1834   24026416.1184
       215.0004        152.0004
  20475407.2674    -190613.33049   -140639.91547  20475406.9414   20475411.1674
       238.0004        212.0004
  21408455.7194      64460.10249     55002.07347  21408455.6254   21408458.3414
       239.0004        201.0004
  22862517.6714     290501.79649    230957.80846  22862516.7094   22862520.7304
       224.0004        179.0004
  22589145.3264   -3934047.14249  -3041642.99046  22589145.4404   22589149.6334
       227.0004        182.0004
  23881841.9634   -3581139.71149  -2755591.96145  23881841.7654   23881845.8694
       216.0004        154.0004
 07  2 18  1 31 30.0000000  0  8G 1G18G 3G14G22G19G31G11
  21379908.4084   -2659747.94449  -1760136.43647  21379908.0384   21379914.1054
       238.0004        202.0004
  23590226.4854    1080311.38049    841585.68145  23590225.6074   23590230.5684
       213.0004        151.0004
  24028870.4094    1511514.58649   1175309.72745  24028870.5094   24028877.0074
       215.0004        152.0004
  20476303.2834    -185904.74149   -136970.88347  20476302.9904   20476307.3354
       238.0004        212.0004
  21409494.3634      69918.21249     59255.14847  21409494.4354   21409497.1364
       239.0004        201.0004
  22863921.7514     297880.35349    236707.33546  22863920.5474   22863925.2194
       224.0004        179.0004
  22586147.9884   -3949798.20049  -3053916.53646  22586147.6654   22586151.9314
       227.0004        182.0004
  23879007.4904   -3596034.99049  -2767198.67545  23879007.5274   23879011.3034
       215.0004        154.0004
 07  2 18  1 31 35.0000000  0  8G 1G18G 3G14G22G19G31G11
  21378308.9454   -2668153.09749  -1766685.90147  21378308.5854   21378314.1604
       239.0004        202.0004
  23592262.5164    1091010.73749    849922.84145  23592261.7374   23592266.9964
       215.0004        152.0004
  24031331.6764    1524448.50549   1185388.10345  24031331.6854   24031338.7094
       214.0004        152.0004
  20477201.2744    -181185.80949   -133293.79147  20477200.8094   20477205.0674
       238.0004        212.0004
  21410533.8914      75380.92049     63511.80547  21410533.9064   21410536.5534
       239.0004        201.0004
  22865328.0004     305270.30749    242465.74046  22865327.1434   22865331.4884
       224.0004        179.0004
  22583151.8204   -3965543.06149  -3066185.24446  22583152.2594   22583156.5834
       228.0004        182.0004
  23876174.2914   -3610923.60249  -2778800.18945  23876173.7994   23876178.7664
       214.0004        154.0004
 07  2 18  1 31 40.0000000  0  8G 1G18G 3G14G22G19G31G11
  21376711.4824   -2676547.76249  -1773227.19147  21376711.0214   21376716.9444
       239.0004        202.0004
  23594299.1144    1101713.26949    858262.46845  23594298.6774   23594303.9574
       216.0004        153.0004
  24033793.2554    1537384.28949   1195467.92645  24033792.4124   24033800.1444
       214.0004        151.0004
  20478101.1694    -176456.71949   -129608.78247  20478100.9964   20478105.0494
       238.0004        212.0004
  21411574.2494      80848.03849     67771.89647  21411574.0964   21411576.9054
       240.0004        201.0004
  22866736.3864     312671.50449    248232.91046  22866735.1494   22866739.3184
       223.0004        179.0004
  22580156.7964   -3981281.85549  -3078449.24246  22580156.9434   22580161.4684
       227.0004        182.0004
  23873342.3004   -3625805.75149  -2790396.65745  23873341.7194   23873345.5584
       214.0004        154.0004
 07  2 18  1 31 45.0000000  0  8G 1G18G 3G14G22G19G31G11
  21375116.0854   -2684931.72049  -1779760.14447  21375116.0054   21375121.4314
       239.0004        202.0004
  23596336.3964    1112419.24349    866604.77945  23596336.4264   23596341.0644
       215.0004        153.0004
  24036255.2664    1550322.22349   1205549.43445  24036255.2974   24036262.1614
       215.0004        151.0004
  20479003.0794    -171717.24249   -125915.68247  20479002.7714   20479007.0844
       238.0004        212.0004
  21412615.5004      86319.81249     72035.61747  21412615.5754   21412618.0594
       240.0004        201.0004
  22868146.9424     320084.14049    254008.97646  22868146.6614   22868150.8304
       225.0004        178.0004
  22577162.9774   -3997014.35649  -3090708.31746  22577163.1854   22577167.8444
       228.0004        182.0004
  23870511.5504   -3640681.22249  -2801987.92845  23870511.0194   23870514.2794
       214.0004        154.0004
 07  2 18  1 31 50.0000000  0  8G 1G18G 3G14G22G19G31G11
  21373522.7184   -2693304.96449  -1786284.74847  21373522.6084   21373528.5054
       239.0004        202.0004
  23598374.3444    1123128.63149    874949.75145  23598374.1764   23598378.5164
       211.0004        152.0004
  24038717.6594    1563262.29649   1215632.60445  24038717.9724   24038724.4704
       215.0004        151.0004
  20479906.9424    -166967.40949   -122214.51547  20479906.6164   20479910.9004
       238.0004        212.0004
  21413657.6234      91796.21049     76302.93947  21413657.8334   21413660.6114
       240.0004        201.0004
  22869559.6734     327508.24949    259793.99846  22869559.2544   22869563.1024
       225.0004        178.0004
  22574170.3894   -4012740.52449  -3102962.47146  22574170.3574   22574175.4184
       227.0004        182.0004
  23867682.1084   -3655549.98049  -2813573.96845  23867681.2784   23867685.9054
       214.0004        154.0004
 07  2 18  1 31 55.0000000  0  8G 1G18G 3G14G22G19G31G11
  21371931.3874   -2701667.57249  -1792801.06347  21371931.4004   21371937.0914
       240.0004        202.0004
  23600412.8904    1133841.37949    883297.34345  23600412.1054   23600416.9864
       212.0004        152.0004
  24041180.4764    1576204.40849   1225717.36745  24041180.1074   24041187.4444
       215.0004        151.0004
  20480812.7774    -162207.27149   -118505.31447  20480812.4094   20480816.7034
       238.0004        212.0004
  21414700.6324      97277.17649     80573.82947  21414700.5114   21414703.3144
       241.0004        201.0004
  22870974.6254     334943.73849    265587.88146  22870974.1544   22870977.8504
       225.0004        178.0004
  22571178.9914   -4028460.39949  -3115211.71646  22571179.3584   22571184.1654
       228.0004        183.0004
  23864853.9344   -3670412.00849  -2825154.75645  23864853.1564   23864858.1614
       213.0004        154.0004
 07  2 18  1 32  0.0000000  0  8G 1G18G 3G14G22G19G31G11
  21370341.9914   -2710019.82849  -1799309.30747  21370341.7504   21370347.2934
       239.0004        202.0004
  23602452.0364    1144557.22049    891647.35345  23602451.5934   23602456.2864
       211.0004        152.0004
  24043643.6174    1589148.31549   1235803.53245  24043643.3524   24043648.8414
       215.0004        151.0004
  20481720.4994    -157437.14349   -114788.32847  20481720.0904   20481724.5864
       238.0004        212.0004
  21415744.4354     102762.45849     84848.07047  21415744.4794   21415747.3034
       240.0004        201.0004
  22872391.6534     342390.27849    271390.38446  22872391.1234   22872394.7474
       226.0004        178.0004
  22568188.7154   -4044174.28249  -3127456.28946  22568189.3184   22568193.8804
       228.0004        183.0004
  23862026.9564   -3685267.66949  -2836730.59745  23862026.6834   23862031.2014
       213.0004        153.0004
 07  2 18  1 32  5.0000000  0  8G 1G18G 3G14G22G19G31G11
  21368754.6644   -2718361.37349  -1805809.20947  21368754.2294   21368760.1234
       239.0004        202.0004
  23604491.8264    1155276.48349    900000.03845  23604491.5614   23604496.1034
       213.0004        152.0004
  24046107.1524    1602094.31949   1245891.32745  24046107.1964   24046112.7834
       216.0004        152.0004
  20482630.1684    -152656.69349   -111063.30147  20482629.8104   20482634.1994
       238.0004        212.0004
  21416789.1434     108252.40749     89125.95747  21416788.9264   21416791.9424
       240.0004        201.0004
  22873810.8924     349848.20249    277201.76046  22873810.3714   22873814.4514
       225.0004        179.0004
  22565199.6624   -4059881.82049  -3139695.92246  22565200.8674   22565204.4574
       229.0004        183.0004
  23859201.2854   -3700116.56649  -2848301.15845  23859200.5694   23859204.6244
       215.0004        153.0004
 07  2 18  1 32 10.0000000  0  8G 1G18G 3G14G22G19G31G11
  21367169.3634   -2726692.17449  -1812300.74147  21367169.0774   21367175.1694
       239.0004        202.0004
  23606532.2764    1165999.19649    908355.40345  23606532.1584   23606537.2294
       212.0004        152.0004
  24048571.1004    1615042.42049   1255980.75345  24048570.8614   24048577.5574
       217.0004        152.0004
  20483541.8414    -147865.85949   -107330.18147  20483541.4494   20483545.7564
       238.0004        212.0004
  21417834.7584     113747.04649     93407.49447  21417834.6924   21417837.5884
       240.0004        201.0004
  22875232.2874     357317.57249    283022.03646  22875231.4474   22875235.6354
       225.0004        179.0004
  22562211.8234   -4075582.91949  -3151930.53746  22562212.7154   22562216.7274
       229.0004        183.0004
  23856376.9214   -3714958.63749  -2859866.40245  23856376.3744   23856381.1654
       214.0004        153.0004
 07  2 18  1 32 15.0000000  0  8G 1G18G 3G14G22G19G31G11
  21365586.0894   -2735012.37849  -1818784.01047  21365585.7834   21365591.5134
       238.0004        202.0004
  23608573.3874    1176725.33749    916713.43845  23608572.8154   23608578.0884
       212.0004        152.0004
  24051035.4534    1627992.50949   1266071.73145  24051035.5154   24051042.1744
       217.0004        152.0004
  20484455.4594    -143064.78449   -103589.08047  20484455.1574   20484459.3684
       238.0004        212.0004
  21418881.1964     119246.23649     97692.57947  21418881.0274   21418884.0094
       240.0004        201.0004
  22876655.8214     364798.20949    288851.10146  22876655.0714   22876659.3814
       224.0004        179.0004
  22559225.1964   -4091277.76649  -3164160.28646  22559225.9134   22559229.6884
       229.0004        184.0004
  23853553.8094   -3729794.12349  -2871426.51345  23853552.7194   23853557.6974
       214.0004        153.0004
 07  2 18  1 32 20.0000000  0  8G 1G18G 3G14G22G19G31G11
  21364004.8024   -2743322.13449  -1825259.14147  21364004.6174   21364010.1014
       239.0004        202.0004
  23610615.0894    1187454.63149    925073.91545  23610614.0124   23610620.1724
       211.0004        152.0004
  24053500.1304    1640944.34149   1276164.07145  24053500.4984   24053506.7574
       217.0004        152.0004
  20485370.9764    -138253.67949    -99840.16747  20485370.4834   20485374.7884
       238.0004        212.0004
  21419928.4724     124749.79349    101981.06747  21419928.5924   21419931.3234
       240.0004        201.0004
  22878081.4564     372289.96349    294688.83946  22878080.6444   22878085.3924
       223.0004        179.0004
  22556239.7284   -4106966.50549  -3176385.27046  22556240.5804   22556245.0184
       229.0004        184.0004
  23850731.9554   -3744623.10449  -2882981.56245  23850731.6424   23850736.6204
       212.0004        153.0004
 07  2 18  1 32 25.0000000  0  8G 1G18G 3G14G22G19G31G11
  21362425.5334   -2751621.11149  -1831725.87147  21362425.1314   21362430.9564
       239.0004        202.0004
  23612657.4394    1198187.33049    933437.05445  23612656.8584   23612661.7614
       215.0004        153.0004
  24055965.2214    1653898.33449   1286258.09145  24055964.9724   24055971.9724
       214.0004        152.0004
  20486288.4554    -133432.19249    -96083.16547  20486288.1184   20486292.5744
       238.0004        212.0004
  21420976.6834     130258.10049    106273.25047  21420976.6364   21420979.7134
       239.0004        201.0004
  22879509.2644     379793.13349    300535.45646  22879508.4964   22879512.4884
       222.0004        178.0004
  22553255.5014   -4122648.75849  -3188605.20346  22553255.4564   22553260.2734
       230.0004        184.0004
  23847911.4074   -3759445.18149  -2894531.22245  23847910.9254   23847915.4744
       212.0004        153.0004
 07  2 18  1 32 30.0000000  0  8G 1G18G 3G14G22G19G31G11
  21360848.2674   -2759909.68749  -1838184.49847  21360847.8334   21360853.7114
       239.0004        202.0004
  23614700.3894    1208923.13349    941802.62145  23614700.6634   23614705.1774
       215.0004        153.0004
  24058430.6474    1666854.02449   1296353.42445  24058430.2554   24058437.7664
       215.0004        152.0004
  20487207.8584    -128600.73449    -92318.38947  20487207.4614   20487211.7174
       239.0004        212.0004
  21422025.7144     135770.74449    110568.81947  21422025.6704   21422028.4344
       240.0004        201.0004
  22880939.1604     387307.37149    306390.70746  22880938.5964   22880942.9214
       223.0004        178.0004
  22550272.4674   -4138324.89749  -3200820.36846  22550272.8214   22550277.3764
       230.0004        184.0004
  23845092.0794   -3774260.78849  -2906075.84345  23845092.0364   23845095.4464
       215.0004        152.0004
 07  2 18  1 32 35.0000000  0  8G 1G18G 3G14G22G19G31G11
  21359273.0204   -2768187.65449  -1844634.85647  21359272.8434   21359278.6274
       239.0004        202.0004
  23616744.0014    1219662.27349    950170.78145  23616743.6594   23616749.1164
       217.0004        154.0004
  24060896.4034    1679811.59549   1306450.22545  24060896.9784   24060903.3964
       216.0004        152.0004
  20488129.1874    -123759.10449    -88545.68847  20488128.7244   20488133.1274
       238.0004        212.0004
  21423075.5944     141287.93549    114867.93147  21423075.3944   21423078.3224
       239.0004        201.0004
  22882371.1914     394832.84849    312254.71946  22882370.5544   22882374.8444
       223.0004        178.0004
  22547290.6204   -4153994.68249  -3213030.58546  22547290.8454   22547295.3964
       230.0004        184.0004
  23842274.0174   -3789069.68649  -2917615.23745  23842273.4184   23842278.3624
       212.0004        152.0004
 07  2 18  1 32 40.0000000  0  8G 1G18G 3G14G22G19G31G11
  21357699.8584   -2776454.61849  -1851076.64747  21357699.6524   21357705.3604
       239.0004        202.0004
  23618788.3384    1230405.12949    958541.82945  23618788.5434   23618793.8654
       218.0004        155.0004
  24063362.5754    1692771.41349   1316548.78345  24063362.8614   24063369.7504
       216.0004        152.0004
  20489052.5174    -118906.90849    -84764.75547  20489052.2644   20489056.4794
       238.0004        212.0004
  21424126.4294     146810.07149    119170.89147  21424126.6164   21424129.3194
       240.0004        201.0004
  22883805.4604     402369.94849    318127.77546  22883804.4924   22883808.4734
       223.0004        178.0004
  22544310.0384   -4169657.73349  -3225235.55546  22544310.6684   22544314.4344
       229.0004        184.0004
  23839457.3284   -3803871.42349  -2929149.05045  23839456.4184   23839462.2254
       213.0004        152.0004
 07  2 18  1 32 45.0000000  0  8G 1G18G 3G14G22G19G31G11
  21356128.7024   -2784711.24849  -1857510.37947  21356128.2304   21356134.1024
       239.0004        202.0004
  23620833.2514    1241151.03949    966915.26645  23620833.3374   23620838.4624
       216.0004        156.0004
  24065829.0804    1705732.89549   1326648.63345  24065828.3244   24065835.4784
       216.0004        152.0004
  20489977.7534    -114044.83649    -80976.12747  20489977.5144   20489981.6154
       238.0004        212.0004
  21425178.0604     152336.48049    123477.18547  21425178.1084   21425180.7544
       240.0004        201.0004
  22885241.8074     409917.98149    324009.36746  22885241.3674   22885245.0964
       223.0004        178.0004
  22541330.6324   -4185314.70149  -3237435.78146  22541330.9414   22541335.4924
       229.0004        184.0004
  23836641.8694   -3818666.73649  -2940677.85745  23836641.0074   23836646.0834
       214.0004        152.0004
 07  2 18  1 32 50.0000000  0  8G 1G18G 3G14G22G19G31G11
  21354559.5474   -2792957.20749  -1863935.79847  21354559.3264   21354565.1964
       239.0004        202.0004
  23622878.7844    1251900.30749    975291.32445  23622878.7014   23622883.3444
       215.0004        156.0004
  24068295.9214    1718696.30849   1336749.99245  24068295.8264   24068302.4764
       216.0004        152.0004
  20490904.9004    -109172.55649    -77179.54347  20490904.6824   20490908.7334
       239.0004        212.0004
  21426230.5694     157867.47849    127787.05347  21426230.4094   21426233.1824
       240.0004        201.0004
  22886680.2954     417477.26849    329899.71146  22886679.5614   22886683.9164
       223.0004        178.0004
  22538352.4264   -4200965.22249  -3249630.98746  22538352.1734   22538357.0574
       229.0004        184.0004
  23833827.6814   -3833455.25649  -2952201.37445  23833827.2754   23833831.6374
       214.0004        152.0004
 07  2 18  1 32 55.0000000  0  8G 1G18G 3G14G22G19G31G11
  21352992.3754   -2801192.80749  -1870353.14047  21352991.8014   21352998.0544
       239.0004        202.0004
  23624924.9044    1262652.62849    983669.76945  23624924.5754   23624928.1584
       216.0004        156.0004
  24070763.0984    1731661.26749   1346852.55945  24070763.2974   24070769.0854
       215.0004        151.0004
  20491833.9664    -104290.36249    -73375.23347  20491833.8294   20491837.7364
       238.0004        212.0004
  21427283.9194     163402.79349    132100.29447  21427283.8204   21427286.4694
       240.0004        201.0004
  22888120.8654     425047.50349    335798.60746  22888119.8244   22888124.5974
       224.0004        178.0004
  22535375.3874   -4216609.58449  -3261821.38646  22535375.5344   22535380.0184
       229.0004        184.0004
  23831014.7084   -3848237.27349  -2963719.81845  23831014.4724   23831018.4764
       214.0004        152.0004
 07  2 18  1 33  0.0000000  0  8G 1G18G 3G14G22G19G31G11
  21351427.2844   -2809417.35849  -1876761.88447  21351427.0354   21351432.5734
       239.0004        202.0004
  23626971.7204    1273408.74049    992051.16345  23626971.8884   23626975.6604
       216.0004        156.0004
  24073230.6714    1744628.43749   1356956.84545  24073230.9794   24073237.2374
       216.0004        151.0004
  20492765.0524     -99397.56149    -69562.66347  20492764.8644   20492769.0614
       238.0004        212.0004
  21428338.2244     168943.10449    136417.41647  21428338.0704   21428340.7924
       239.0004        201.0004
  22889563.6784     432629.40149    341706.57046  22889562.2764   22889567.6324
       223.0004        178.0004
  22532399.6744   -4232247.08249  -3274006.45146  22532400.2744   22532404.5544
       229.0004        184.0004
  23828203.1504   -3863012.11749  -2975232.67945  23828201.6394   23828207.3774
       214.0004        152.0004
 07  2 18  1 33  5.0000000  0  8G 1G18G 3G14G22G19G31G11
  21349864.2064   -2817631.39449  -1883162.42647  21349863.8274   21349869.3714
       239.0004        202.0004
  23629019.1514    1284168.06649   1000435.05345  23629018.9314   23629023.4614
       217.0004        156.0004
  24075698.5884    1757597.34449   1367062.48245  24075698.0614   24075705.0634
       214.0004        151.0004
  20493698.0444     -94494.71349    -65742.25947  20493697.8484   20493701.9844
       239.0004        212.0004
  21429393.3614     174487.87149    140738.01647  21429393.4604   21429395.9604
       239.0004        201.0004
  22891008.5734     440222.36249    347623.15346  22891007.5754   22891011.8304
       222.0004        178.0004
  22529425.1524   -4247878.27049  -3286186.58746  22529425.0744   22529429.5614
       228.0004        184.0004
  23825392.8394   -3877780.28249  -2986740.33345  23825392.1644   23825396.9584
       213.0004        152.0004
 07  2 18  1 33 10.0000000  0  8G 1G18G 3G14G22G19G31G11
  21348303.1674   -2825834.62749  -1889554.55247  21348302.7784   21348308.6444
       238.0004        202.0004
  23631067.2744    1294930.89349   1008821.66945  23631067.3824   23631071.4254
       216.0004        156.0004
  24078166.8734    1770568.33049   1377169.75045  24078166.1624   24078172.6884
       213.0004        151.0004
  20494632.9844     -89581.56049    -61913.82647  20494632.6914   20494636.7194
       239.0004        212.0004
  21430449.3984     180037.39749    145062.32447  21430449.2694   21430451.9964
       239.0004        201.0004
  22892455.6104     447826.65949    353548.58346  22892454.6434   22892459.2484
       222.0004        178.0004
  22526451.8924   -4263502.84849  -3298361.58046  22526451.7624   22526456.4884
       229.0004        184.0004
  23822583.8454   -3892541.46549  -2998242.54445  23822583.0494   23822587.3294
       213.0004        152.0004
 07  2 18  1 33 15.0000000  0  8G 1G18G 3G14G22G19G31G11
  21346744.0994   -2834027.55449  -1895938.64647  21346743.6474   21346749.8454
       239.0004        202.0004
  23633115.9344    1305696.76449   1017210.65645  23633115.4454   23633120.0514
       217.0004        156.0004
  24080635.4364    1783540.82349   1387278.18545  24080634.3844   24080641.2764
       215.0004        150.0004
  20495569.7854     -84658.62149    -58077.76747  20495569.4824   20495573.5474
       238.0004        212.0004
  21431506.2364     185591.18349    149389.95047  21431506.2774   21431508.6444
       239.0004        201.0004
  22893904.6964     455441.81449    359482.46446  22893903.6904   22893908.2404
       223.0004        178.0004
  22523479.7694   -4279121.30649  -3310531.79746  22523479.8594   22523483.9594
       229.0004        184.0004
  23819776.1074   -3907296.16749  -3009739.70945  23819775.8224   23819780.7024
       214.0004        152.0004
 07  2 18  1 33 20.0000000  0  8G 1G18G 3G14G22G19G31G11
  21345187.1034   -2842209.58649  -1902314.25447  21345186.4654   21345192.4194
       239.0004        202.0004
  23635165.3194    1316466.24349   1025602.45245  23635164.9764   23635169.1554
       217.0004        156.0004
  24083104.3734    1796515.35449   1397388.21445  24083104.9134   24083110.6044
       216.0004        151.0004
  20496508.5654     -79725.33349    -54233.64647  20496508.3134   20496512.3734
       238.0004        212.0004
  21432564.0204     191149.83049    153721.36447  21432564.0054   21432566.7414
       240.0004        201.0004
  22895355.9724     463068.39249    365425.26146  22895354.8664   22895360.0124
       223.0004        178.0004
  22520508.9504   -4294733.00049  -3322696.74546  22520508.9464   22520513.4014
       228.0004        184.0004
  23816969.7274   -3922043.77649  -3021231.34845  23816969.1054   23816973.5874
       214.0004        152.0004
 07  2 18  1 33 25.0000000  0  8G 1G18G 3G14G22G19G31G11
  21343632.0874   -2850381.20349  -1908681.74547  21343631.8314   21343637.6094
       239.0004        202.0004
  23637215.2804    1327238.86349   1033996.70645  23637215.4964   23637219.1084
       216.0004        156.0004
  24085573.6374    1809491.44949   1407499.45745  24085573.0454   24085580.5504
       216.0004        150.0004
  20497449.2384     -74782.11849    -50381.78747  20497448.8214   20497453.1924
       239.0004        212.0004
  21433622.6084     196712.85649    158056.18447  21433622.5724   21433625.1554
       240.0004        201.0004
  22896809.3484     470705.91349    371376.56846  22896808.3794   22896812.5844
       223.0004        178.0004
  22517539.3314   -4310338.44349  -3334856.82546  22517539.4724   22517543.4464
       229.0004        184.0004
  23814164.5954   -3936784.71049  -3032717.78745  23814164.4574   23814168.4924
       213.0004        152.0004
 07  2 18  1 33 30.0000000  0  8G 1G18G 3G14G22G19G31G11
  21342079.0364   -2858542.37949  -1915041.10047  21342078.8164   21342084.4184
       239.0004        202.0004
  23639265.8694    1338014.67949   1042393.44945  23639265.6274   23639269.1654
       217.0004        156.0004
  24088043.1834    1822469.11949   1417611.92445  24088042.6754   24088049.8184
       216.0004        150.0004
  20498391.7894     -69828.95049    -46522.17547  20498391.4894   20498395.7914
       238.0004        212.0004
  21434682.0824     202280.29149    162394.45047  21434682.2184   21434684.6554
       239.0004        201.0004
  22898264.8224     478354.39349    377336.41746  22898264.3214   22898268.2084
       223.0004        178.0004
  22514570.9064   -4325937.55849  -3347011.97346  22514570.7774   22514575.4744
       230.0004        183.0004
  23811360.7134   -3951519.03249  -3044199.07345  23811360.4984   23811364.6404
       211.0004        152.0004
 07  2 18  1 33 35.0000000  0  8G 1G18G 3G14G22G19G31G11
  21340528.0894   -2866692.75349  -1921392.03447  21340527.4504   21340533.5124
       238.0004        202.0004
  23641317.1104    1348794.02949   1050792.94845  23641316.8674   23641321.4064
       215.0004        155.0004
  24090513.1504    1835448.76349   1427725.92045  24090512.6054   24090518.2354
       215.0004        150.0004
  20499336.3114     -64865.51949    -42654.56047  20499336.1054   20499340.2034
       237.0004        212.0004
  21435742.4314     207852.46849    166736.41047  21435742.2544   21435745.0594
       239.0004        201.0004
  22899722.4434     486014.17849    383305.08546  22899721.9724   22899725.6164
       222.0004        178.0004
  22511603.7644   -4341529.97949  -3359161.90546  22511603.7914   22511607.9684
       229.0004        183.0004
  23808558.1894   -3966246.35249  -3055674.90045  23808558.4284   23808562.6814
       213.0004        151.0004
 07  2 18  1 33 40.0000000  0  8G 1G18G 3G14G22G19G31G11
  21338979.1584   -2874832.39449  -1927734.60747  21338978.6924   21338984.6784
       239.0004        202.0004
  23643368.9594    1359576.83849   1059195.14845  23643367.4774   23643372.8664
       214.0004        155.0004
  24092983.4704    1848430.19749   1437841.32245  24092984.0044   24092989.4854
       215.0004        150.0004
  20500282.7544     -59891.90749    -38779.01947  20500282.3104   20500286.6484
       238.0004        212.0004
  21436803.6774     213429.34249    171082.02247  21436803.5804   21436806.3914
       240.0004        201.0004
  22901182.2024     493685.17449    389282.48846  22901181.0024   22901185.4274
       223.0004        177.0004
  22508637.9044   -4357115.76449  -3371306.66346  22508637.7344   22508642.1074
       230.0004        184.0004
  23805756.9704   -3980966.65149  -3067145.25245  23805756.8974   23805760.6634
       212.0004        151.0004
 07  2 18  1 33 45.0000000  0  8G 1G18G 3G14G22G19G31G11
  21337432.2184   -2882961.49549  -1934068.96947  21337431.8234   21337437.4324
       238.0004        202.0004
  23645421.4554    1370362.93549   1067599.89845  23645420.4564   23645426.6774
       216.0004        155.0004
  24095454.0884    1861413.23349   1447957.97145  24095454.4744   24095459.9864
       214.0004        150.0004
  20501231.0924     -54908.28349    -34895.67347  20501230.8234   20501235.0324
       238.0004        212.0004
  21437865.7804     219010.74449    175431.16747  21437865.8044   21437868.6364
       239.0004        201.0004
  22902644.0444     501367.17049    395268.45146  22902642.7004   22902646.7904
       222.0004        177.0004
  22505673.2614   -4372695.06049  -3383446.37046  22505673.7764   22505678.0924
       230.0004        184.0004
  23802957.0854   -3995680.17549  -3078610.32445  23802957.1664   23802961.4044
       213.0004        151.0004
 07  2 18  1 33 50.0000000  0  8G 1G18G 3G14G22G19G31G11
  21335887.3234   -2891079.94649  -1940395.03047  21335886.9934   21335892.7124
       239.0004        202.0004
  23647474.5834    1381152.40149   1076007.26245  23647474.1544   23647479.3214
       216.0004        155.0004
  24097925.0144    1874398.00949   1458075.98845  24097925.2434   24097931.0334
       215.0004        149.0004
  20502181.3814     -49914.56249    -31004.46447  20502180.9254   20502185.3464
       238.0004        212.0004
  21438928.7684     224596.76349    179783.91347  21438928.5994   21438931.1784
       239.0004        201.0004
  22904108.0154     509060.26649    401263.07446  22904106.8874   22904110.7484
       223.0004        177.0004
  22502709.8954   -4388267.79649  -3395580.96346  22502710.5084   22502714.5934
       230.0004        184.0004
  23800158.4834   -4010386.80349  -3090070.03745  23800157.5844   23800162.8564
       213.0004        151.0004
 07  2 18  1 33 55.0000000  0  8G 1G18G 3G14G22G19G31G11
  21334344.4514   -2899187.77449  -1946712.81747  21334344.0514   21334349.9444
       239.0004        202.0004
  23649528.3734    1391945.21949   1084417.25445  23649527.8834   23649532.5644
       215.0004        155.0004
  24100396.2424    1887384.46749   1468195.29845  24100396.6434   24100403.3144
       214.0004        149.0004
  20503133.5434     -44910.80249    -27105.42947  20503133.0364   20503137.5824
       238.0004        212.0004
  21439992.6524     230187.37249    184140.22947  21439992.7124   21439995.2494
       239.0004        201.0004
  22905574.0554     516764.45349    407266.33346  22905572.8424   22905576.8604
       223.0004        177.0004
  22499747.7714   -4403833.95949  -3407710.43746  22499747.8094   22499752.3144
       230.0004        184.0004
  23797361.2104   -4025086.51749  -3101524.34445  23797359.9214   23797365.1174
       211.0004        151.0004
 07  2 18  1 34  0.0000000  0  8G 1G18G 3G14G22G19G31G11
  21332803.5904   -2907284.94149  -1953022.29347  21332803.1184   21332808.9424
       239.0004        202.0004
  23651582.8224    1402741.43449   1092829.89445  23651581.9414   23651586.2024
       213.0004        155.0004
  24102867.8304    1900372.66549   1478315.96145  24102867.9224   24102873.9964
       214.0004        149.0004
  20504087.6444     -39896.96849    -23198.54547  20504087.2764   20504091.6574
       239.0004        212.0004
  21441057.3684     235782.61149    188500.15747  21441057.3654   21441059.8724
       240.0004        201.0004
  22907042.1934     524479.71549    413278.22946  22907041.1954   22907045.8394
       224.0004        177.0004
  22496786.8824   -4419393.55249  -3419834.78646  22496787.4484   22496791.2214
       229.0004        184.0004
  23794565.2834   -4039779.27949  -3112973.23945  23794564.8954   23794569.3404
       213.0004        151.0004
 07  2 18  1 34  5.0000000  0  8G 1G18G 3G14G22G19G31G11
  21331264.7644   -2915371.45349  -1959323.46747  21331264.4334   21331270.2214
       239.0004        202.0004
  23653637.8654    1413541.01149   1101245.14945  23653636.8384   23653641.7124
       214.0004        154.0004
  24105339.7474    1913362.62149   1488438.00345  24105338.8714   24105346.6534
       214.0004        149.0004
  20505043.6814     -34873.05449    -19283.80547  20505043.3444   20505047.6494
       239.0004        212.0004
  21442122.9854     241382.50049    192863.70547  21442122.8874   21442125.8254
       239.0004        201.0004
  22908512.4654     532206.08749    419298.77146  22908511.7974   22908516.0294
       222.0004        177.0004
  22493827.2604   -4434946.49949  -3431953.95746  22493827.7174   22493831.5694
       229.0004        184.0004
  23791770.6334   -4054465.15449  -3124416.77345  23791770.3804   23791774.4974
       213.0004        151.0004
 07  2 18  1 34 10.0000000  0  8G 1G18G 3G14G22G19G31G11
  21329727.9184   -2923447.64049  -1965616.59347  21329727.5474   21329733.2494
       239.0004        202.0004
  23655693.5044    1424343.64449   1109662.79045  23655692.5754   23655697.2384
       217.0004        154.0004
  24107811.9234    1926353.95049   1498561.11845  24107811.3204   24107818.9714
       215.0004        149.0004
  20506001.5354     -29839.42749    -15361.49647  20506001.1514   20506005.5904
       238.0004        212.0004
  21443189.4324     246986.68049    197230.60447  21443189.3094   21443192.1854
       240.0004        201.0004
  22909984.7754     539943.19949    425327.68946  22909984.4384   22909988.2004
       223.0004        177.0004
  22490868.8164   -4450493.11249  -3444068.19446  22490869.0654   22490873.4614
       229.0004        184.0004
  23788977.2514   -4069144.39149  -3135855.13945  23788976.4044   23788980.5904
       211.0004        151.0004
 07  2 18  1 34 15.0000000  0  8G 1G18G 3G14G22G19G31G11
  21328193.1724   -2931512.80849  -1971901.13747  21328192.8194   21328198.2654
       239.0004        202.0004
  23657749.8594    1435149.97649   1118083.29545  23657749.5714   23657753.9164
       216.0004        154.0004
  24110284.5184    1939347.39149   1508685.86645  24110283.0484   24110291.6624
       214.0004        149.0004
  20506961.3924     -24795.38649    -11431.07347  20506960.9364   20506965.3994
       238.0004        212.0004
  21444256.8324     252595.87749    201601.40647  21444256.7804   21444259.2454
       239.0004        201.0004
  22911459.2884     547691.73049    431365.50946  22911458.5474   22911462.5254
       223.0004        177.0004
  22487911.7184   -4466032.72849  -3456176.98346  22487912.3924   22487915.8074
       229.0004        184.0004
  23786185.2424   -4083816.30349  -3147287.79045  23786184.3474   23786189.6894
       212.0004        151.0004
 07  2 18  1 34 20.0000000  0  8G 1G18G 3G14G22G19G31G11
  21326660.4184   -2939567.45149  -1978177.48147  21326660.2504   21326665.9244
       239.0004        202.0004
  23659806.8364    1445959.51649   1126506.31945  23659806.5074   23659810.7084
       215.0004        154.0004
  24112757.3744    1952342.26049   1518811.73445  24112757.2364   24112763.5034
       214.0004        149.0004
  20507923.1004     -19741.41849     -7492.91647  20507922.7904   20507927.0514
       238.0004        212.0004
  21445325.0954     258209.59249    205975.72847  21445324.9404   21445327.8144
       239.0004        201.0004
  22912935.8444     555451.18349    437411.83646  22912935.2954   22912939.7274
       223.0004        177.0004
  22484955.8574   -4481565.79749  -3468280.66346  22484955.9294   22484960.1244
       228.0004        184.0004
  23783394.5634   -4098481.35949  -3158715.10145  23783393.5494   23783398.3024
       212.0004        151.0004
 07  2 18  1 34 25.0000000  0  8G 1G18G 3G14G22G19G31G11
  21325129.6764   -2947611.57749  -1984445.62547  21325129.4504   21325135.3594
       239.0004        202.0004
  23661864.4824    1456772.34849   1134931.90845  23661864.0724   23661868.1904
       213.0004        154.0004
  24115230.5384    1965338.65749   1528938.78945  24115230.2244   24115237.2614
       215.0004        149.0004
  20508886.6954     -14677.63549     -3547.10847  20508886.2934   20508890.7274
       238.0004        212.0004
  21446394.2024     263827.80649    210353.55447  21446394.1504   21446396.7654
       239.0004        201.0004
  22914414.4794     563221.53949    443466.65346  22914412.9424   22914418.4814
       223.0004        177.0004
  22482001.2544   -4497092.31849  -3480379.24346  22482000.9654   22482005.4924
       228.0004        184.0004
  23780605.1574   -4113139.56149  -3170137.07745  23780604.6104   23780609.3474
       210.0004        151.0004
 07  2 18  1 34 30.0000000  0  8G 1G18G 3G14G22G19G31G11
  21323601.0204   -2955644.74649  -1990705.23447  21323600.5694   21323606.2514
       239.0004        203.0004
  23663922.8094    1467588.86549   1143360.36945  23663921.8784   23663927.3204
       215.0004        154.0004
  24117704.0464    1978336.95849   1539067.33745  24117704.9204   24117710.6064
       214.0004        149.0004
  20509852.2754      -9603.51149       406.75647  20509851.6554   20509856.2044
       238.0004        212.0004
  21447464.2584     269450.94549    214735.21947  21447464.0804   21447466.8344
       239.0004        201.0004
  22915895.2984     571003.22849    449530.30146  22915894.6064   22915898.9264
       222.0004        177.0004
  22479047.9784   -4512611.85749  -3492472.38546  22479048.0094   22479052.4444
       228.0004        184.0004
  23777817.1464   -4127790.47549  -3181553.36545  23777816.0304   23777820.7954
       210.0004        151.0004
 07  2 18  1 34 35.0000000  0  8G 1G18G 3G14G22G19G31G11
  21322074.3084   -2963667.67149  -1996956.85747  21322073.6964   21322079.6194
       239.0004        203.0004
  23665981.6954    1478408.40649   1151791.17745  23665981.0024   23665987.0704
       215.0004        154.0004
  24120177.7644    1991336.44449   1549196.81845  24120177.7584   24120184.7534
       213.0004        149.0004
  20510819.6854      -4519.74449      4368.13447  20510819.3554   20510823.6474
       238.0004        212.0004
  21448535.1014     275078.30049    219120.17547  21448534.9384   21448537.8194
       239.0004        201.0004
  22917378.1094     578795.49949    455602.20246  22917377.0204   22917381.6024
       223.0004        177.0004
  22476095.8764   -4528125.12749  -3504560.63446  22476096.3124   22476099.9204
       228.0004        184.0004
  23775030.4034   -4142434.82149  -3192964.53145  23775029.5804   23775035.1064
       212.0004        150.0004
 07  2 18  1 34 40.0000000  0  8G 1G18G 3G14G22G19G31G11
  21320549.6734   -2971679.80549  -2003200.07647  21320549.3114   21320555.0344
       239.0004        203.0004
  23668041.2734    1489231.46749   1160224.72145  23668041.6564   23668045.4094
       214.0004        154.0004
  24122651.8204    2004337.68449   1559327.64945  24122652.0954   24122659.2844
       214.0004        149.0004
  20511789.0204        574.21549      8337.45447  20511788.5844   20511792.8284
       238.0004        212.0004
  21449606.8444     280710.42249    223508.84147  21449606.7264   21449609.4524
       239.0004        201.0004
  22918863.0504     586598.92649    461682.79546  22918862.3424   22918866.1944
       223.0004        177.0004
  22473145.0734   -4543631.52949  -3516643.53646  22473145.0954   22473149.7564
       229.0004        184.0004
  23772245.0204   -4157071.96749  -3204370.10145  23772244.6874   23772249.2374
       210.0004        150.0004
 07  2 18  1 34 45.0000000  0  8G 1G18G 3G14G22G19G31G11
  21319027.0214   -2979681.30649  -2009435.00847  21319026.5454   21319032.2764
       239.0004        203.0004
  23670101.5064    1500057.90749   1168660.90445  23670101.8594   23670106.3444
       216.0004        154.0004
  24125126.1964    2017340.51249   1569459.72845  24125127.4524   24125132.3784
       212.0004        148.0004
  20512760.2664       5678.20549     12314.58747  20512759.8224   20512764.1344
       238.0004        212.0004
  21450679.4684     286347.16549    227901.11147  21450679.2644   21450682.3384
       239.0004        201.0004
  22920350.0774     594413.31149    467771.92046  22920349.5224   22920353.8164
       223.0004        177.0004
  22470195.5534   -4559131.23149  -3528721.22246  22470196.0974   22470200.2234
       229.0004        184.0004
  23769460.9904   -4171702.12449  -3215770.21345  23769461.9544   23769464.4834
       211.0004        150.0004
 07  2 18  1 34 50.0000000  0  8G 1G18G 3G14G22G19G31G11
  21317506.3464   -2987672.48049  -2015661.89447  21317505.7884   21317511.6614
       239.0004        203.0004
  23672162.2984    1510887.40749   1177099.49145  23672161.2844   23672166.8754
       217.0004        155.0004
  24127600.8064    2030344.62449   1579592.79945  24127599.8104   24127607.6114
       212.0004        148.0004
  20513733.3784      10791.85049     16299.25047  20513733.0384   20513737.3224
       238.0004        212.0004
  21451752.9234     291988.21149    232296.73147  21451752.6714   21451755.3454
       239.0004        201.0004
  22921839.1184     602238.33949    473869.34446  22921838.5314   22921842.8774
       223.0004        177.0004
  22467247.2684   -4574624.50449  -3540793.89546  22467247.9084   22467251.7824
       229.0004        184.0004
  23766678.2284   -4186325.52449  -3227165.06145  23766677.2124   23766681.5364
       211.0004        150.0004
 07  2 18  1 34 55.0000000  0  8G 1G18G 3G14G22G19G31G11
  21315987.7974   -2995652.59049  -2021880.15747  21315987.4594   21315993.0944
       238.0004        203.0004
  23674223.8584    1521720.74149   1185541.05945  23674223.5864   23674228.7524
       215.0004        155.0004
  24130075.7574    2043350.74249   1589727.43145  24130075.1674   24130082.9164
       213.0004        147.0004
  20514708.4234      15915.88649     20292.00647  20514708.1734   20514712.2674
       238.0004        212.0004
  21452827.3454     297634.32349    236696.29747  21452827.1574   21452829.9724
       239.0004        200.0004
  22923330.3444     610074.76049    479975.64446  22923330.1494   22923333.2204
       223.0004        177.0004
  22464300.3624   -4590110.58149  -3552860.96446  22464300.8584   22464304.8504
       229.0004        184.0004
  23763896.9374   -4200941.46949  -3238554.09345  23763896.8474   23763900.7654
       211.0004        149.0004
 07  2 18  1 35  0.0000000  0  8G 1G18G 3G14G22G19G31G11
  21314471.2124   -3003622.29249  -2028090.31047  21314470.7494   21314476.4614
       239.0004        203.0004
  23676286.0014    1532557.25549   1193985.08945  23676285.2294   23676290.2944
       214.0004        154.0004
  24132550.9834    2056358.16549   1599863.07845  24132550.9734   24132557.5684
       213.0004        147.0004
  20515685.3584      21049.65649     24292.34547  20515685.0174   20515689.2894
       238.0004        212.0004
  21453902.5764     303284.83349    241099.29647  21453902.5424   21453905.4704
       239.0004        200.0004
  22924823.5994     617921.86849    486090.28246  22924822.8454   22924827.4384
       223.0004        177.0004
  22461354.7094   -4605590.15249  -3564922.96046  22461354.8884   22461359.5684
       228.0004        184.0004
  23761116.9394   -4215550.58249  -3249937.80945  23761116.7814   23761121.8874
       208.0004        149.0004
 07  2 18  1 35  5.0000000  0  8G 1G18G 3G14G22G19G31G11
  21312956.6004   -3011581.52549  -2034292.30447  21312956.1974   21312961.9224
       239.0004        203.0004
  23678348.7284    1543396.94049   1202431.58745  23678348.5804   23678353.1794
       214.0004        154.0004
  24135026.4874    2069367.00049   1609999.82445  24135025.8194   24135032.9754
       212.0004        147.0004
  20516664.1444      26193.20949     28300.31347  20516663.7494   20516668.0614
       239.0004        212.0004
  21454978.6854     308939.78249    245505.75047  21454978.7074   21454981.3414
       239.0004        200.0004
  22926318.9104     625779.75949    492213.30646  22926318.2704   22926322.5274
       223.0004        178.0004
  22458410.2924   -4621063.11349  -3576979.79846  22458411.1954   22458415.4034
       229.0004        184.0004
  23758338.2194   -4230152.83249  -3261316.18245  23758337.0754   23758342.1684
       211.0004        149.0004
 07  2 18  1 35 10.0000000  0  8G 1G18G 3G14G22G19G31G11
  21311444.0584   -3019530.00749  -2040485.92547  21311443.5654   21311449.5844
       239.0004        203.0004
  23680412.1274    1554240.13549   1210880.82345  23680410.9734   23680416.9974
       213.0004        154.0004
  24137502.3084    2082377.51649   1620137.89845  24137502.2554   24137507.0234
       212.0004        147.0004
  20517644.8434      31346.81249     32316.10747  20517644.5504   20517648.8144
       238.0004        212.0004
  21456055.6704     314599.49449    249915.91347  21456055.5924   21456058.4404
       239.0004        200.0004
  22927816.3274     633648.70249    498344.95646  22927816.2734   22927820.2294
       224.0004        178.0004
  22455467.1914   -4636529.18149  -3589031.27346  22455468.0134   22455471.4404
       229.0004        184.0004
  23755560.8664   -4244747.86749  -3272688.91745  23755559.5584   23755564.3014
       208.0004        149.0004
 07  2 18  1 35 15.0000000  0  8G 1G18G 3G14G22G19G31G11
  21309933.5504   -3027467.68949  -2046671.12747  21309933.3604   21309938.9104
       239.0004        203.0004
  23682476.1784    1565086.88549   1219332.84445  23682475.3134   23682480.1564
       214.0004        154.0004
  24139978.4644    2095389.67849   1630277.24345  24139978.8104   24139984.1374
       214.0004        147.0004
  20518627.4684      36510.50049     36339.75947  20518627.1804   20518631.3884
       238.0004        212.0004
  21457133.5874     320263.98849    254329.80847  21457133.9154   21457136.3294
       239.0004        200.0004
  22929315.8494     641528.67849    504485.19146  22929315.6554   22929319.3354
       225.0004        178.0004
  22452525.4264   -4651988.30549  -3601077.33646  22452525.7004   22452529.3654
       229.0004        184.0004
  23752784.8824   -4259335.65249  -3284056.00945  23752782.7314   23752789.2134
       209.0004        149.0004
 07  2 18  1 35 20.0000000  0  8G 1G18G 3G14G22G19G31G11
  21308425.0054   -3035395.13349  -2052848.35247  21308424.5954   21308430.4514
       239.0004        203.0004
  23684540.7994    1575936.63449   1227787.19745  23684540.1644   23684545.8504
       213.0004        154.0004
  24142454.7854    2108402.91349   1640417.42145  24142454.9164   24142461.7494
       211.0004        147.0004
  20519611.9004      41683.71949     40370.84147  20519611.6084   20519615.8424
       239.0004        212.0004
  21458212.3124     325932.68349    258746.97247  21458212.4494   21458215.0294
       239.0004        201.0004
  22930817.3954     649419.14749    510633.60546  22930817.0164   22930820.5754
       225.0004        178.0004
  22449584.8744   -4667441.01849  -3613118.40846  22449585.2764   22449589.2334
       229.0004        185.0004
  23750010.1564   -4273916.75449  -3295417.90045  23750008.7514   23750014.3284
       209.0004        149.0004
 07  2 18  1 35 25.0000000  0  8G 1G18G 3G14G22G19G31G11
  21306918.5224   -3043311.66749  -2059017.07447  21306917.9884   21306924.1684
       239.0004        203.0004
  23686606.1024    1586790.03749   1236244.39145  23686605.9144   23686610.3334
       214.0004        154.0004
  24144931.4584    2121417.87849   1650558.94645  24144930.4824   24144937.1594
       210.0004        147.0004
  20520598.2594      46867.11849     44409.85647  20520597.8964   20520602.2294
       238.0004        212.0004
  21459291.9664     331606.30049    263167.97247  21459291.7914   21459294.7854
       239.0004        201.0004
  22932321.0344     657320.77849    516790.72446  22932320.6854   22932324.4864
       225.0004        178.0004
  22446645.6664   -4682886.63349  -3625153.94346  22446646.2004   22446649.7964
       230.0004        185.0004
  23747236.8344   -4288490.50049  -3306774.06045  23747235.5514   23747240.4084
       211.0004        149.0004
 07  2 18  1 35 30.0000000  0  8G 1G18G 3G14G22G19G31G11
  21305414.0544   -3051217.71849  -2065177.63147  21305413.7794   21305419.3634
       239.0004        203.0004
  23688672.0414    1597646.64449   1244704.08145  23688671.7244   23688676.4834
       215.0004        155.0004
  24147408.3474    2134434.09749   1660701.44945  24147407.6984   24147414.3704
       212.0004        147.0004
  20521586.5134      52060.30149     48456.49547  20521586.1024   20521590.5194
       238.0004        212.0004
  21460372.4914     337284.39249    267592.46647  21460372.5434   21460375.2294
       240.0004        201.0004
  22933826.7364     665233.14149    522956.19446  22933826.0034   22933830.0144
       224.0004        178.0004
  22443707.7754   -4698325.55949  -3637184.27346  22443708.5044   22443712.1144
       230.0004        185.0004
  23744464.8344   -4303057.28949  -3318124.79645  23744464.5094   23744468.3894
       209.0004        149.0004
 07  2 18  1 35 35.0000000  0  8G 1G18G 3G14G22G19G31G11
  21303911.6164   -3059113.05449  -2071329.83347  21303911.0694   21303917.1424
       239.0004        203.0004
  23690738.6544    1608506.71249   1253166.47345  23690738.9734   23690742.5734
       217.0004        155.0004
  24149885.5614    2147451.89349   1670845.18145  24149885.9024   24149892.5614
       213.0004        147.0004
  20522576.6414      57263.48049     52510.92147  20522576.2864   20522580.5644
       238.0004        212.0004
  21461453.9074     342967.22249    272020.64047  21461454.0154   21461456.5084
       239.0004        201.0004
  22935334.4904     673156.45549    529130.20446  22935333.9894   22935337.7564
       224.0004        178.0004
  22440771.1884   -4713757.54549  -3649209.17946  22440771.4374   22440775.6704
       230.0004        185.0004
  23741694.2074   -4317616.86849  -3329469.91845  23741693.8874   23741698.5384
       211.0004        149.0004
 07  2 18  1 35 40.0000000  0  8G 1G18G 3G14G22G19G31G11
  21302411.1484   -3066998.03349  -2077473.97147  21302410.6384   21302416.7444
       239.0004        203.0004
  23692805.8894    1619369.95749   1261631.34445  23692805.7424   23692810.6664
       215.0004        155.0004
  24152362.9804    2160470.82049   1680989.81045  24152362.8774   24152369.7874
       212.0004        147.0004
  20523568.6014      62476.29549     56572.85547  20523568.2394   20523572.5484
       238.0004        212.0004
  21462536.1354     348654.40749    276452.21447  21462536.3254   21462538.8434
       240.0004        201.0004
  22936844.2834     681090.32849    535312.44846  22936843.8934   22936847.6784
       224.0004        178.0004
  22437835.8454   -4729182.98249  -3661229.00446  22437836.3194   22437839.9724
       230.0004        185.0004
  23738924.9124   -4332169.59949  -3340809.69845  23738924.8544   23738929.6564
       211.0004        150.0004
 07  2 18  1 35 45.0000000  0  8G 1G18G 3G14G22G19G31G11
  21300912.7054   -3074872.41949  -2083609.85447  21300912.6354   21300918.1174
       239.0004        203.0004
  23694873.7714    1630236.53549   1270098.80945  23694873.7704   23694877.7474
       216.0004        155.0004
  24154840.6714    2173491.15549   1691135.52345  24154840.6024   24154846.8104
       210.0004        147.0004
  20524562.4344      67698.89549     60642.41647  20524562.0214   20524566.5124
       239.0004        212.0004
  21463619.2384     354346.19549    280887.37347  21463619.2364   21463621.7644
       239.0004        201.0004
  22938356.0964     689035.01549    541503.10946  22938355.4474   22938359.1694
       224.0004        178.0004
  22434901.7914   -4744601.56249  -3673243.47146  22434902.6104   22434906.4104
       230.0004        185.0004
  23736156.9844   -4346715.26549  -3352143.96745  23736157.0804   23736161.3954
       213.0004        150.0004
 07  2 18  1 35 50.0000000  0  8G 1G18G 3G14G22G19G31G11
  21299416.3114   -3082735.96749  -2089737.28547  21299416.0414   21299421.6704
       239.0004        203.0004
  23696942.3184    1641106.70749   1278569.07745  23696941.0494   23696946.5264
       214.0004        156.0004
  24157318.6554    2186513.07049   1701282.46245  24157318.6564   24157325.6844
       211.0004        147.0004
  20525558.1664      72931.56849     64719.82747  20525557.7224   20525562.0214
       238.0004        212.0004
  21464703.2914     360042.88549    285326.35647  21464703.4054   21464706.0764
       239.0004        201.0004
  22939870.0434     696990.72849    547702.36446  22939869.8194   22939873.0504
       224.0004        179.0004
  22431969.0974   -4760013.03949  -3685252.41146  22431969.0514   22431973.3604
       229.0004        186.0004
  23733390.4144   -4361253.57849  -3363472.51845  23733390.8954   23733394.7824
       213.0004        150.0004
 07  2 18  1 35 55.0000000  0  8G 1G18G 3G14G22G19G31G11
  21297921.9834   -3090588.73849  -2095856.32947  21297921.8164   21297927.3154
       239.0004        203.0004
  23699011.5234    1651980.36249   1287042.04945  23699011.3864   23699015.5364
       215.0004        156.0004
  24159796.9254    2199536.53949   1711430.61745  24159796.2614   24159803.1344
       211.0004        147.0004
  20526555.8004      78174.25749     68805.03947  20526555.3114   20526559.7704
       238.0004        212.0004
  21465788.2254     365744.34149    289769.04647  21465788.2344   21465790.9394
       240.0004        201.0004
  22941386.0534     704957.39549    553910.15746  22941385.5994   22941389.5394
       224.0004        179.0004
  22429037.7234   -4775417.46949  -3697255.85646  22429037.8304   22429042.1404
       229.0004        186.0004
  23730625.2694   -4375784.56949  -3374795.35845  23730625.2804   23730629.6584
       214.0004        151.0004
 07  2 18  1 36  0.0000000  0  8G 1G18G 3G14G22G19G31G11
  21296429.6534   -3098431.03849  -2101967.20747  21296429.2694   21296435.1014
       239.0004        203.0004
  23701081.3184    1662857.24649   1295517.54645  23701081.7234   23701085.8724
       217.0004        157.0004
  24162275.4454    2212561.25149   1721579.74045  24162274.5254   24162281.7734
       212.0004        147.0004
  20527555.2994      83426.63549     72897.80247  20527554.9694   20527559.2294
       239.0004        212.0004
  21466874.0274     371450.25149    294215.21047  21466873.9324   21466876.4444
       240.0004        201.0004
  22942904.0814     712934.73349    560126.26246  22942903.8384   22942907.3394
       225.0004        179.0004
  22426107.6294   -4790815.13949  -3709254.02946  22426107.8994   22426112.6094
       230.0004        186.0004
  23727861.4934   -4390308.52949  -3386112.73045  23727862.1534   23727865.5164
       212.0004        151.0004
 07  2 18  1 36  5.0000000  0  8G 1G18G 3G14G22G19G31G11
  21294939.2564   -3106263.20249  -2108070.18647  21294938.8814   21294944.5994
       239.0004        203.0004
  23703151.6704    1673736.98949   1303995.26345  23703151.8494   23703156.1274
       217.0004        157.0004
  24164754.1454    2225586.87849   1731729.57445  24164754.1694   24164759.9314
       211.0004        147.0004
  20528556.5664      88688.38249     76997.86747  20528556.1864   20528560.4354
       238.0004        212.0004
  21467960.6494     377160.31049    298664.60847  21467960.5004   21467963.1094
       240.0004        201.0004
  22944424.0874     720922.32449    566350.36346  22944423.2464   22944427.5414
       224.0004        179.0004
  22423178.7814   -4806206.33549  -3721247.15946  22423178.7764   22423183.4314
       229.0004        186.0004
  23725098.9574   -4404825.83549  -3397424.91545  23725099.7154   23725104.0734
       212.0004        151.0004
 07  2 18  1 36 10.0000000  0  8G 1G18G 3G14G22G19G31G11
  21293450.9484   -3114084.16049  -2114164.44147  21293450.5614   21293456.3714
       239.0004        203.0004
  23705222.8264    1684620.70649   1312476.08045  23705222.7864   23705226.6374
       217.0004        157.0004
  24167233.2174    2238614.40649   1741880.89045  24167233.6624   24167240.4044
       211.0004        147.0004
  20529559.8134      93960.53349     81106.03547  20529559.4424   20529563.7214
       238.0004        212.0004
  21469048.2164     382875.57949    303118.06647  21469048.1174   21469050.7734
       239.0004        201.0004
  22945946.2804     728921.27449    572583.30946  22945945.1134   22945949.7424
       224.0004        179.0004
  22420251.3404   -4821590.02049  -3733234.44146  22420251.5434   22420256.1704
       229.0004        186.0004
  23722337.9154   -4419335.35949  -3408731.02945  23722338.5074   23722342.9634
       214.0004        151.0004
 07  2 18  1 36 15.0000000  0  8G 1G18G 3G14G22G19G31G11
  21291964.6954   -3121894.56449  -2120250.46747  21291964.2204   21291970.0474
       239.0004        203.0004
  23707294.6054    1695507.76549   1320959.50245  23707293.4824   23707298.9204
       216.0004        157.0004
  24169712.5564    2251643.32049   1752033.29045  24169711.6874   24169718.6704
       211.0004        146.0004
  20530564.9444      99242.45549     85221.82047  20530564.6464   20530569.0284
       239.0004        212.0004
  21470136.6644     388595.39949    307575.07047  21470136.5144   21470138.9944
       239.0004        201.0004
  22947470.4564     736930.92249    578824.59546  22947469.4074   22947474.0374
       223.0004        179.0004
  22417325.2114   -4836966.82049  -3745216.35646  22417325.2694   22417330.2034
       229.0004        186.0004
  23719578.2064   -4433837.79249  -3420031.62345  23719577.2984   23719582.5824
       210.0004        151.0004
 07  2 18  1 36 20.0000000  0  8G 1G18G 3G14G22G19G31G11
  21290480.4144   -3129694.46049  -2126328.30347  21290479.8874   21290485.7564
       241.0004        203.0004
  23709366.9904    1706398.10449   1329445.47845  23709366.9074   23709371.8114
       215.0004        156.0004
  24172192.0764    2264673.37449   1762186.57345  24172192.4394   24172199.2044
       209.0004        146.0004
  20531571.9184     104534.08649     89345.16947  20531571.7094   20531575.9054
       238.0004        212.0004
  21471225.9654     394319.75149    312035.60347  21471225.8704   21471228.8384
       239.0004        200.0004
  22948996.6574     744951.17949    585074.14246  22948995.8914   22948999.8324
       224.0004        179.0004
  22414400.4174   -4852336.79149  -3757192.94446  22414400.3444   22414405.2354
       229.0004        186.0004
  23716819.8034   -4448333.14649  -3431326.69745  23716819.2684   23716823.5494
       213.0004        151.0004
 07  2 18  1 36 25.0000000  0  8G 1G18G 3G14G22G19G31G11
  21288998.1424   -3137483.85949  -2132397.95747  21288997.7744   21289003.5504
       240.0004        203.0004
  23711440.0014    1717291.68649   1337933.98345  23711439.1324   23711443.9874
       216.0004        156.0004
  24174671.8244    2277704.55749   1772340.73645  24174671.2434   24174678.2524
       211.0004        147.0004
  20532580.7044     109835.41549     93476.07647  20532580.3304   20532584.7094
       238.0004        212.0004
  21472316.1414     400048.64249    316499.67647  21472315.9154   21472318.4384
       239.0004        200.0004
  22950524.8604     752982.05949    591331.96446  22950524.0834   22950527.8774
       224.0004        179.0004
  22411476.8774   -4867699.90349  -3769164.19446  22411477.1274   22411481.6764
       229.0004        186.0004
  23714062.7884   -4462821.39749  -3442616.23345  23714063.0964   23714066.2434
       214.0004        151.0004
 07  2 18  1 36 30.0000000  0  8G 1G18G 3G14G22G19G31G11
  21287517.9134   -3145262.49149  -2138459.22447  21287517.5784   21287523.3974
       240.0004        203.0004
  23713513.6514    1728188.78649   1346425.21645  23713513.4564   23713517.6734
       217.0004        156.0004
  24177151.8314    2290737.19249   1782496.03245  24177151.0074   24177157.6844
       210.0004        147.0004
  20533591.4124     115146.67849     97614.72547  20533591.0214   20533595.4884
       239.0004        212.0004
  21473407.2334     405782.31949    320967.47647  21473407.1604   21473409.8664
       239.0004        200.0004
  22952055.1524     761023.78949    597598.24546  22952054.1944   22952058.1004
       223.0004        179.0004
  22408554.7304   -4883055.89249  -3781129.89146  22408554.8704   22408559.2544
       229.0004        186.0004
  23711307.1424   -4477302.25949  -3453900.00445  23711306.4144   23711312.2514
       212.0004        151.0004
 07  2 18  1 36 35.0000000  0  8G 1G18G 3G14G22G19G31G11
  21286039.6894   -3153030.68549  -2144512.36047  21286039.3024   21286044.9464
       241.0004        203.0004
  23715587.8814    1739089.06349   1354918.94645  23715587.1514   23715592.2054
       217.0004        156.0004
  24179632.0584    2303770.85949   1792652.13945  24179631.8794   24179638.7414
       211.0004        147.0004
  20534603.9534     120467.53049    101760.84547  20534603.5104   20534608.0104
       238.0004        212.0004
  21474499.1484     411520.46449    325438.75947  21474498.9144   21474501.7944
       239.0004        200.0004
  22953587.4554     769076.02349    603872.71946  22953587.6624   22953590.9624
       224.0004        179.0004
  22405633.8734   -4898405.05349  -3793090.26446  22405633.7534   22405638.6574
       229.0004        187.0004
  23708552.8444   -4491776.09949  -3465178.31145  23708551.7414   23708556.9974
       213.0004        151.0004
 07  2 18  1 36 40.0000000  0  8G 1G18G 3G14G22G19G31G11
  21284563.5454   -3160787.93249  -2150556.96347  21284563.2144   21284568.9784
       240.0004        203.0004
  23717662.8294    1749993.06249   1363415.57445  23717662.7944   23717667.3234
       215.0004        156.0004
  24182112.5634    2316806.16349   1802809.51545  24182112.8124   24182119.8154
       213.0004        147.0004
  20535618.3984     125798.48049    105914.83347  20535618.0374   20535622.4894
       238.0004        212.0004
  21475592.0324     417263.60449    329913.93347  21475592.0174   21475594.6404
       239.0004        200.0004
  22955121.8484     777139.29249    610155.78746  22955120.5014   22955124.6094
       223.0004        178.0004
  22402714.4204   -4913746.86949  -3805044.91646  22402714.4044   22402719.0594
       230.0004        187.0004
  23705800.0124   -4506242.35349  -3476450.70645  23705799.8564   23705804.8614
       214.0004        151.0004
 07  2 18  1 36 45.0000000  0  8G 1G18G 3G14G22G19G31G11
  21283089.3564   -3168534.87149  -2156593.53647  21283089.1944   21283094.6634
       241.0004        203.0004
  23719738.3894    1760900.17149   1371914.63745  23719737.3584   23719742.7854
       216.0004        156.0004
  24184593.2754    2329842.34049   1812967.57545  24184592.9954   24184600.1914
       212.0004        147.0004
  20536634.6304     131138.90349    110076.20547  20536634.0944   20536638.5014
       239.0004        212.0004
  21476685.7454     423011.07449    334392.48247  21476685.5404   21476688.5434
       239.0004        200.0004
  22956658.2294     785212.96249    616446.95346  22956657.4774   22956661.6574
       224.0004        179.0004
  22399796.2384   -4929081.96149  -3816994.33446  22399796.0144   22399801.0954
       229.0004        187.0004
  23703048.4954   -4520701.64649  -3487717.68745  23703048.0614   23703052.9424
       214.0004        151.0004
 07  2 18  1 36 50.0000000  0  8G 1G18G 3G14G22G19G31G11
  21281617.2274   -3176271.01449  -2162621.69247  21281616.8834   21281622.8434
       241.0004        203.0004
  23721814.6024    1771810.78249   1380416.41245  23721814.0204   23721818.8324
       215.0004        156.0004
  24187074.2414    2342879.93649   1823126.73845  24187074.8274   24187081.1684
       212.0004        147.0004
  20537652.7744     136489.22449    114245.28847  20537652.3094   20537656.8854
       238.0004        212.0004
  21477780.3614     428763.37749    338874.79647  21477780.3524   21477783.0474
       239.0004        200.0004
  22958196.6794     793297.50649    622746.58746  22958195.8324   22958199.6154
       224.0004        178.0004
  22396879.4094   -4944409.84549  -3828938.12646  22396879.5134   22396883.3314
       229.0004        187.0004
  23700298.4084   -4535153.53049  -3498978.89145  23700298.5754   23700302.5474
       214.0004        152.0004
 07  2 18  1 36 55.0000000  0  8G 1G18G 3G14G22G19G31G11
  21280147.0874   -3183996.63949  -2168641.66347  21280146.8514   21280152.3994
       240.0004        203.0004
  23723891.4454    1782724.70249   1388920.75545  23723890.4724   23723895.4554
       215.0004        156.0004
  24189555.4454    2355918.69549   1833286.81145  24189554.4704   24189562.6544
       211.0004        147.0004
  20538672.7414     141849.22049    118421.90547  20538672.5934   20538676.5144
       238.0004        212.0004
  21478875.8434     434520.22449    343360.64847  21478875.8244   21478878.5814
       240.0004        200.0004
  22959737.1294     801392.60549    629054.46246  22959735.9264   22959740.5264
       224.0004        178.0004
  22393963.9184   -4959730.77149  -3840876.50246  22393964.4814   22393968.0954
       230.0004        187.0004
  23697549.6504   -4549598.23149  -3510234.49245  23697549.5684   23697553.7904
       216.0004        152.0004
 07  2 18  1 37  0.0000000  0  8G 1G18G 3G14G22G19G31G11
  21278678.9524   -3191711.72549  -2174653.41247  21278678.4974   21278684.3814
       241.0004        203.0004
  23725968.9154    1793641.93549   1397427.69745  23725968.4544   23725973.1764
       215.0004        156.0004
  24192036.8554    2368958.60749   1843447.78045  24192036.1824   24192044.3244
       212.0004        147.0004
  20539694.5444     147218.86749    122606.04947  20539694.2864   20539698.5314
       238.0004        212.0004
  21479972.2164     440281.67849    347850.09747  21479972.1954   21479974.9624
       239.0004        200.0004
  22961279.6274     809498.29249    635370.57646  22961278.8074   22961283.0614
       223.0004        178.0004
  22391049.7824   -4975044.70149  -3852809.43146  22391049.9594   22391053.9724
       229.0004        187.0004
  23694802.3104   -4564035.72249  -3521484.47945  23694802.4804   23694806.4984
       216.0004        152.0004
 07  2 18  1 37  5.0000000  0  8G 1G18G 3G14G22G19G31G11
  21277212.8654   -3199416.06749  -2180656.79247  21277212.5124   21277218.4534
       240.0004        204.0004
  23728047.0424    1804562.65349   1405937.34945  23728046.2254   23728051.1584
       216.0004        156.0004
  24194518.5024    2381999.81449   1853609.75645  24194518.1344   24194526.1534
       211.0004        147.0004
  20540718.2404     152598.37949    126797.87747  20540718.0174   20540722.2634
       239.0004        212.0004
  21481069.5204     446047.91449    352343.26447  21481069.4654   21481072.2154
       239.0004        200.0004
  22962824.1264     817614.74749    641695.08546  22962823.1884   22962827.6724
       222.0004        178.0004
  22388136.9904   -4990351.44649  -3864736.75746  22388137.6254   22388141.5094
       230.0004        187.0004
  23692056.3674   -4578465.80149  -3532728.69145  23692056.7104   23692060.6754
       216.0004        152.0004
 07  2 18  1 37 10.0000000  0  8G 1G18G 3G14G22G19G31G11
  21275748.7894   -3207109.82449  -2186651.92147  21275748.1764   21275754.2114
       241.0004        204.0004
  23730125.8224    1815486.74149   1414449.62645  23730125.2264   23730130.5324
       216.0004        156.0004
  24197000.3894    2395042.16749   1863772.62645  24196999.5764   24197007.4724
       209.0004        147.0004
  20541743.7744     157987.59749    130997.26747  20541743.4574   20541747.8074
       238.0004        212.0004
  21482167.6554     451818.78249    356840.05147  21482167.6654   21482170.0464
       239.0004        200.0004
  22964370.6264     825741.80749    648027.86346  22964369.3084   22964373.8154
       222.0004        178.0004
  22385225.5734   -5005651.13649  -3876658.58746  22385225.8014   22385230.0764
       230.0004        187.0004
  23689311.8524   -4592888.56249  -3543967.19845  23689311.2114   23689316.2124
       216.0004        152.0004
 07  2 18  1 37 15.0000000  0  8G 1G18G 3G14G22G19G31G11
  21274286.7804   -3214792.75749  -2192638.61847  21274286.4784   21274292.3284
       241.0004        204.0004
  23732205.3014    1826414.47549   1422964.74145  23732204.9464   23732210.0694
       217.0004        156.0004
  24199482.5114    2408085.84249   1873936.52145  24199481.5584   24199488.8374
       210.0004        147.0004
  20542771.2284     163386.74349    135204.39847  20542770.7564   20542775.2134
       239.0004        212.0004
  21483266.7604     457594.51749    361340.62447  21483266.6144   21483269.5184
       239.0004        201.0004
  22965919.1794     833879.65149    654369.04646  22965917.9464   22965922.0094
       222.0004        178.0004
  22382315.5074   -5020943.52449  -3888574.72246  22382315.4154   22382319.8934
       230.0004        187.0004
  23686568.7374   -4607303.80149  -3555199.85545  23686568.6204   23686573.4704
       215.0004        152.0004
 07  2 18  1 37 20.0000000  0  8G 1G18G 3G14G22G19G31G11
  21272826.7894   -3222465.08149  -2198617.05247  21272826.3394   21272832.4714
       241.0004        204.0004
  23734285.4214    1837345.57049   1431482.47645  23734284.7574   23734289.7804
       215.0004        156.0004
  24201964.8614    2421130.76749   1884101.39445  24201963.5394   24201970.6004
       209.0004        147.0004
  20543800.4774     168795.57849    139419.07247  20543800.0934   20543804.2214
       238.0004        212.0004
  21484366.6984     463374.87149    365844.79547  21484366.6424   21484369.3194
       239.0004        201.0004
  22967469.7354     842028.07749    660718.46546  22967468.3534   22967472.9984
       222.0004        178.0004
  22379406.8164   -5036228.80449  -3900485.32346  22379407.3094   22379411.0024
       229.0004        187.0004
  23683827.0274   -4621711.74149  -3566426.82045  23683826.2384   23683831.0364
       217.0004        152.0004
 07  2 18  1 37 25.0000000  0  8G 1G18G 3G14G22G19G31G11
  21271368.7604   -3230126.97449  -2204587.34947  21271368.2684   21271374.2454
       241.0004        204.0004
  23736366.1314    1848279.89749   1440002.72845  23736365.7364   23736370.1054
       217.0004        155.0004
  24204447.3894    2434176.64349   1894267.00345  24204446.7804   24204453.9014
       210.0004        147.0004
  20544831.5524     174213.95249    143641.18447  20544831.0194   20544835.5214
       238.0004        212.0004
  21485467.5004     469159.68349    370352.44247  21485467.3604   21485470.0944
       239.0004        201.0004
  22969022.2684     850186.92549    667076.01046  22969021.9074   22969025.7054
       223.0004        178.0004
  22376499.4514   -5051507.13049  -3912390.50746  22376500.3414   22376504.2194
       230.0004        187.0004
  23681086.6324   -4636112.50649  -3577648.18845  23681086.1054   23681090.0114
       217.0004        153.0004
 07  2 18  1 37 30.0000000  0  8G 1G18G 3G14G22G19G31G11
  21269912.7864   -3237778.21349  -2210549.35347  21269912.3264   21269918.3144
       241.0004        204.0004
  23738447.5154    1859217.61849   1448525.63945  23738447.1054   23738451.8384
       216.0004        155.0004
  24206930.1264    2447223.70149   1904433.54645  24206929.3324   24206937.1944
       209.0004        146.0004
  20545864.5024     179642.03849    147870.86547  20545864.1344   20545868.1834
       239.0004        212.0004
  21486569.2014     474949.18049    374863.73747  21486569.2184   21486571.9524
       239.0004        201.0004
  22970576.8664     858356.41049    673441.83846  22970575.9114   22970580.4274
       223.0004        178.0004
  22373593.4364   -5066778.26049  -3924290.08546  22373594.0634   22373597.7984
       230.0004        187.0004
  23678347.6794   -4650505.88049  -3588863.79245  23678347.7114   23678351.4584
       218.0004        153.0004
 07  2 18  1 37 35.0000000  0  8G 1G18G 3G14G22G19G31G11
  21268458.8354   -3245418.77549  -2216503.03047  21268458.4834   21268464.3334
       241.0004        204.0004
  23740529.5474    1870158.80649   1457051.25545  23740528.6544   23740533.5774
       215.0004        155.0004
  24209413.1234    2460271.98549   1914601.03245  24209413.6524   24209419.9434
       211.0004        146.0004
  20546899.2684     185079.85649    152108.12647  20546898.8684   20546903.1684
       238.0004        212.0004
  21487671.7814     480743.38449    379378.70447  21487671.6444   21487674.4904
       239.0004        200.0004
  22972133.4714     866536.52149    679815.94746  22972132.7334   22972137.2524
       222.0004        178.0004
  22370688.8054   -5082042.16349  -3936184.02546  22370689.2844   22370693.5194
       230.0004        187.0004
  23675610.1364   -4664891.82649  -3600073.61845  23675610.6664   23675613.7344
       216.0004        153.0004
 07  2 18  1 37 40.0000000  0  8G 1G18G 3G14G22G19G31G11
  21267006.8984   -3253048.77449  -2222448.47947  21267006.4384   21267012.5564
       241.0004        204.0004
  23742612.2344    1881103.31249   1465579.43945  23742611.4324   23742615.8224
       215.0004        155.0004
  24211896.3044    2473321.27749   1924769.30845  24211896.9834   24211903.1974
       210.0004        146.0004
  20547935.8784     190527.29549    156352.88847  20547935.5204   20547939.7454
       238.0004        212.0004
  21488775.2654     486542.20849    383897.26847  21488775.4504   21488777.7804
       239.0004        200.0004
  22973692.1094     874727.13749    686198.24446  22973691.0554   22973696.0824
       223.0004        178.0004
  22367785.5264   -5097298.93949  -3948072.41246  22367786.0644   22367790.0634
       229.0004        187.0004
  23672873.9784   -4679270.46949  -3611277.75445  23672874.0704   23672877.7324
       217.0004        153.0004
 07  2 18  1 37 45.0000000  0  8G 1G18G 3G14G22G19G31G11
  21265557.0024   -3260667.95849  -2228385.50647  21265556.8814   21265562.6004
       241.0004        204.0004
  23744695.6154    1892051.41549   1474110.41245  23744694.7804   23744700.1194
       214.0004        155.0004
  24214379.7844    2486371.88649   1934938.60745  24214379.8944   24214387.1144
       210.0004        146.0004
  20548974.3524     195984.57949    160605.31447  20548974.1214   20548978.2364
       239.0004        212.0004
  21489879.6484     492345.88849    388419.61647  21489879.8264   21489882.5174
       239.0004        200.0004
  22975252.7974     882928.48949    692588.90646  22975252.1944   22975256.3324
       223.0004        178.0004
  22364883.6854   -5112548.30749  -3959955.02346  22364883.7734   22364888.1534
       230.0004        187.0004
  23670139.2694   -4693641.52649  -3622475.97645  23670138.8244   23670143.0704
       216.0004        153.0004
 07  2 18  1 37 50.0000000  0  8G 1G18G 3G14G22G19G31G11
  21264109.1414   -3268276.52349  -2234314.25147  21264108.7344   21264114.8994
       241.0004        204.0004
  23746779.6064    1903002.89649   1482644.02845  23746779.5374   23746783.0704
       214.0004        155.0004
  24216863.4534    2499423.55649   1945108.72945  24216863.3744   24216869.4314
       211.0004        146.0004
  20550014.6824     201451.51749    164865.26747  20550014.4314   20550018.6034
       239.0004        212.0004
  21490984.9444     498154.24549    392945.60847  21490985.2514   21490987.7814
       239.0004        200.0004
  22976815.4524     891140.37949    698987.78346  22976814.3524   22976819.1784
       222.0004        178.0004
  22361983.1774   -5127790.46749  -3971832.02246  22361983.3414   22361987.4514
       229.0004        187.0004
  23667405.9754   -4708005.22549  -3633668.46545  23667406.0064   23667409.7204
       216.0004        153.0004
 07  2 18  1 37 55.0000000  0  8G 1G18G 3G14G22G19G31G11
  21262663.2044   -3275874.91749  -2240235.07447  21262662.6554   21262668.5714
       240.0004        204.0004
  23748864.1684    1913957.34349   1491179.95745  23748863.3344   23748867.8164
       214.0004        155.0004
  24219347.2274    2512475.83549   1955279.33545  24219346.7054   24219352.7624
       210.0004        146.0004
  20551056.7734     206927.64849    169132.38647  20551056.3604   20551060.6264
       238.0004        212.0004
  21492091.0414     503966.82649    397474.89647  21492090.9754   21492093.7764
       238.0004        200.0004
  22978380.0504     899362.33849    705394.50446  22978379.3894   22978383.6014
       223.0004        178.0004
  22359083.9564   -5143025.85649  -3983703.75046  22359084.1684   22359088.0754
       229.0004        187.0004
  23664673.9904   -4722361.93049  -3644855.49745  23664673.6374   23664677.5924
       217.0004        153.0004
 07  2 18  1 38  0.0000000  0  8G 1G18G 3G14G22G19G31G11
  21261219.3714   -3283462.34649  -2246147.35747  21261219.1244   21261224.7624
       241.0004        204.0004
  23750949.4334    1924915.54849   1499718.82245  23750949.4404   23750952.4814
       216.0004        155.0004
  24221831.2894    2525529.53349   1965451.05045  24221831.4754   24221837.6524
       211.0004        146.0004
  20552100.7534     212413.76549    173407.27847  20552100.4174   20552104.7974
       238.0004        212.0004
  21493198.1274     509784.43249    402008.09047  21493198.3184   21493200.8044
       240.0004        200.0004
  22979946.7184     907595.13449    711809.66446  22979945.5654   22979950.6254
       223.0004        178.0004
  22356186.2064   -5158253.65849  -3995569.56147  22356186.6744   22356190.6924
       230.0004        188.0004
  23661943.4864   -4736710.89149  -3656036.50345  23661942.9184   23661947.3214
       215.0004        153.0004
 07  2 18  1 38  5.0000000  0  8G 1G18G 3G14G22G19G31G11
  21259777.5064   -3291039.35349  -2252051.51147  21259777.1534   21259782.9914
       241.0004        204.0004
  23753035.3204    1935876.97949   1508260.19645  23753035.1264   23753040.2194
       213.0004        155.0004
  24224315.5034    2538584.05149   1975623.39645  24224315.6454   24224321.9804
       212.0004        146.0004
  20553146.5004     217909.28849    177689.51147  20553146.0934   20553150.5714
       238.0004        212.0004
  21494306.0374     515606.53649    406544.79847  21494306.1714   21494308.7744
       240.0004        200.0004
  22981515.3074     915838.23549    718232.86646  22981514.2594   22981518.8134
       223.0004        178.0004
  22353289.7674   -5173474.40249  -4007429.87047  22353290.1394   22353294.2064
       230.0004        188.0004
  23659214.3504   -4751052.61949  -3667211.87045  23659214.4774   23659218.2954
       216.0004        153.0004
 07  2 18  1 38 10.0000000  0  8G 1G18G 3G14G22G19G31G11
  21258337.7234   -3298605.50649  -2257947.21347  21258337.3094   21258343.0074
       241.0004        204.0004
  23755121.9024    1946842.02849   1516804.40445  23755121.7414   23755125.7254
       215.0004        155.0004
  24226799.9484    2551639.87949   1985796.76945  24226800.2654   24226806.9274
       212.0004        146.0004
  20554194.1314     223414.67849    181979.42547  20554193.8084   20554198.0734
       238.0004        212.0004
  21495414.9094     521433.57949    411085.35247  21495415.0444   21495417.4304
       239.0004        200.0004
  22983085.9714     924092.08349    724664.43146  22983085.0514   22983089.2814
       223.0004        179.0004
  22350394.7594   -5188687.67849  -4019284.36747  22350395.1334   22350399.0324
       231.0004        188.0004
  23656486.6824   -4765386.66549  -3678381.25145  23656486.8754   23656490.1354
       217.0004        153.0004
 07  2 18  1 38 15.0000000  0  8G 1G18G 3G14G22G19G31G11
  21256899.9534   -3306161.04249  -2263834.63847  21256899.6254   21256905.4664
       241.0004        204.0004
  23757209.1124    1957810.49449   1525351.25345  23757207.9974   23757214.3434
       213.0004        155.0004
  24229284.6054    2564696.68249   1995970.89345  24229284.9154   24229291.0054
       213.0004        146.0004
  20555243.6074     228929.71849    186276.85847  20555243.1414   20555247.5674
       239.0004        212.0004
  21496524.6634     527265.26249    415629.52447  21496524.8164   21496527.2934
       240.0004        200.0004
  22984658.6214     932356.43149    731104.18246  22984657.7634   22984662.5594
       224.0004        179.0004
  22347501.1324   -5203893.67749  -4031133.19347  22347501.5674   22347505.8354
       229.0004        188.0004
  23653760.4414   -4779713.24349  -3689544.81045  23653759.5134   23653764.3454
       218.0004        153.0004
 07  2 18  1 38 20.0000000  0  8G 1G18G 3G14G22G19G31G11
  21255464.1904   -3313705.94249  -2269713.77947  21255463.8594   21255469.6654
       241.0004        204.0004
  23759296.9864    1968782.36849   1533900.75645  23759296.0224   23759300.6624
       213.0004        154.0004
  24231769.4804    2577754.54949   2006145.85145  24231770.1654   24231775.7364
       213.0004        146.0004
  20556294.9314     234454.40349    190581.80847  20556294.5734   20556298.8704
       239.0004        212.0004
  21497635.2774     533101.64849    420177.36147  21497635.1574   21497637.8124
       239.0004        200.0004
  22986233.2634     940631.28849    737552.11546  22986232.4824   22986236.6204
       224.0004        179.0004
  22344608.9134   -5219092.33649  -4042976.29247  22344608.8994   22344613.1744
       229.0004        188.0004
  23651035.6344   -4794032.32849  -3700702.53845  23651035.4194   23651040.5364
       216.0004        153.0004
 07  2 18  1 38 25.0000000  0  8G 1G18G 3G14G22G19G31G11
  21254030.4144   -3321240.53649  -2275584.88547  21254029.9814   21254035.8924
       241.0004        204.0004
  23761385.4604    1979757.40049   1542452.73945  23761384.7664   23761389.7114
       211.0004        154.0004
  24234254.4984    2590813.07949   2016321.31845  24234254.9044   24234260.8944
       212.0004        147.0004
  20557347.9864     239988.37149    194893.99347  20557347.5344   20557352.0094
       238.0004        212.0004
  21498746.7614     538942.42949    424728.61647  21498746.3384   21498749.3364
       239.0004        200.0004
  22987809.8594     948916.28449    744007.95846  22987809.3614   22987813.0804
       224.0004        179.0004
  22341718.0304   -5234284.01349  -4054813.95147  22341718.2404   22341722.3784
       230.0004        188.0004
  23648312.1914   -4808344.23849  -3711854.65645  23648311.3554   23648315.9914
       217.0004        153.0004
 07  2 18  1 38 30.0000000  0  8G 1G18G 3G14G22G19G31G11
  21252598.6664   -3328764.36149  -2281447.60347  21252598.2924   21252604.2254
       241.0004        204.0004
  23763474.6014    1990736.04049   1551007.51645  23763474.0794   23763478.4764
       214.0004        154.0004
  24236739.6924    2603872.77949   2026497.70245  24236739.6444   24236745.9064
       213.0004        147.0004
  20558402.9264     245532.10649    199213.78847  20558402.3844   20558406.8894
       238.0004        212.0004
  21499859.1544     544788.05749    429283.65547  21499859.1074   21499861.7074
       239.0004        200.0004
  22989388.4724     957211.91249    750472.08746  22989388.2184   22989392.2594
       224.0004        179.0004
  22338828.5524   -5249468.21249  -4066645.78647  22338828.6314   22338832.9264
       229.0004        188.0004
  23645590.1994   -4822648.50849  -3723000.83645  23645590.0194   23645593.9184
       217.0004        154.0004
 07  2 18  1 38 35.0000000  0  8G 1G18G 3G14G22G19G31G11
  21251168.9204   -3336277.71849  -2287302.16047  21251168.5224   21251174.3534
       241.0004        204.0004
  23765564.3594    2001717.92049   1559564.83545  23765563.8724   23765568.1234
       213.0004        154.0004
  24239225.0784    2616933.33949   2036674.76545  24239225.4034   24239231.4524
       212.0004        147.0004
  20559459.6584     251085.24549    203540.90947  20559459.0934   20559463.6234
       238.0004        212.0004
  21500972.4054     550638.23249    433842.23547  21500971.9974   21500974.9444
       239.0004        200.0004
  22990969.0384     965517.84349    756944.23346  22990968.6044   22990972.5694
       224.0004        179.0004
  22335940.4524   -5264645.22649  -4078472.02647  22335940.7604   22335945.0774
       231.0004        188.0004
  23642869.6104   -4836945.40149  -3734141.27045  23642868.7434   23642873.7204
       217.0004        154.0004
 07  2 18  1 38 40.0000000  0  8G 1G18G 3G14G22G19G31G11
  21249741.2524   -3343780.15149  -2293148.21147  21249740.7914   21249746.6144
       241.0004        204.0004
  23767654.8264    2012703.49949   1568125.03645  23767654.5354   23767659.0144
       211.0004        154.0004
  24241710.6714    2629995.18949   2046852.82645  24241710.7734   24241717.0854
       213.0004        148.0004
  20560518.2624     256648.24749    207875.71647  20560518.0804   20560522.3994
       238.0004        212.0004
  21502086.6104     556493.39549    438404.69947  21502086.5354   21502089.2544
       239.0004        200.0004
  22992551.6514     973834.46749    763424.70846  22992551.3284   22992555.6264
       224.0004        179.0004
  22333053.8124   -5279814.65349  -4090292.35147  22333053.8794   22333058.5854
       230.0004        188.0004
  23640150.4724   -4851234.45349  -3745275.59745  23640149.6854   23640154.2964
       216.0004        154.0004
 07  2 18  1 38 45.0000000  0  8G 1G18G 3G14G22G19G31G11
  21248315.5314   -3351272.32949  -2298986.26847  21248314.9184   21248320.8574
       240.0004        205.0004
  23769745.8814    2023692.12449   1576687.58445  23769745.5284   23769750.3314
       212.0004        153.0004
  24244196.3884    2643057.63849   2057031.35745  24244196.2924   24244202.6194
       212.0004        148.0004
  20561578.6044     262220.47049    212217.70847  20561578.2364   20561582.5864
       238.0004        212.0004
  21503201.6224     562352.91549    442970.55847  21503201.7034   21503204.0354
       239.0004        200.0004
  22994136.1904     982161.15849    769913.04146  22994135.7314   22994139.6804
       225.0004        179.0004
  22330168.4794   -5294977.05849  -4102107.20447  22330169.4254   22330172.8454
       231.0004        188.0004
  23637432.7054   -4865516.34149  -3756404.34045  23637432.3364   23637436.4684
       216.0004        154.0004
 07  2 18  1 38 50.0000000  0  8G 1G18G 3G14G22G19G31G11
  21246891.8544   -3358753.72749  -2304815.92547  21246891.6534   21246897.3514
       241.0004        205.0004
  23771837.6244    2034684.31249   1585252.93245  23771837.0304   23771841.8774
       211.0004        153.0004
  24246682.2924    2656121.15749   2067210.72845  24246681.6624   24246688.3904
       212.0004        148.0004
  20562640.8114     267802.37449    216567.24647  20562640.4904   20562644.8024
       238.0004        212.0004
  21504317.5804     568217.26849    447540.18347  21504317.7414   21504320.1344
       239.0004        200.0004
  22995722.7474     990498.39649    776409.59046  22995722.0534   22995726.1564
       224.0004        179.0004
  22327284.6164   -5310131.94449  -4113916.19647  22327284.9724   22327289.5434
       231.0004        188.0004
  23634716.3884   -4879790.54849  -3767527.09045  23634715.9474   23634719.9584
       212.0004        154.0004
 07  2 18  1 38 55.0000000  0  8G 1G18G 3G14G22G19G31G11
  21245470.2614   -3366224.31549  -2310637.16247  21245469.9774   21245475.8754
       241.0004        205.0004
  23773930.0154    2045680.07349   1593821.05245  23773929.3714   23773934.8034
       208.0004        153.0004
  24249168.4214    2669185.77149   2077390.94245  24249167.5114   24249174.8044
       212.0004        147.0004
  20563704.8584     273394.03949    220924.38547  20563704.6934   20563708.7334
       239.0004        212.0004
  21505434.4504     574086.50049    452113.61047  21505434.5274   21505437.0724
       239.0004        200.0004
  22997311.3034     998846.21749    782914.38046  22997310.3234   22997314.9084
       223.0004        179.0004
  22324402.1964   -5325279.20849  -4125719.25447  22324402.3784   22324407.2674
       231.0004        188.0004
  23632001.5294   -4894057.02349  -3778643.81345  23632001.0264   23632005.3844
       216.0004        154.0004
 07  2 18  1 39  0.0000000  0  8G 1G18G 3G14G22G19G31G11
  21244050.6194   -3373684.55949  -2316450.33647  21244050.3704   21244056.2004
       241.0004        205.0004
  23776023.0244    2056679.01349   1602391.64345  23776023.1224   23776028.2904
       211.0004        152.0004
  24251654.6494    2682250.95749   2087571.60445  24251654.3194   24251660.3514
       211.0004        147.0004
  20564770.6994     278994.99549    225288.77047  20564770.4564   20564774.7084
       239.0004        212.0004
  21506552.1664     579960.15649    456690.48447  21506551.9744   21506554.8294
       239.0004        200.0004
  22998901.7574    1007204.13749    789427.04746  22998901.3824   22998905.0454
       223.0004        179.0004
  22321521.1354   -5340419.37549  -4137516.78447  22321521.4324   22321525.1934
       231.0004        188.0004
  23629288.0364   -4908316.25849  -3789754.89945  23629287.0354   23629291.5734
       214.0004        154.0004
 07  2 18  1 39  5.0000000  0  8G 1G18G 3G14G22G19G31G11
  21242633.0154   -3381133.96049  -2322255.06147  21242632.6214   21242638.6004
       241.0004        205.0004
  23778116.7124    2067681.56749   1610965.06945  23778116.3034   23778120.4404
       210.0004        152.0004
  24254141.0664    2695317.28749   2097753.15845  24254141.2774   24254146.7084
       213.0004        148.0004
  20565838.3774     284605.68549    229660.73947  20565837.9574   20565842.4334
       239.0004        212.0004
  21507670.8434     585838.72949    461271.19747  21507670.7994   21507673.3704
       239.0004        200.0004
  23000494.2354    1015572.61549    795947.93846  23000494.1794   23000497.7514
       225.0004        179.0004
  22318641.5194   -5355551.94349  -4149308.38747  22318642.1364   22318645.9294
       230.0004        189.0004
  23626576.0284   -4922567.71949  -3800859.92945  23626574.6034   23626579.9284
       214.0004        154.0004
 07  2 18  1 39 10.0000000  0  8G 1G18G 3G14G22G19G31G11
  21241217.4794   -3388572.74549  -2328051.50647  21241217.1814   21241222.9584
       241.0004        205.0004
  23780211.0884    2078687.55449   1619541.16845  23780209.6634   23780215.5264
       211.0004        151.0004
  24256627.6744    2708384.46549   2107935.37445  24256626.5274   24256632.8884
       212.0004        148.0004
  20566907.8954     290225.92949    234040.14947  20566907.5864   20566911.7964
       239.0004        212.0004
  21508790.3924     591722.01149    465855.56747  21508790.4044   21508792.9014
       239.0004        200.0004
  23002088.6884    1023951.46749    802476.90946  23002087.9964   23002092.2584
       224.0004        179.0004
  22315763.2924   -5370677.10049  -4161094.21747  22315763.4984   22315767.3694
       230.0004        189.0004
  23623865.4494   -4936811.56349  -3811959.01745  23623865.4984   23623870.1484
       214.0004        154.0004
 07  2 18  1 39 15.0000000  0  8G 1G18G 3G14G22G19G31G11
  21239803.9024   -3396001.09249  -2333839.83047  21239803.5104   21239809.5344
       241.0004        205.0004
  23782306.0874    2089696.79049   1628119.78345  23782305.9624   23782310.9034
       211.0004        151.0004
  24259114.3974    2721452.34449   2118118.12945  24259113.0064   24259120.3204
       211.0004        148.0004
  20567979.1694     295855.53049    238426.85147  20567978.8354   20567983.1734
       239.0004        212.0004
  21509910.8144     597609.83049    470443.48047  21509910.6994   21509913.6344
       239.0004        200.0004
  23003685.0634    1032340.48049    809013.80146  23003684.7204   23003688.3154
       225.0004        179.0004
  22312886.4524   -5385794.99149  -4172874.38247  22312886.8404   22312890.8244
       230.0004        189.0004
  23621156.3054   -4951048.01249  -3823052.35145  23621155.6744   23621159.4834
       214.0004        154.0004
 07  2 18  1 39 20.0000000  0  8G 1G18G 3G14G22G19G31G11
  21238392.3824   -3403418.58249  -2339619.68647  21238392.1474   21238397.8784
       241.0004        205.0004
  23784401.7874    2100709.68749   1636701.27845  23784402.0214   23784406.5534
       212.0004        151.0004
  24261601.2864    2734521.24349   2128301.67845  24261601.3134   24261608.0944
       213.0004        148.0004
  20569052.3144     301494.86549    242821.13947  20569051.9424   20569056.1594
       239.0004        212.0004
  21511032.1714     603502.59849    475035.24947  21511031.9824   21511034.9204
       239.0004        200.0004
  23005283.5034    1040740.07649    815558.93646  23005283.0944   23005286.9414
       225.0004        179.0004
  22310011.0694   -5400905.20949  -4184648.58047  22310011.3214   22310015.6164
       230.0004        188.0004
  23618448.6284   -4965276.66349  -3834139.60545  23618448.3384   23618453.2644
       214.0004        154.0004
 07  2 18  1 39 25.0000000  0  8G 1G18G 3G14G22G19G31G11
  21236982.8464   -3410825.72849  -2345391.48647  21236982.5834   21236988.2104
       241.0004        205.0004
  23786498.1044    2111725.76249   1645285.23945  23786498.5304   23786502.8754
       212.0004        151.0004
  24264088.3274    2747590.75349   2138485.71345  24264087.8524   24264095.0344
       212.0004        148.0004
  20570127.2204     307143.42549    247222.61747  20570126.8774   20570131.1124
       239.0004        212.0004
  21512154.3874     609399.79449    479630.46947  21512154.4654   21512156.8494
       239.0004        200.0004
  23006883.8154    1049149.73449    822111.92146  23006883.2964   23006886.9394
       224.0004        179.0004
  22307137.0354   -5416008.23149  -4196417.15247  22307136.9704   22307141.4374
       230.0004        188.0004
  23615742.3954   -4979497.90949  -3845221.09245  23615742.0524   23615746.5964
       214.0004        154.0004
 07  2 18  1 39 30.0000000  0  8G 1G18G 3G14G22G19G31G11
  21235575.3614   -3418222.12649  -2351154.90947  21235574.8474   21235580.9954
       241.0004        205.0004
  23788595.0524    2122745.37349   1653871.94945  23788595.0084   23788599.3354
       211.0004        151.0004
  24266575.5954    2760661.31949   2148670.57445  24266575.2304   24266582.5914
       213.0004        148.0004
  20571203.9244     312801.62049    251631.60347  20571203.3724   20571207.7904
       239.0004        212.0004
  21513277.5144     615301.82549    484229.45647  21513277.3084   21513280.2824
       238.0004        200.0004
  23008486.1314    1057569.86049    828673.05746  23008485.0274   23008489.2554
       222.0004        179.0004
  22304264.4784   -5431103.58549  -4208179.76047  22304264.5094   22304269.1374
       230.0004        189.0004
  23613037.6414   -4993711.43649  -3856296.55845  23613036.8154   23613041.3264
       213.0004        154.0004
 07  2 18  1 39 35.0000000  0  8G 1G18G 3G14G22G19G31G11
  21234169.9214   -3425607.82149  -2356909.99547  21234169.4504   21234175.2514
       241.0004        205.0004
  23790692.6804    2133768.47649   1662461.37745  23790692.0874   23790697.0874
       211.0004        151.0004
  24269063.0434    2773732.82749   2158856.15845  24269063.2674   24269070.0344
       214.0004        148.0004
  20572282.4804     318469.37749    256048.03947  20572282.1754   20572286.4524
       239.0004        212.0004
  21514401.5504     621208.66949    488832.18747  21514401.3504   21514404.1624
       238.0004        200.0004
  23010090.3914    1066000.36449    835242.27546  23010089.5464   23010093.3424
       223.0004        179.0004
  22301393.3324   -5446191.36849  -4219936.46647  22301393.0674   22301397.8494
       229.0004        188.0004
  23610334.3324   -5007917.28449  -3867366.05145  23610334.0364   23610338.2444
       216.0004        154.0004
 07  2 18  1 39 40.0000000  0  8G 1G18G 3G14G22G19G31G11
  21232766.4624   -3432983.04449  -2362656.91547  21232765.9424   21232771.9614
       241.0004        205.0004
  23792790.9384    2144794.87949   1671053.37045  23792789.7044   23792794.7794
       214.0004        151.0004
  24271550.6034    2786804.96449   2169042.24245  24271550.6754   24271557.3994
       213.0004        149.0004
  20573362.7704     324146.46249    260471.74447  20573362.2384   20573366.6374
       239.0004        212.0004
  21515526.4344     627120.06849    493438.47347  21515526.0814   21515528.9924
       238.0004        200.0004
  23011696.5794    1074441.00649    841819.40146  23011695.9844   23011699.4514
       223.0004        179.0004
  22298523.6144   -5461271.77049  -4231687.42247  22298523.6934   22298528.0324
       229.0004        189.0004
  23607632.4494   -5022115.67249  -3878429.72445  23607631.8574   23607636.9984
       214.0004        154.0004
 07  2 18  1 39 45.0000000  0  8G 1G18G 3G14G22G19G31G11
  21231365.0244   -3440347.67349  -2368395.58247  21231364.5024   21231370.4344
       241.0004        205.0004
  23794889.8304    2155824.71449   1679648.04245  23794888.6114   23794895.0644
       212.0004        151.0004
  24274038.3244    2799877.83949   2179228.89645  24274037.7534   24274045.0904
       213.0004        149.0004
  20574444.8754     329833.00349    264902.81547  20574444.5484   20574448.7304
       239.0004        212.0004
  21516652.2194     633036.16949    498048.42347  21516652.1324   21516655.0554
       239.0004        200.0004
  23013304.7084    1082891.90449    848404.50946  23013303.6814   23013307.7164
       223.0004        179.0004
  22295655.3144   -5476344.69249  -4243432.54947  22295655.3094   22295660.1904
       230.0004        189.0004
  23604932.0194   -5036306.40349  -3889487.42945  23604930.9364   23604936.4704
       213.0004        154.0004
 07  2 18  1 39 50.0000000  0  8G 1G18G 3G14G22G19G31G11
  21229965.5544   -3447701.86249  -2374126.11547  21229965.0414   21229971.1314
       241.0004        205.0004
  23796989.3344    2166857.79749   1688245.25045  23796988.6584   23796994.1524
       214.0004        151.0004
  24276526.1474    2812951.38449   2189416.06445  24276526.5704   24276533.0684
       214.0004        149.0004
  20575528.7724     335528.80049    269341.10247  20575528.3584   20575532.7524
       238.0004        212.0004
  21517778.8714     638956.83749    502661.93647  21517778.8424   21517781.7334
       239.0004        200.0004
  23014914.7874    1091352.90149    854997.49946  23014914.2264   23014918.4434
       223.0004        178.0004
  22292788.4314   -5491410.23849  -4255171.92547  22292788.9634   22292793.0004
       230.0004        189.0004
  23602233.0504   -5050489.64549  -3900539.29745  23602232.4744   23602238.1504
       215.0004        154.0004
 07  2 18  1 39 55.0000000  0  8G 1G18G 3G14G22G19G31G11
  21228568.1354   -3455045.32349  -2379848.29047  21228567.8284   21228573.8704
       240.0004        205.0004
  23799089.5204    2177894.44549   1696845.24345  23799089.4834   23799092.8534
       215.0004        152.0004
  24279014.1804    2826025.79349   2199603.91545  24279014.4584   24279021.1244
       213.0004        149.0004
  20576614.4394     341234.12449    273786.80847  20576614.0574   20576618.3434
       238.0004        212.0004
  21518906.4544     644882.35149    507279.22447  21518906.4214   21518909.2114
       239.0004        200.0004
  23016526.8304    1099824.26949    861598.56346  23016526.1514   23016530.0234
       223.0004        178.0004
  22289922.9864   -5506468.15949  -4266905.36347  22289923.6074   22289927.6784
       231.0004        189.0004
  23599535.5224   -5064665.09049  -3911585.09045  23599535.2724   23599539.3754
       214.0004        154.0004
 07  2 18  1 40  0.0000000  0  8G 1G18G 3G14G22G19G31G11
  21227172.7284   -3462378.22349  -2385562.23147  21227172.2944   21227178.2314
       241.0004        205.0004
  23801190.3674    2188934.43049   1705447.83045  23801189.6794   23801194.4904
       214.0004        152.0004
  24281502.2944    2839100.88249   2209792.29445  24281501.9564   24281508.2684
       211.0004        149.0004
  20577701.9104     346948.87049    278239.86047  20577701.5844   20577705.8054
       239.0004        212.0004
  21520034.9274     650812.54449    511900.15147  21520034.8104   21520037.6674
       238.0004        200.0004
  23018140.8214    1108305.83249    868207.57546  23018139.7234   23018144.7414
       222.0004        178.0004
  22287058.9944   -5521518.54049  -4278632.92747  22287059.3604   22287063.6184
       230.0004        189.0004
  23596839.4844   -5078832.87649  -3922624.91445  23596838.9384   23596843.8254
       215.0004        154.0004
 07  2 18  1 40  5.0000000  0  8G 1G18G 3G14G22G19G31G11
  21225779.3504   -3469700.31449  -2391267.75747  21225778.7094   21225785.0084
       240.0004        205.0004
  23803291.9064    2199978.07249   1714053.26345  23803291.7944   23803297.3364
       214.0004        152.0004
  24283990.5864    2852176.90749   2219981.39645  24283990.5034   24283996.8604
       212.0004        149.0004
  20578791.2384     352673.24149    282700.40747  20578790.8504   20578795.3864
       239.0004        212.0004
  21521164.3514     656747.65249    516524.91147  21521164.0384   21521167.4894
       239.0004        200.0004
  23019756.7664    1116797.78349    874824.68146  23019756.0844   23019760.1374
       222.0004        178.0004
  22284196.4774   -5536561.15649  -4290354.43647  22284197.3314   22284201.3864
       231.0004        190.0004
  23594144.9064   -5092992.82649  -3933658.63745  23594144.1644   23594149.4824
       216.0004        155.0004
 07  2 18  1 40 10.0000000  0  8G 1G18G 3G14G22G19G31G11
  21224388.0224   -3477011.75249  -2396964.97747  21224387.4624   21224393.7284
       241.0004        205.0004
  23805394.1024    2211025.17749   1722661.40845  23805394.1794   23805398.1434
       214.0004        153.0004
  24286479.0304    2865253.70449   2230171.10645  24286478.0314   24286485.3434
       212.0004        149.0004
  20579882.3524     358407.06249    287168.32647  20579881.9744   20579886.3354
       238.0004        212.0004
  21522294.6614     662687.53649    521153.39047  21522294.4664   21522297.4924
       239.0004        200.0004
  23021374.6844    1125299.99349    881449.77346  23021373.7354   23021377.8984
       224.0004        178.0004
  22281335.4134   -5551596.16449  -4302070.01947  22281336.0824   22281339.9344
       232.0004        190.0004
  23591451.8204   -5107145.01849  -3944686.31245  23591451.0384   23591456.5134
       215.0004        155.0004
 07  2 18  1 40 15.0000000  0  9G 1G18G 3G14G22G19G31G25G11
  21222998.6074   -3484313.18849  -2402654.40247  21222997.9844   21223004.1134
       241.0004        205.0004
  23807496.8334    2222075.13349   1731271.76245  23807496.4734   23807501.0494
       216.0004        153.0004
  24288967.4594    2878330.57949   2240360.87445  24288966.8784   24288974.2904
       211.0004        149.0004
  20580975.1374     364149.69549    291643.10547  20580974.8684   20580979.2124
       239.0004        212.0004
  21523425.7664     668631.52449    525785.07647  21523425.5834   21523428.4864
       239.0004        200.0004
  23022994.4344    1133811.76749    888082.32446  23022994.2034   23022998.1174
       224.0004        178.0004
  22278475.6964   -5566624.13649  -4313780.12047  22278476.1524   22278480.3194
       231.0004        190.0004
  24334514.1024   -6153777.08259  -4762596.31145  24334512.6074   24334520.2744
       203.0004        136.0004
  23588760.0914   -5121290.10449  -3955708.45345  23588759.8314   23588763.8794
       216.0004        155.0004
 07  2 18  1 40 20.0000000  0  9G 1G18G 3G14G22G19G31G25G11
  21221611.1314   -3491604.33749  -2408335.81547  21221610.6354   21221616.8784
       241.0004        205.0004
  23809600.1724    2233128.16249   1739884.51145  23809600.2074   23809604.3474
       216.0004        153.0004
  24291455.9564    2891407.86449   2250550.96445  24291455.4854   24291462.5724
       212.0004        149.0004
  20582069.6304     369901.40649    296124.95847  20582069.3804   20582073.4874
       239.0004        212.0004
  21524557.7304     674579.91149    530420.17847  21524557.6294   21524560.7724
       239.0004        200.0004
  23024616.0484    1142333.42049    894722.57146  23024615.2114   23024618.5204
       224.0004        178.0004
  22275617.3444   -5581644.81549  -4325484.54047  22275617.8114   22275621.8454
       230.0004        190.0004
  24331019.4134   -6172141.63349  -4776906.31945  24331017.6874   24331026.0574
       202.0004        136.0004
  23586069.7764   -5135427.78849  -3966724.82145  23586069.3744   23586073.8694
       214.0004        155.0004
 07  2 18  1 40 25.0000000  0  9G 1G18G 3G14G22G19G31G25G11
  21220225.6744   -3498884.92149  -2414008.99447  21220225.5644   21220231.1994
       241.0004        205.0004
  23811704.1524    2244184.57749   1748499.90045  23811704.0304   23811708.2314
       213.0004        153.0004
  24293944.5474    2904485.79949   2260741.55845  24293943.5234   24293950.9314
       211.0004        150.0004
  20583165.9374     375662.46349    300614.09547  20583165.5414   20583170.0174
       239.0004        212.0004
  21525690.5514     680532.98949    535058.94147  21525690.5454   21525693.0644
       239.0004        200.0004
  23026239.6194    1150865.17049    901370.68546  23026238.7374   23026243.2474
       224.0004        178.0004
  22272760.4644   -5596657.92249  -4337183.05547  22272761.0284   22272764.7274
       231.0004        190.0004
  24327524.7924   -6190505.72649  -4791215.96145  24327524.0864   24327531.7254
       201.0004        135.0004
  23583380.9214   -5149557.75949  -3977735.17945  23583380.8654   23583385.9004
       217.0004        156.0004
 07  2 18  1 40 30.0000000  0  9G 1G18G 3G14G22G19G31G25G11
  21218842.2804   -3506154.74049  -2419673.78347  21218841.9614   21218847.8274
       241.0004        205.0004
  23813808.8374    2255244.59649   1757118.09145  23813808.3644   23813813.1724
       213.0004        153.0004
  24296433.3474    2917564.59049   2270932.82345  24296432.6104   24296440.2454
       212.0004        150.0004
  20584264.0374     381433.07049    305110.67547  20584263.7114   20584267.9424
       238.0004        212.0004
  21526824.3084     686490.93749    539701.49647  21526824.4804   21526826.9074
       239.0004        200.0004
  23027865.1114    1159407.23949    908026.84246  23027864.6314   23027868.4134
       223.0004        178.0004
  22269905.0584   -5611663.21249  -4348875.48347  22269905.4754   22269909.2764
       231.0004        190.0004
  24324030.3374   -6208869.06749  -4805525.02745  24324029.3754   24324036.8774
       204.0004        135.0004
  23580693.5674   -5163679.84749  -3988739.40145  23580693.0764   23580697.3264
       216.0004        156.0004
 07  2 18  1 40 35.0000000  0  9G 1G18G 3G14G22G19G31G25G11
  21217460.9534   -3513413.72349  -2425330.13147  21217460.5784   21217466.4374
       241.0004        205.0004
  23815914.2134    2266308.30549   1765739.15745  23815914.4364   23815918.0334
       215.0004        153.0004
  24298922.2884    2930644.24949   2281124.76445  24298922.0264   24298929.0484
       213.0004        150.0004
  20585363.9914     387213.29349    309614.74647  20585363.6194   20585368.2074
       239.0004        212.0004
  21527959.0164     692453.82849    544347.90747  21527958.8344   21527961.6674
       239.0004        200.0004
  23029492.5914    1167959.70749    914691.10146  23029492.1444   23029495.8324
       223.0004        178.0004
  22267051.1554   -5626660.63549  -4360561.77447  22267051.6314   22267055.7614
       231.0004        190.0004
  24320535.9854   -6227231.67349  -4819833.51345  24320535.2344   24320542.0664
       203.0004        135.0004
  23578007.7494   -5177793.95649  -3999737.40045  23578006.9654   23578012.1844
       215.0004        156.0004
 07  2 18  1 40 40.0000000  0  9G 1G18G 3G14G22G19G31G25G11
  21216081.5954   -3520662.28949  -2430978.36347  21216081.2634   21216087.1474
       241.0004        205.0004
  23818020.2194    2277375.24449   1774362.75345  23818019.3384   23818023.0614
       214.0004        152.0004
  24301411.3474    2943724.33949   2291317.03845  24301411.1734   24301417.5874
       214.0004        150.0004
  20586465.6564     393002.71849    314125.98747  20586465.1174   20586469.7334
       239.0004        212.0004
  21529094.6094     698421.29749    548997.87747  21529094.4784   21529097.3884
       239.0004        200.0004
  23031121.9844    1176522.16149    921363.13946  23031120.7974   23031125.0424
       222.0004        178.0004
  22264198.6494   -5641650.55249  -4372242.23047  22264198.8964   22264203.4014
       231.0004        190.0004
  24317041.7144   -6245593.90049  -4834141.71445  24317041.6024   24317047.8214
       204.0004        135.0004
  23575323.3674   -5191900.45949  -4010729.47545  23575323.4934   23575327.5514
       216.0004        157.0004
 07  2 18  1 40 45.0000000  0  9G 1G18G 3G14G22G19G31G25G11
  21214704.2924   -3527900.05749  -2436618.17547  21214703.7764   21214709.6514
       241.0004        205.0004
  23820126.8894    2288445.79649   1782989.16745  23820126.4904   23820131.1514
       215.0004        152.0004
  24303900.5894    2956805.24349   2301509.95045  24303901.1294   24303906.9384
       215.0004        150.0004
  20587569.1534     398801.68649    318644.66547  20587568.7434   20587573.2534
       239.0004        212.0004
  21530231.1254     704393.70249    553651.70347  21530231.1114   21530233.8404
       240.0004        200.0004
  23032753.3034    1185094.92549    928043.22146  23032752.5974   23032757.2994
       222.0004        178.0004
  22261347.6614   -5656632.58949  -4383916.53047  22261347.5404   22261352.0174
       230.0004        190.0004
  24313547.5934   -6263955.30049  -4848449.26845  24313546.6524   24313554.3574
       206.0004        135.0004
  23572640.4694   -5205999.03649  -4021715.36645  23572639.9914   23572644.0054
       215.0004        157.0004
 07  2 18  1 40 50.0000000  0  9G 1G18G 3G14G22G19G31G25G11
  21213328.9764   -3535127.45949  -2442249.91747  21213328.5384   21213334.2294
       241.0004        205.0004
  23822234.1684    2299519.55949   1791618.07845  23822233.2214   23822237.6204
       214.0004        152.0004
  24306389.9334    2969886.59949   2311703.21445  24306390.1564   24306396.4444
       213.0004        151.0004
  20588674.4164     404609.79049    323170.46047  20588674.0184   20588678.3884
       239.0004        212.0004
  21531368.4754     710370.60749    558309.03447  21531368.3444   21531371.2854
       240.0004        200.0004
  23034386.5164    1193677.59149    934731.00346  23034385.4174   23034389.9724
       222.0004        178.0004
  22258498.1014   -5671607.18049  -4395585.03747  22258497.9824   22258502.5334
       231.0004        190.0004
  24310053.5684   -6282316.34949  -4862756.55245  24310051.5524   24310059.2564
       203.0004        135.0004
  23569959.0194   -5220090.06749  -4032695.37845  23569958.8274   23569964.0214
       215.0004        157.0004
 07  2 18  1 40 55.0000000  0  9G 1G18G 3G14G22G19G31G25G11
  21211955.7394   -3542343.83149  -2447873.05847  21211955.5194   21211961.2094
       241.0004        205.0004
  23824342.1454    2310597.18349   1800249.99445  23824341.3924   23824347.1354
       215.0004        153.0004
  24308879.4454    2982968.98449   2321897.27545  24308879.5434   24308885.8644
       213.0004        151.0004
  20589781.5224     410427.65749    327703.86747  20589781.1814   20589785.5464
       238.0004        212.0004
  21532506.8284     716352.69449    562970.40247  21532506.6264   21532509.4344
       239.0004        200.0004
  23036021.7524    1202270.79349    941427.00846  23036021.0844   23036025.1724
       222.0004        177.0004
  22255650.0854   -5686573.63449  -4407247.20847  22255650.2544   22255654.3134
       231.0004        190.0004
  24306559.7554   -6300676.31249  -4877062.98745  24306557.2914   24306565.0224
       204.0004        135.0004
  23567279.1204   -5234172.84649  -4043668.97245  23567278.8024   23567283.4424
       215.0004        157.0004
 07  2 18  1 41  0.0000000  0  9G 1G18G 3G14G22G19G31G25G11
  21210584.4944   -3549549.75849  -2453488.06247  21210584.0584   21210589.8984
       241.0004        205.0004
  23826450.7784    2321678.06149   1808884.45245  23826450.3424   23826455.7804
       212.0004        153.0004
  24311369.0314    2996051.77349   2332091.64945  24311369.1994   24311376.1834
       214.0004        151.0004
  20590890.3554     416254.71549    332244.43247  20590889.8444   20590894.3494
       239.0004        212.0004
  21533646.0624     722339.36749    567635.34047  21533645.9574   21533648.4884
       239.0004        200.0004
  23037658.8614    1210873.95849    948130.77146  23037658.6414   23037662.4154
       222.0004        177.0004
  22252803.4844   -5701532.55749  -4418903.49847  22252803.5754   22252807.8894
       231.0004        190.0004
  24303066.0314   -6319035.83049  -4891369.07745  24303064.8884   24303071.0514
       202.0004        135.0004
  23564600.6974   -5248247.97949  -4054636.60145  23564600.5174   23564604.7614
       216.0004        158.0004
 07  2 18  1 41  5.0000000  0  9G 1G18G 3G14G22G19G31G25G11
  21209215.2654   -3556745.08649  -2459094.81047  21209215.2064   21209220.8134
       241.0004        205.0004
  23828560.0594    2332762.43249   1817521.61145  23828559.2024   23828564.0014
       212.0004        152.0004
  24313858.7204    3009135.16549   2342286.49745  24313858.8264   24313865.4544
       215.0004        151.0004
  20592001.0024     422091.08949    336792.25747  20592000.5154   20592004.9794
       239.0004        212.0004
  21534786.1774     728330.76249    572303.95847  21534786.3384   21534788.9684
       239.0004        200.0004
  23039297.8904    1219487.20249    954842.38946  23039296.9774   23039300.8474
       222.0004        177.0004
  22249958.3664   -5716483.74849  -4430553.77747  22249958.4544   22249962.5914
       230.0004        190.0004
  24299572.4494   -6337394.71049  -4905674.67045  24299571.7074   24299577.8504
       202.0004        135.0004
  23561923.7234   -5262315.30949  -4065598.15545  23561923.1004   23561928.2564
       215.0004        158.0004
 07  2 18  1 41 10.0000000  0  9G 1G18G 3G14G22G19G31G25G11
  21207848.0524   -3563929.80449  -2464693.28447  21207847.6734   21207853.5684
       240.0004        205.0004
  23830670.0064    2343850.27149   1826161.47345  23830669.1114   23830673.7434
       213.0004        151.0004
  24316348.5244    3022219.00449   2352481.70045  24316348.5124   24316354.3234
       214.0004        151.0004
  20593113.3814     427936.77849    341347.34147  20593113.1044   20593117.2834
       239.0004        212.0004
  21535927.2164     734326.90549    576976.27747  21535927.1384   21535929.9034
       239.0004        200.0004
  23040938.8494    1228110.52349    961561.86546  23040938.0114   23040941.9884
       221.0004        177.0004
  22247114.7084   -5731427.18549  -4442198.00347  22247115.0434   22247118.8614
       232.0004        190.0004
  24296079.0064   -6355752.94949  -4919979.76445  24296078.2254   24296084.5024
       204.0004        135.0004
  23559248.2724   -5276374.77749  -4076553.57345  23559247.8124   23559253.0364
       217.0004        158.0004
 07  2 18  1 41 15.0000000  0  9G 1G18G 3G14G22G19G31G25G11
  21206482.8664   -3571103.80949  -2470283.41747  21206482.4184   21206488.2524
       241.0004        205.0004
  23832780.6174    2354941.61749   1834804.08845  23832780.6094   23832782.8634
       217.0004        151.0004
  24318838.4624    3035303.48249   2362677.39945  24318837.4194   24318844.6934
       213.0004        151.0004
  20594227.5884     433791.88749    345909.76447  20594227.2234   20594231.7054
       239.0004        212.0004
  21537069.1564     740327.88949    581652.37347  21537068.9274   21537071.9454
       239.0004        200.0004
  23042581.7324    1236744.00349    968289.24846  23042580.8734   23042584.7534
       222.0004        177.0004
  22244272.5824   -5746362.73549  -4453836.08947  22244272.8604   22244276.8454
       231.0004        190.0004
  24292585.7004   -6374110.43449  -4934284.27045  24292585.6134   24292592.5514
       202.0004        135.0004
  23556574.3204   -5290426.30349  -4087502.80145  23556573.9334   23556578.3874
       216.0004        158.0004
 07  2 18  1 41 20.0000000  0  9G 1G18G 3G14G22G19G31G25G11
  21205119.7174   -3578267.24349  -2475865.30847  21205119.2314   21205125.4484
       241.0004        205.0004
  23834891.8964    2366036.40849   1843449.37945  23834891.9884   23834895.9194
       217.0004        152.0004
  24321328.4604    3048388.54549   2372873.55045  24321327.8554   24321334.5964
       213.0004        151.0004
  20595343.5434     439656.26449    350479.40947  20595343.0814   20595347.5814
       238.0004        212.0004
  21538212.0004     746333.58649    586332.14047  21538211.8864   21538214.7524
       239.0004        200.0004
  23044226.5324    1245387.48449    975024.42746  23044225.7154   23044229.6734
       222.0004        177.0004
  22241431.9124   -5761290.54549  -4465468.14347  22241432.0274   22241436.2254
       231.0004        190.0004
  24289092.5074   -6392467.25549  -4948588.25945  24289092.2214   24289098.5744
       204.0004        135.0004
  23553901.8534   -5304470.05449  -4098445.98045  23553901.3134   23553905.8264
       216.0004        158.0004
 07  2 18  1 41 25.0000000  0  9G 1G18G 3G14G22G19G31G25G11
  21203758.5694   -3585420.09149  -2481438.95147  21203758.3244   21203764.0314
       241.0004        205.0004
  23837003.8394    2377134.61649   1852097.33545  23837003.1264   23837008.0134
       213.0004        152.0004
  24323818.5734    3061474.19749   2383070.15745  24323818.4714   24323825.5474
       213.0004        152.0004
  20596461.2504     445529.92949    355056.29347  20596460.8274   20596465.2634
       238.0004        212.0004
  21539355.7344     752344.03949    591015.60847  21539355.3254   21539358.4254
       239.0004        200.0004
  23045873.2464    1254041.01949    981767.43746  23045872.3554   23045877.4494
       222.0004        177.0004
  22238592.7454   -5776210.57849  -4477094.13947  22238593.2024   22238596.8844
       231.0004        189.0004
  24285599.4434   -6410823.41749  -4962891.74345  24285599.8494   24285605.4974
       203.0004        135.0004
  23551230.9024   -5318505.89049  -4109382.98945  23551230.7024   23551235.1634
       216.0004        159.0004
 07  2 18  1 41 30.0000000  0  9G 1G18G 3G14G22G19G31G25G11
  21202399.4434   -3592562.26849  -2487004.28547  21202399.2444   21202405.0404
       241.0004        205.0004
  23839116.4684    2388236.36549   1860748.05745  23839116.0934   23839119.8324
       211.0004        151.0004
  24326308.7804    3074560.43249   2393267.22345  24326307.8584   24326315.5084
       211.0004        152.0004
  20597580.7784     451412.96949    359640.48247  20597580.4924   20597584.7814
       239.0004        212.0004
  21540500.4004     758359.33149    595702.85047  21540500.2624   21540503.1044
       239.0004        200.0004
  23047521.8534    1262704.61749    988518.29246  23047520.3744   23047525.3564
       221.0004        177.0004
  22235755.0464   -5791122.72449  -4488713.99047  22235755.6074   22235759.0684
       232.0004        189.0004
  24282106.5604   -6429178.80949  -4977194.63345  24282107.2374   24282113.0384
       203.0004        136.0004
  23548561.4774   -5332533.82149  -4120313.83445  23548561.1404   23548565.4484
       218.0004        159.0004
 07  2 18  1 41 35.0000000  0  9G 1G18G 3G14G22G19G31G25G11
  21201042.3364   -3599693.84149  -2492561.35047  21201042.2344   21201047.7444
       241.0004        205.0004
  23841229.7474    2399341.56649   1869401.46945  23841228.8214   23841234.0254
       213.0004        151.0004
  24328799.0704    3087647.13349   2403464.64345  24328798.2334   24328805.5744
       212.0004        152.0004
  20598702.0364     457305.29449    364231.90747  20598701.5964   20598706.1564
       239.0004        212.0004
  21541645.9874     764379.41149    600393.82347  21541645.8894   21541648.2254
       239.0004        200.0004
  23049172.3614    1271378.23249    995276.94346  23049171.3314   23049176.2084
       221.0004        177.0004
  22232918.8384   -5806027.04649  -4500327.74047  22232918.8814   22232922.7054
       231.0004        190.0004
  24278613.7734   -6447533.51749  -4991496.97645  24278614.5654   24278619.9934
       202.0004        136.0004
  23545893.5354   -5346553.87549  -4131238.54845  23545893.5874   23545898.0024
       219.0004        160.0004
 07  2 18  1 41 40.0000000  0  9G 1G18G 3G14G22G19G31G25G11
  21199687.2564   -3606814.88649  -2498110.20947  21199686.9624   21199692.7004
       241.0004        205.0004
  23843343.6484    2410450.18349   1878057.53045  23843342.0284   23843348.2294
       210.0004        151.0004
  24331289.4144    3100734.23349   2413662.37945  24331288.9994   24331296.5524
       213.0004        152.0004
  20599825.0484     463206.81649    368830.49947  20599824.6784   20599828.8404
       238.0004        212.0004
  21542792.4834     770404.17849    605088.44547  21542792.4454   21542795.0214
       238.0004        200.0004
  23050824.7704    1280061.77049   1002043.33246  23050823.6674   23050828.1424
       222.0004        176.0004
  22230084.1424   -5820923.59849  -4511935.43647  22230084.3434   22230088.4424
       231.0004        190.0004
  24275121.1214   -6465887.52349  -5005798.77645  24275121.2334   24275126.7484
       200.0004        136.0004
  23543227.1404   -5360566.05449  -4142157.12045  23543226.6934   23543231.8654
       219.0004        160.0004
 07  2 18  1 41 45.0000000  0  9G 1G18G 3G14G22G19G31G25G11
  21198334.2134   -3613925.31849  -2503650.80147  21198333.8794   21198339.6104
       241.0004        205.0004
  23845458.2064    2421562.22049   1886716.25045  23845456.4344   23845461.8484
       213.0004        150.0004
  24333779.8844    3113821.85549   2423860.52545  24333779.7354   24333787.7184
       212.0004        152.0004
  20600949.8244     469117.58549    373436.29447  20600949.3504   20600953.8414
       239.0004        212.0004
  21543939.8674     776433.71049    609786.78247  21543939.9014   21543942.2874
       239.0004        200.0004
  23052479.0984    1288755.32449   1008817.53446  23052477.9224   23052482.2904
       221.0004        176.0004
  22227250.8964   -5835812.30149  -4523537.02047  22227251.1544   22227255.1984
       232.0004        190.0004
  24271628.6184   -6484240.78049  -5020099.99645  24271629.0714   24271634.0054
       201.0004        135.0004
  23540562.2384   -5374570.33649  -4153069.53345  23540562.0784   23540566.4784
       219.0004        160.0004
 07  2 18  1 41 50.0000000  0  9G 1G18G 3G14G22G19G31G25G11
  21196983.1714   -3621024.98349  -2509183.01047  21196982.8344   21196988.5694
       241.0004        205.0004
  23847573.4244    2432677.88549   1895377.81645  23847572.9694   23847576.2354
       212.0004        149.0004
  24336270.4854    3126910.16949   2434059.20345  24336270.2614   24336278.1514
       215.0004        152.0004
  20602076.3904     475037.78649    378049.43447  20602075.9704   20602080.3714
       239.0004        212.0004
  21545088.1904     782468.21349    614488.98947  21545088.1664   21545090.8654
       239.0004        200.0004
  23054135.3334    1297459.01049   1015599.62246  23054134.1554   23054138.7044
       221.0004        176.0004
  22224419.1974   -5850692.98849  -4535132.34947  22224419.1054   22224423.5294
       231.0004        190.0004
  24268136.2584   -6502593.16149  -5034400.53345  24268136.2194   24268140.8374
       204.0004        135.0004
  23537898.8704   -5388566.51849  -4163975.64845  23537898.9924   23537903.2174
       219.0004        160.0004
 07  2 18  1 41 55.0000000  0  9G 1G18G 3G14G22G19G31G25G11
  21195634.1634   -3628114.16049  -2514707.03847  21195633.8284   21195639.5804
       241.0004        205.0004
  23849689.3004    2443796.93649   1904042.00945  23849688.3644   23849691.9934
       211.0004        149.0004
  24338761.1624    3139998.89149   2444258.20445  24338760.6074   24338768.9364
       211.0004        152.0004
  20603204.7264     480967.11549    382669.69547  20603204.2684   20603208.5604
       239.0004        212.0004
  21546237.4134     788507.39049    619194.84947  21546237.2104   21546239.9974
       239.0004        200.0004
  23055793.4654    1306172.56749   1022389.40446  23055792.7274   23055796.8424
       221.0004        176.0004
  22221588.9824   -5865565.89749  -4546721.63247  22221588.8844   22221593.0264
       231.0004        190.0004
  24264644.0254   -6520944.86549  -5048700.55145  24264644.4164   24264650.2594
       202.0004        135.0004
  23535237.0014   -5402554.82649  -4174875.62445  23535237.1344   23535241.4504
       219.0004        161.0004
 07  2 18  1 42  0.0000000  0  9G 1G18G 3G14G22G19G31G25G11
  21194287.1464   -3635192.68649  -2520222.76847  21194286.8014   21194292.5314
       241.0004        205.0004
  23851805.8244    2454919.46149   1912708.92745  23851806.3684   23851809.2154
       213.0004        149.0004
  24341251.9714    3153088.08549   2454457.56945  24341252.4824   24341259.0664
       215.0004        152.0004
  20604334.8014     486905.72449    387297.18447  20604334.4864   20604338.6144
       239.0004        212.0004
  21547387.5644     794551.35649    623904.43147  21547387.4544   21547390.0784
       239.0004        200.0004
  23057453.4784    1314896.13649   1029186.98746  23057452.7684   23057456.6484
       222.0004        176.0004
  22218760.2534   -5880430.85949  -4558304.70647  22218760.3424   22218764.5664
       231.0004        190.0004
  24261151.9834   -6539295.74249  -5062999.92245  24261152.1944   24261158.6064
       203.0004        135.0004
  23532576.6684   -5416535.15149  -4185769.38045  23532576.4464   23532581.2594
       218.0004        161.0004
 07  2 18  1 42  5.0000000  0  9G 1G18G 3G14G22G19G31G25G11
  21192942.1634   -3642260.62649  -2525730.25247  21192941.6324   21192947.3824
       241.0004        205.0004
  23853923.0394    2466045.50149   1921378.57345  23853922.2134   23853927.3144
       212.0004        149.0004
  24343742.8344    3166177.70849   2464657.27845  24343742.9474   24343749.6134
       214.0004        152.0004
  20605466.6484     492853.57449    391931.87447  20605466.4124   20605470.7064
       239.0004        212.0004
  21548538.6174     800600.09849    628617.74047  21548538.5374   21548540.9644
       238.0004        200.0004
  23059115.4184    1323629.60049   1035992.27846  23059114.6074   23059119.1294
       221.0004        176.0004
  22215933.0174   -5895287.93749  -4569881.64447  22215933.0304   22215937.4894
       231.0004        190.0004
  24257660.0724   -6557645.86049  -5077298.70045  24257659.2524   24257667.1504
       205.0004        135.0004
  23529917.8374   -5430507.56649  -4196656.97045  23529917.4374   23529921.7204
       218.0004        161.0004
 07  2 18  1 42 10.0000000  0  9G 1G18G 3G14G22G19G31G25G11
  21191599.1504   -3649318.19349  -2531229.64747  21191598.7114   21191604.6244
       241.0004        205.0004
  23856040.8384    2477174.75049   1930050.71345  23856039.7074   23856044.9954
       211.0004        148.0004
  24346233.7474    3179267.53049   2474857.13745  24346233.8334   24346240.1474
       213.0004        152.0004
  20606600.1934     498810.42349    396573.57847  20606599.8084   20606604.0954
       239.0004        212.0004
  21549690.5114     806653.38849    633334.58647  21549690.3104   21549693.0654
       239.0004        200.0004
  23060779.1844    1332372.78949   1042805.15646  23060778.6054   23060782.3304
       223.0004        176.0004
  22213107.2574   -5910137.30349  -4581452.57347  22213107.6364   22213111.3824
       230.0004        190.0004
  24254168.3094   -6575995.38449  -5091597.01045  24254167.7494   24254175.5274
       204.0004        136.0004
  23527260.4324   -5444472.27349  -4207538.55945  23527259.4474   23527264.7954
       218.0004        161.0004
 07  2 18  1 42 15.0000000  0  9G 1G18G 3G14G22G19G31G25G11
  21190258.1784   -3656365.10049  -2536720.74247  21190257.9804   21190263.5684
       241.0004        205.0004
  23858159.3174    2488307.60349   1938725.65545  23858159.0604   23858162.9664
       209.0004        148.0004
  24348724.7774    3192357.85949   2485057.39345  24348724.6294   24348731.2044
       213.0004        152.0004
  20607735.5094     504776.54449    401222.50547  20607735.0024   20607739.4744
       239.0004        212.0004
  21550843.3204     812711.48949    638055.18747  21550843.2824   21550845.9094
       238.0004        200.0004
  23062444.8994    1341125.98449   1049625.82746  23062444.3124   23062448.3184
       222.0004        177.0004
  22210283.0334   -5924978.67049  -4593017.27047  22210283.1714   22210287.3674
       231.0004        190.0004
  24250676.7024   -6594344.02049  -5105894.63445  24250676.0364   24250682.2894
       203.0004        136.0004
  23524604.5674   -5458428.91649  -4218413.86345  23524603.8264   23524608.0284
       218.0004        161.0004
 07  2 18  1 42 20.0000000  0  9G 1G18G 3G14G22G19G31G25G11
  21188919.2024   -3663401.38949  -2542203.55847  21188918.9274   21188924.8114
       241.0004        205.0004
  23860278.4414    2499443.84649   1947403.23645  23860278.5934   23860284.2964
       211.0004        148.0004
  24351215.8354    3205448.58149   2495257.95445  24351215.9644   24351222.8914
       213.0004        152.0004
  20608872.5944     510751.87849    405878.61347  20608872.1754   20608876.3914
       239.0004        212.0004
  21551997.0194     818774.37349    642779.51247  21551996.8834   21551999.6874
       239.0004        200.0004
  23064112.4924    1349889.10949   1056454.22846  23064112.0274   23064116.3774
       222.0004        177.0004
  22207460.3164   -5939812.07649  -4604575.76247  22207460.6554   22207464.9604
       231.0004        190.0004
  24247185.2394   -6612691.79949  -5120191.59145  24247184.2044   24247189.5364
       203.0004        136.0004
  23521950.2214   -5472377.53249  -4229282.90045  23521949.7034   23521953.6824
       219.0004        161.0004
 07  2 18  1 42 25.0000000  0  9G 1G18G 3G14G22G19G31G25G11
  21187582.2574   -3670427.07749  -2547678.11647  21187581.9124   21187587.6714
       241.0004        205.0004
  23862398.2464    2510583.59749   1956083.54545  23862397.5264   23862403.4424
       211.0004        147.0004
  24353707.0074    3218539.67949   2505458.80745  24353707.2094   24353713.5154
       211.0004        152.0004
  20610011.4064     516736.40749    410541.88347  20610011.0564   20610015.2614
       239.0004        212.0004
  21553151.6724     824842.05549    647507.57747  21553151.4444   21553154.2014
       239.0004        200.0004
  23065781.9584    1358662.13849   1063290.36046  23065780.7624   23065784.8794
       222.0004        177.0004
  22204639.0964   -5954637.50549  -4616128.03247  22204639.1884   22204643.8144
       231.0004        190.0004
  24243693.9734   -6631038.75449  -5134487.90345  24243693.7504   24243699.0724
       203.0004        136.0004
  23519297.4084   -5486318.11749  -4240145.69045  23519297.0494   23519301.4044
       218.0004        161.0004
 07  2 18  1 42 30.0000000  0  9G 1G18G 3G14G22G19G31G25G11
  21186247.2874   -3677442.37849  -2553144.58047  21186247.1164   21186252.4144
       241.0004        205.0004
  23864518.6674    2521726.57749   1964766.38445  23864518.3484   23864522.6794
       211.0004        147.0004
  24356198.1904    3231630.87849   2515659.74245  24356197.5554   24356204.9044
       212.0004        152.0004
  20611151.9134     522729.91649    415212.15447  20611151.3474   20611155.8114
       239.0004        211.0004
  21554307.1844     830914.33349    652239.22647  21554307.0844   21554309.7484
       239.0004        200.0004
  23067453.2414    1367444.82949   1070134.01946  23067452.5554   23067456.9004
       221.0004        177.0004
  22201819.3764   -5969455.19049  -4627674.27747  22201819.4604   22201823.8024
       230.0004        190.0004
  24240202.8154   -6649385.09249  -5148783.74245  24240202.8174   24240207.2804
       204.0004        136.0004
  23516646.0264   -5500250.96249  -4251002.44145  23516646.0154   23516650.6814
       219.0004        161.0004
 07  2 18  1 42 35.0000000  0  9G 1G18G 3G14G22G19G31G25G11
  21184914.4164   -3684446.69849  -2558602.49247  21184913.9694   21184919.5334
       241.0004        205.0004
  23866639.8544    2532873.44149   1973452.26045  23866639.3194   23866644.2634
       210.0004        147.0004
  24358689.4994    3244722.90849   2525861.31845  24358689.6104   24358696.2164
       211.0004        152.0004
  20612294.2524     528732.96149    419889.85047  20612293.8564   20612298.2124
       239.0004        211.0004
  21555463.6794     836991.75549    656974.87947  21555463.5634   21555466.1674
       238.0004        200.0004
  23069126.4854    1376237.78149   1076985.66246  23069125.5774   23069129.9644
       221.0004        177.0004
  22199001.2424   -5984264.52249  -4639214.01047  22199001.4714   22199005.6964
       230.0004        190.0004
  24236711.8984   -6667730.14949  -5163078.58845  24236712.3334   24236716.4404
       204.0004        136.0004
  23513996.2894   -5514175.42149  -4261852.67045  23513996.0294   23514001.3004
       218.0004        161.0004
